     2              OBSERVATION DATA    GPS                 RINEX VERSION / TYPE
TRRINEXO V2.8.4 LH                                          PGM / RUN BY / DATE
                                                            COMMENT
BIT 2 OF LLI (+4) FLAGS DATA COLLECTED UNDER "AS" CONDITION COMMENT
Original Marker Name: 0110                                  COMMENT
Campaign Name: coachelle valley 1990                        COMMENT
4-Character Station Name: 0110                              COMMENT
6-Character Antenna Code: TRMSST                            COMMENT
Vertical Measurement Point: TGP                             COMMENT
Vertical Offset to Rinex Ref. Point: 0.0629                 COMMENT
Radial Measurement Point: NGP                               COMMENT
Radial Offset to Rinex Ref. Point: 0.2334                   COMMENT
Antenna Height from Field Measurement: 1.2470 m             COMMENT
Original XYZ: -2306306.1989 -4787917.4969 3515732.5421      COMMENT
New XYZ position is based on association with SCEC monument COMMENT
E1D0M3T8+0011. Position of that monument is believed to be  COMMENT
valid to within 1 m horizontally; vertical accuracy         COMMENT
should be no worse than 3-times this value.                 COMMENT
                                                            COMMENT
Revised Rinex header created by UCSD GPS archive for        COMMENT
GSAC on 12-Apr-1999 (1999:102) 13:42:09 GMT                 COMMENT
For assistance contact dagnew@ucsd.edu or hjohnson@ucsd.edu COMMENT
                                                            COMMENT
BLACK BUTTE NCMN 1982                                       MARKER NAME
UNKNOWN OBSERVER RIVERSIDE COUNTY FCWCD                     OBSERVER / AGENCY
492 TRIMBLE 4000 SST 4.11 / 4.10                            REC # / TYPE / VERS
31 TR 4000SST L1/L2 GEO                                     ANT # / TYPE
 -2306307.0000 -4787914.0000  3515736.0000                  APPROX POSITION XYZ
        1.1621        0.0000        0.0000                  ANTENNA: DELTA H/E/N
     1     2     0                                          WAVELENGTH FACT L1/2
     3    C1    L1    L2                                    # / TYPES OF OBSERV
     0                                                      INTERVAL
  1990    10    22    10    42   45.000000                  TIME OF FIRST OBS
  1990    10    22    17    41   60.000000                  TIME OF LAST OBS
     0                                                      # OF SATELLITES
                                                            END OF HEADER
 90 10 22 10 42 45.0000000  0  5 02 18 11 06 15
  20964649.305          -0.21517
  22341773.742          -0.99517
  24111071.172          -0.07116
  22343097.305          -0.59916
  24731147.125          -0.60915
 90 10 22 10 43  0.0000000  0  5 02 18 11 06 15
  20963077.031       -8259.427 7        -0.08513
  22349583.852       41037.489 7
  24117947.109       36122.247 6
  22336116.219      -36685.486 6        -0.32311
  24724116.406      -36959.781 5
 90 10 22 10 43 15.0000000  0  5 02 18 11 06 15
  20961518.000      -16459.555 7     -6389.798 3
  22357407.664       82146.098 7        -0.48212
  24124836.313       72334.345 6        -0.21211
  22329137.211      -73359.386 6    -28577.389 1
  24717088.648      -73869.604 5        -0.24111
 90 10 22 10 43 30.0000000  0  5 02 18 11 06 15
  20959969.914      -24594.188 7    -12728.472 3
  22365246.305      123331.190 7     32091.789 1
  24131744.758      108642.422 6     28291.777 1
  22322160.688     -110015.708 6    -57140.748 1
  24710075.336     -110722.982 5    -28717.148 1
 90 10 22 10 43 45.0000000  0  5 02 18 11 06 15
  20958435.570      -32656.746 7    -19010.980 3
  22373097.984      164599.103 7     64248.599 1
  24138674.484      145052.836 6     56663.516 1
  22315190.508     -146647.559 6    -85685.039 2
  24703078.242     -147513.007 5    -57384.679 1
 90 10 22 10 44  0.0000000  0  5 02 18 11 06 15
  20956912.367      -40660.942 7    -25248.016 3
  22380963.914      205935.893 7     96459.081 2
  24145618.711      181551.540 6     85104.054 1
  22308221.477     -183268.518 6   -114220.850 1
  24696085.117     -184252.653 5    -86012.964 1
 90 10 22 10 44 15.0000000  0  5 02 18 11 06 15
  20955400.773      -48602.344 7    -31436.124 3
  22388844.586      247345.787 7    128726.517 1
  24152582.977      218142.818 6    113616.734 1
  22301256.289     -219873.744 6
  24689101.773     -220937.133 5
 90 10 22 10 44 30.0000000  0  5 02 18 11 06 15
  20953901.141      -56482.611 7    -37576.594 3
  22396735.742      288826.802 7    161049.383 1
  24159564.266      254824.679 6    142199.987 1
  22294292.250     -256464.740 6
  24682135.633     -257567.909 5
 90 10 22 10 44 45.0000000  0  5 02 18 11 06 15
  20952413.297      -64300.262 7    -43668.274 3
  22404645.664      330380.164 7    193428.628 1
  24166564.000      291598.208 6    170854.672 1
  22287333.297     -293039.927 6
  24675175.484     -294142.899 5
 90 10 22 10 45  0.0000000  0  5 02 18 11 06 15
  20950937.430      -72056.378 7    -49712.007 3
  22412564.898      372004.277 7    225862.992 1
  24173577.344      328461.925 6    199579.630 1
  22280374.594     -329600.087 6
  24668223.102     -330662.619 5
 90 10 22 10 45 15.0000000  0  5 02 18 11 06 15
  20949474.414      -79747.257 7    -55704.901 3
  22420498.445      413703.058 7    258355.547 1
  24180607.750      365419.437 6    228377.687 1
  22273421.172     -366141.299 6   -256719.111 1
  24661288.641     -367123.006 5   -228509.257 1
 90 10 22 10 45 30.0000000  0  5 02 18 11 06 15
  20948022.891      -87372.206 7    -61646.418 3
  22428447.898      455476.712 6    290906.441 1
  24187658.469      402471.227 6    257249.193 1
  22266473.188     -402662.443 6   -285177.143 1
  24654361.484     -403522.989 5   -256872.873 1
 90 10 22 10 45 45.0000000  0  5 02 18 11 06 15
  20946584.266      -94935.229 7    -67539.678 3
  22436410.953      497320.935 7    323512.326 1
  24194725.906      439613.127 6    286190.924 1
  22259524.719     -439167.326 6   -313622.509 1
  24647443.578     -439866.072 5   -285192.135 1
 90 10 22 10 46  0.0000000  0  5 02 18 11 06 15
  20945155.758     -102440.703 7    -73388.097 3
  22444387.227      539231.365 6    356169.799 1
  24201811.367      476840.518 6    315199.267 1
  22252581.563     -475660.167 6   -342058.484 1
  24640534.320     -476156.059 5   -313470.028 1
 90 10 22 10 46 15.0000000  0  5 02 18 11 06 15
  20943738.852     -109889.155 7    -79192.086 3
  22452374.375      581207.008 6    388878.090 1
  24208911.500      514152.533 6    344273.554 1
  22245639.352     -512141.235 6   -370485.287 1
  24633643.023     -512393.122 5   -341706.684 1
 90 10 22 10 46 30.0000000  0  5 02 18 11 06 15
  20942332.898     -117276.121 7    -84948.163 3
  22460376.117      623252.125 6    421640.510 1
  24216028.992      551553.308 6    373417.007 1
  22238700.688     -548605.856 6   -398899.282 1
  24626756.852     -548572.068 5   -369898.051 1
 90 10 22 10 46 45.0000000  0  5 02 18 11 06 15
  20940939.414     -124600.254 7    -90655.277 3
  22468389.977      665367.981 6    454458.058 1
  24223162.273      589044.097 6    402630.593 1
  22231763.875     -585052.153 6   -427298.990 1
  24619886.328     -584691.398 5   -398042.960 1
 90 10 22 10 47  0.0000000  0  5 02 18 11 06 15
  20939557.648     -131864.692 7    -96315.878 3
  22476418.766      707550.854 6    487327.829 1
  24230312.180      626621.401 6    431911.597 1
  22224830.641     -621483.236 6   -455686.836 1
  24613025.312     -620753.348 5   -426143.167 1
 90 10 22 10 47 15.0000000  0  5 02 18 11 06 15
  20938188.453     -139058.153 7   -101921.169 3
  22484458.914      749811.976 6    520258.570 1
  24237482.688      664296.168 6    461268.554 1
  22217904.359     -657887.585 6   -484053.860 1
  24606171.586     -656746.388 5   -454189.675 1
 90 10 22 10 47 30.0000000  0  5 02 18 11 06 15
  20936831.359     -146187.281 7   -107476.340 3
  22492512.008      792144.513 6    553244.958 1
  24244669.383      702061.581 6    490696.135 1
  22210979.742     -694271.557 6   -512405.003 2
  24599334.703     -692676.738 5   -482187.339 1
 90 10 22 10 47 45.0000000  0  5 02 18 11 06 15
  20935486.195     -153256.426 7   -112984.760 3
  22500583.023      834543.944 6    586283.475 1
  24251872.125      739913.072 6    520190.807 1
  22204059.734     -730639.231 6   -540743.446 1
  24592510.023     -728548.267 5   -510139.154 1
 90 10 22 10 48  0.0000000  0  5 02 18 11 06 15
  20934151.898     -160265.834 7   -118446.635 3
  22508664.133      877009.886 6    619373.820 1
  24259092.828      777850.202 6    549752.181 1
  22197142.539     -766990.453 6   -569069.069 1
  24585696.930     -764360.851 5   -538045.050 1
 90 10 22 10 48 15.0000000  0  5 02 18 11 06 15
  20932830.820     -167210.239 7   -123857.855 3
  22516759.578      919547.143 6    652519.733 1
  24266326.891      815877.747 5    579384.046 1
  22190229.711     -803319.911 6   -597377.735 1
  24578890.820     -800108.833 5   -565900.593 1
 90 10 22 10 48 30.0000000  0  5 02 18 11 06 15
  20931521.094     -174090.359 7   -129218.985 3
  22524867.594      962154.615 6    685720.357 1
  24273583.367      853994.722 6    609085.574 1
  22183320.578     -839627.966 6   -625669.722 1
  24572100.711     -835792.408 5   -593705.963 1
 90 10 22 10 48 45.0000000  0  6 02 18 11 06 15 13
  20930223.773     -180910.159 7   -134533.108 3
  22532987.820     1004827.980 6    718972.324 1
  24280851.430      892196.808 5    638853.415 1
  22176414.602     -875918.540 6   -653948.092 1
  24565320.195     -871414.976 5   -621463.788 1
  24768972.461          -0.06115
 90 10 22 10 49  0.0000000  0  6 02 18 11 06 15 13
  20928937.867     -187664.361 7   -139796.128 3
  22541121.031     1047572.324 6    752279.604 1
  24288138.789      930489.019 6    668691.503 1
  22169513.234     -912186.090 6   -682208.520 2
  24558558.188     -906971.062 5   -649169.811 1
  24756444.648      -65843.549 5
 90 10 22 10 49 15.0000000  0  6 02 18 11 06 15 13
  20927664.828     -194356.011 7   -145010.396 3
  22549268.086     1090384.668 6    785639.870 1
  24295440.023      968868.177 6    698597.316 1
  22162614.906     -948433.295 6   -710453.087 1
  24551801.336     -942463.153 5   -676825.960 1
  24743915.656     -131673.689 5
 90 10 22 10 49 30.0000000  0  6 02 18 11 06 15 13
  20926402.328     -200991.719 7   -150181.081 3
  22557428.813     1133258.057 6    819047.701 1
  24302761.398     1007327.544 6    728565.647 1
  22155720.922     -984666.288 6   -738686.592 1
  24545062.523     -977897.198 5   -704436.890 1
  24731389.422     -197496.521 5
 90 10 22 10 49 45.0000000  0  6 02 18 11 06 15 13
  20925153.445     -207558.829 7   -155298.310 3
  22565599.617     1176204.708 6    852512.621 1
  24310095.375     1045879.346 5    758606.004 1
  22148831.711    -1020872.402 6   -766899.146 1
  24538330.633    -1013260.257 5   -731992.507 1
  24718870.633     -263298.893 5
 90 10 22 10 50  0.0000000  0  6 02 18 11 06 15 13
  20923915.680     -214057.430 7   -160362.158 3
  22573784.445     1219224.397 6    886034.454 1
  24317449.430     1084523.283 5    788718.138 1
  22141946.758    -1057051.316 6   -795090.497 2
  24531617.031    -1048551.557 5   -759492.193 1
  24706352.922     -329080.538 5
 90 10 22 10 50 15.0000000  0  6 02 18 11 06 15 13
  20922698.188     -220455.769 7   -165347.874 3
  22581993.969     1262348.750 6    919637.846 1
  24324829.102     1123290.846 5    818926.626 1
  22135073.266    -1093171.055 6   -823235.744 2
  24524919.953    -1083739.122 5   -786911.061 1
  24693846.305     -394809.272 5        -0.08611
 90 10 22 10 50 30.0000000  0  6 02 18 11 06 15 13
  20921493.375     -226787.572 7   -170281.743 3
  22590211.180     1305543.604 6    953296.161 1
  24332221.828     1162147.901 5    849204.832 1
  22128203.992    -1129265.155 6   -851361.014 2
  24518235.523    -1118856.386 5   -814275.149 1
  24681336.930     -460518.217 5    -51201.866 1
 90 10 22 10 50 45.0000000  0  6 02 18 11 06 15 13
  20920299.500     -233064.529 7   -175172.877 3
  22598442.344     1348796.868 6    986999.997 1
  24339632.477     1201082.578 5    879543.522 1
  22121338.695    -1165345.117 6   -879475.264 2
  24511565.000    -1153914.484 5   -841593.144 1
  24668838.766     -526218.740 5
 90 10 22 10 51  0.0000000  0  6 02 18 11 06 15 13
  20919115.719     -239283.048 7   -180018.480 3
  22606685.781     1392112.179 6   1020752.180 1
  24347053.922     1240098.126 5    909945.258 1
  22114475.906    -1201407.158 6   -907575.554 2
  24504905.742    -1188909.407 5   -868861.868 1
  24656334.586     -591907.055 5
 90 10 22 10 51 15.0000000  0  6 02 18 11 06 15 13
  20917943.438     -245444.616 7   -184819.706 3
  22614938.508     1435487.667 6   1054551.254 1
  24354495.016     1279192.751 5    940408.560 1
  22107616.828    -1237452.441 6   -935662.786 1
  24498255.133    -1223842.415 5   -896082.385 1
  24643835.758     -657584.065 4
 90 10 22 10 51 30.0000000  0  6 02 18 11 06 15 13
  20916780.625     -251555.235 7   -189581.228 3
  22623204.789     1478917.269 6   1088392.502 1
  24361947.156     1318360.214 5    970928.667 1
  22100760.039    -1273486.557 6   -963741.316 2
  24491619.063    -1258718.621 5   -923258.635 1
  24631342.859     -723255.444 5
 90 10 22 10 51 45.0000000  0  6 02 18 11 06 15 13
  20915628.664     -257609.126 7   -194298.545 3
  22631477.586     1522406.145 6   1122279.932 1
  24369416.461     1357606.123 5   1001509.875 1
  22093906.688    -1309503.755 6   -991806.655 2
  24484998.406    -1293532.015 5   -950385.929 1
  24618845.859     -788914.940 4
 90 10 22 10 52  0.0000000  0  6 02 18 11 06 15 13
  20914487.672     -263605.278 7   -198970.870 3
  22639766.742     1565954.999 6   1156214.099 1
  24376897.953     1396931.285 5   1032152.847 1
  22087056.195    -1345502.598 6  -1019857.706 2
  24478384.695    -1328281.093 5   -977463.113 1
  24606355.414     -854560.771 5
 90 10 22 10 52 15.0000000  0  6 02 18 11 06 15 13
  20913356.328     -269544.279 7   -203598.662 3
  22648063.797     1609563.478 6   1190194.732 1
  24384397.781     1436334.736 5   1062856.824 1
  22080208.156    -1381483.266 6  -1047894.580 2
  24471782.523    -1362965.784 5  -1004490.119 1
  24593868.867     -920193.039 4        -0.00411
 90 10 22 10 52 30.0000000  0  6 02 18 11 06 15 13
  20912236.930     -275427.505 7   -208182.990 3
  22656374.352     1653229.902 6   1224220.508 1
  24391909.266     1475814.971 5   1093620.637 1
  22073365.867    -1417446.850 6  -1075918.152 2
  24465195.422    -1397587.154 5  -1031467.801 1
  24581380.938     -985812.545 4    -51132.031 1
 90 10 22 10 52 45.0000000  0  6 02 18 11 06 15 13
  20911129.977     -281250.924 7   -212720.713 3
  22664695.313     1696957.998 6   1258294.347 1
  24399438.461     1515375.630 5   1124447.095 1
  22066525.492    -1453389.035 6  -1103925.042 2
  24458622.594    -1432140.666 5  -1058392.595 1
  24568898.070    -1051414.804 4   -102250.669 1
 90 10 22 10 53  0.0000000  0  6 02 18 11 06 15 13
  20910031.531     -287020.124 7   -217216.195 3
  22673028.961     1740741.699 6   1292411.511 1
  24406980.820     1555010.651 5   1155331.520 1
  22059689.961    -1489315.362 7  -1131919.580 2
  24452054.250    -1466631.656 5  -1085268.678 1
  24556408.719    -1117005.404 3   -153360.240 1
 90 10 22 10 53 15.0000000  0  6 02 18 11 06 15 13
  20908945.227     -292731.381 8   -221666.522 3
  22681368.195     1784584.682 6   1326574.873 1
  24414537.133     1594723.605 5   1186276.670 1
  22052857.203    -1525221.815 7  -1159898.634 2
  24445506.656    -1501055.932 5  -1112092.764 1
  24543934.563    -1182580.095 4   -204457.358 1
 90 10 22 10 53 30.0000000  0  6 02 18 11 06 15 13
  20907867.891     -298390.128 8   -226075.930 3
  22689725.445     1828480.975 6   1360779.770 1
  24422107.703     1634508.842 5   1217278.130 1
  22046026.508    -1561113.463 6  -1187866.146 2
  24438968.148    -1535418.440 5  -1138868.730 1
  24531459.141    -1248143.555 3   -255545.757 1
 90 10 22 10 53 45.0000000  0  6 02 18 11 06 15 13
  20906802.578     -303989.394 8   -230438.996 3
  22698087.898     1872437.531 6   1395031.624 1
  24429691.773     1674373.207 5   1248341.271 1
  22039200.797    -1596983.067 7  -1215816.479 2
  24432440.609    -1569711.394 5  -1165590.497 1
  24518985.969    -1313688.358 3   -306619.624 1
 90 10 22 10 54  0.0000000  0  6 02 18 11 06 15 13
  20905749.094     -309524.584 8   -234752.130 3
  22706463.000     1916458.712 6   1429333.838 1
  24437296.992     1714320.816 5   1279469.250 1
  22032380.070    -1632825.906 6  -1243745.964 2
  24425930.203    -1603930.181 5  -1192254.461 1
  24506519.352    -1379209.617 4   -357675.100 1
 90 10 22 10 54 15.0000000  0  6 02 18 11 06 15 13
  20904706.922     -315001.827 8   -239020.115 3
  22714855.930     1960538.187 6   1463681.474 1
  24444914.281     1754345.496 5   1310657.309 1
  22025564.586    -1668647.605 6  -1271658.977 2
  24419428.766    -1638080.251 5  -1218864.892 1
  24494057.242    -1444712.767 4   -408716.512 1
 90 10 22 10 54 30.0000000  0  6 02 18 11 06 15 13
  20903676.078     -320420.324 8   -243242.323 3
  22723250.195     2004676.308 6   1498074.814 1
  24452547.734     1794447.627 5   1341905.691 1
  22018751.297    -1704447.261 6  -1299554.806 2
  24412942.734    -1672160.460 5  -1245420.878 1
  24481599.023    -1510196.699 5   -459742.898 1
 90 10 22 10 54 45.0000000  0  6 02 18 11 06 15 13
  20902655.438     -325783.804 8   -247421.657 3
  22731660.625     2048868.844 6   1532510.547 1
  24460190.773     1834623.081 5   1373211.240 1
  22011942.695    -1740228.315 7  -1327436.145 2
  24406474.211    -1706174.079 5  -1271924.986 1
  24469130.141    -1575664.836 3   -510757.035 1
 90 10 22 10 55  0.0000000  0  6 02 18 11 06 15 13
  20901644.102     -331094.343 8   -251559.737 3
  22740082.148     2093113.670 6   1566987.036 1
  24467847.164     1874869.491 5   1404572.068 1
  22005135.773    -1775992.604 6  -1355304.419 2
  24400014.820    -1740122.951 5  -1298378.630 1
  24456679.766    -1641118.681 5   -561760.034 1
 90 10 22 10 55 15.0000000  0  6 02 18 11 06 15 13
  20900644.055     -336352.593 8   -255657.069 3
  22748509.227     2137410.313 6   1601503.891 1
  24475519.602     1915186.174 5   1435987.656 1
  21998332.820    -1811740.415 6  -1383159.848 2
  24393565.734    -1774006.780 5  -1324781.591 1
  24444223.172    -1706558.115 5   -612751.780 1
 90 10 22 10 55 30.0000000  0  6 02 18 11 06 15 13
  20899654.516     -341554.724 8   -259710.676 3
  22756951.109     2181762.166 6   1636063.774 1
  24483203.000     1955576.802 5   1467460.845 1
  21991535.273    -1847467.553 6  -1410999.177 2
  24387129.727    -1807821.484 5  -1351130.699 1
  24431771.836    -1771979.073 4   -663729.158 1
 90 10 22 10 55 45.0000000  0  6 02 18 11 06 15 13
  20898674.953     -346700.951 8   -263720.720 3
  22765402.109     2226168.560 6   1670666.146 1
  24490906.063     1996040.740 5   1498991.195 1
  21984740.211    -1883174.151 6  -1438822.493 2
  24380707.086    -1841566.870 5  -1377425.792 1
  24419327.156    -1837381.409 5   -714691.997 1
 90 10 22 10 56  0.0000000  0  6 02 18 11 06 15 13
  20897705.617     -351792.624 8   -267688.255 3
  22773861.133     2270627.713 6   1705309.637 1
  24498620.094     2036576.231 5   1530577.287 1
  21977948.828    -1918861.247 6  -1466630.611 2
  24374299.367    -1875243.887 5  -1403667.608 1
  24406891.555    -1902766.082 5   -765641.087 1
 90 10 22 10 56 15.0000000  0  6 02 18 11 06 15 13
  20896747.922     -356828.549 8   -271612.355 3
  22782331.641     2315140.786 6   1739995.142 1
  24506347.289     2077184.332 5   1562219.923 1
  21971162.680    -1954527.317 6  -1494422.353 2
  24367902.734    -1908850.745 5  -1429854.736 1
  24394449.883    -1968131.332 5   -816575.037 1
 90 10 22 10 56 30.0000000  0  6 02 18 11 06 15 13
  20895799.367     -361808.898 8   -275493.149 3
  22790811.289     2359707.192 6   1774722.211 1
  24514088.930     2117864.418 5   1593918.691 1
  21964379.344    -1990172.439 7  -1522197.770 2
  24361524.289    -1942387.260 5  -1455987.081 1
  24382014.633    -2033477.099 5   -867493.798 1
 90 10 22 10 56 45.0000000  0  6 02 18 11 06 15 13
  20894863.266     -366731.877 8   -279329.238 3
  22799305.805     2404328.566 6   1809492.115 1
  24521843.148     2158618.114 5   1625674.809 1
  21957600.938    -2025794.275 7  -1549955.038 2
  24355153.930    -1975851.220 5  -1482062.880 1
  24369586.750    -2098800.718 5   -918395.304 1
 90 10 22 10 57  0.0000000  0  6 02 18 11 06 15 13
  20893937.969     -371592.674 8   -283116.874 3
  22807806.367     2449009.634 6   1844308.526 1
  24529613.320     2199449.835 5   1657491.713 1
  21950827.930    -2061387.901 6  -1577690.319 2
  24348802.508    -2009237.230 5  -1508077.950 1
  24357156.250    -2164097.071 5   -969275.577 1
 90 10 22 10 57 15.0000000  0  6 02 18 11 06 15 13
  20893024.234     -376396.221 8   -286859.898 3
  22816317.047     2493745.107 6   1879167.336 1
  24537396.109     2240354.318 5   1689365.349 1
  21944058.477    -2096957.888 7  -1605407.178 2
  24342463.109    -2042549.993 5  -1534035.926 1
  24344738.797    -2229370.604 5  -1020138.080 1
 90 10 22 10 57 30.0000000  0  6 02 18 11 06 15 13
  20892121.258     -381142.009 8   -290557.920 3
  22824839.063     2538535.233 6   1914068.727 1
  24545195.125     2281331.927 5   1721295.930 1
  21937294.781    -2132503.557 7  -1633105.102 2
  24336137.023    -2075788.371 5  -1559935.955 1
  24332321.383    -2294620.379 5  -1070982.046 1
 90 10 22 10 57 45.0000000  0  6 02 18 11 06 15 13
  20891228.922     -385830.250 8   -294211.095 3
  22833377.945     2583379.577 6   1949012.374 1
  24553007.680     2322382.241 5   1753283.177 1
  21930534.688    -2168024.742 6  -1660783.943 2
  24329828.977    -2108952.266 5  -1585777.934 1
  24319910.172    -2359846.163 5  -1121807.343 1
 90 10 22 10 58  0.0000000  0  6 02 18 11 06 15 13
  20890347.219     -390462.570 7   -297820.691 3
  22841919.859     2628276.124 6   1983996.684 1
  24560832.742     2363503.333 5   1785325.583 1
  21923779.477    -2203522.916 7  -1688444.857 2
  24323528.250    -2142042.773 5  -1611562.728 1
  24307500.852    -2425049.149 5  -1172614.853 1
 90 10 22 10 58 15.0000000  0  6 02 18 11 06 15 13
  20889476.070     -395042.410 8   -301389.394 3
  22850471.977     2673221.013 6   2019018.671 1
  24568669.172     2404691.421 5   1817420.180 1
  21917027.961    -2239001.147 6  -1716090.236 2
  24317245.984    -2175062.809 5  -1637292.607 1
  24295101.227    -2490232.566 5  -1223407.103 1
 90 10 22 10 58 30.0000000  0  6 02 18 11 06 15 13
  20888615.563     -399566.306 8   -304914.502 3
  22859036.078     2718217.596 6   2054080.943 1
  24576520.219     2445949.770 5   1849569.519 1
  21910281.406    -2274455.691 6  -1743717.152 2
  24310977.883    -2208008.629 5  -1662964.670 1
  24282698.172    -2555392.127 5  -1274180.786 1
 90 10 22 10 58 45.0000000  0  6 02 18 11 06 15 13
  20887765.125     -404032.800 8   -308394.891 3
  22867606.352     2763267.216 6   2089184.539 1
  24584386.406     2487279.577 5   1881774.565 1
  21903541.391    -2309884.828 7  -1771324.275 2
  24304717.570    -2240878.047 5  -1688577.183 1
  24270303.055    -2620525.774 5  -1324934.291 1
 90 10 22 10 59  0.0000000  0  6 02 18 11 06 15 13
  20886925.211     -408443.365 7   -311831.699 3
  22876189.781     2808368.056 6   2124328.046 1
  24592263.758     2528679.031 5   1914033.879 1
  21896801.766    -2345289.874 7  -1798912.617 2
  24298481.031    -2273672.428 5  -1714131.234 1
  24257912.203    -2685634.895 5  -1375668.670 1
 90 10 22 10 59 15.0000000  0  6 02 18 11 06 15 13
  20886096.500     -412799.513 7   -315226.098 3
  22884781.617     2853518.311 6   2159510.064 1
  24600156.438     2570146.461 5   1946346.154 1
  21890069.727    -2380671.810 7  -1826482.953 2
  24292256.258    -2306392.812 5  -1739627.620 1
  24245528.719    -2750720.287 5  -1426384.572 1
 90 10 22 10 59 30.0000000  0  6 02 18 11 06 15 13
  20885278.867     -417098.016 8   -318575.579 3
  22893385.188     2898721.093 6   2194733.006 1
  24608058.992     2611684.773 5   1978713.663 1
  21883341.734    -2416027.301 7  -1854032.683 2
  24286040.813    -2339035.527 5  -1765063.480 1
  24233149.523    -2815778.354 5  -1477079.137 1
 90 10 22 10 59 45.0000000  0  6 02 18 11 06 15 13
  20884471.672     -421338.340 7   -321879.727 3
  22901996.375     2943976.676 6   2229997.084 1
  24615976.156     2653294.052 5   2011136.475 1
  21876618.859    -2451355.409 7  -1881561.078 2
  24279847.813    -2371599.823 5  -1790438.242 1
  24220777.664    -2880808.024 5  -1527751.607 1
 90 10 22 11  0  0.0000000  0  6 02 18 11 06 15 13
  20883675.133     -425523.504 8   -325140.890 3
  22910616.672     2989281.771 6   2265299.755 1
  24623908.305     2694971.048 5   2043612.051 1
  21869901.781    -2486658.929 7  -1909070.317 2
  24273662.664    -2404087.810 5  -1815753.548 1
  24208405.477    -2945811.871 5  -1578403.978 1
 90 10 22 11  0 15.0000000  0  6 02 18 11 06 15 13
  20882889.391     -429656.255 7   -328361.215 3
  22919244.023     3034633.300 6   2300638.606 1
  24631851.359     2736712.905 5   2076138.163 1
  21863186.922    -2521940.254 7  -1936562.264 2
  24267497.594    -2436501.824 5  -1841011.198 1
  24196034.828    -3010792.148 5  -1629037.938 1
 90 10 22 11  0 30.0000000  0  6 02 18 11 06 15 13
  20882114.656     -433729.887 7   -331535.473 3
  22927887.313     3080037.551 6   2336018.540 1
  24639806.945     2778526.038 5   2108719.825 1
  21856478.688    -2557192.501 7  -1964031.539 2
  24261344.797    -2468834.824 5  -1866205.747 1
  24183679.859    -3075741.765 5  -1679648.008 1
 90 10 22 11  0 45.0000000  0  6 02 18 11 06 15 13
  20881349.852     -437745.971 8   -334664.887 3
  22936538.586     3125492.948 6   2371438.321 1
  24647776.445     2820408.419 5   2141355.414 1
  21849776.273    -2592416.908 7  -1991479.126 2
  24255204.734    -2501087.764 5  -1891337.890 1
  24171324.930    -3140661.953 5  -1730235.174 1
 90 10 22 11  1  0.0000000  0  6 02 18 11 06 15 13
  20880596.563     -441703.597 8   -337748.753 3
  22945195.789     3170999.933 6   2406898.311 1
  24655760.289     2862360.708 5   2174045.510 1
  21843079.844    -2627612.394 7  -2018904.187 2
  24249083.844    -2533259.718 5  -1916406.922 1
  24158975.281    -3205551.376 5  -1780798.383 1
 90 10 22 11  1 15.0000000  0  6 02 18 11 06 15 13
  20879851.734     -445616.040 8   -340797.415 3
  22953863.273     3216544.727 6   2442387.757 1
  24663756.086     2904369.244 5   2206779.410 1
  21836383.625    -2662792.007 7  -2046316.868 2
  24242976.203    -2565363.403 5  -1941422.774 1
  24146633.938    -3270422.772 5  -1831347.514 1
 90 10 22 11  1 30.0000000  0  6 02 18 11 06 15 13
  20879118.664     -449470.840 7   -343801.155 3
  22962538.609     3262139.936 6   2477916.491 1
  24671762.422     2946446.363 5   2239566.771 1
  21829693.523    -2697942.755 7  -2073707.055 2
  24236880.969    -2597385.967 5  -1966375.399 1
  24134296.031    -3335263.250 5  -1881872.569 1
 90 10 22 11  1 45.0000000  0  6 02 18 11 06 15 13
  20878395.078     -453271.383 8   -346762.611 3
  22971224.820     3307781.673 6   2513481.480 1
  24679782.211     2988588.440 5   2272404.749 1
  21823010.859    -2733067.930 7  -2101077.316 2
  24230804.641    -2629329.875 5  -1991266.734 1
  24121959.383    -3400075.710 5  -1932375.747 1
 90 10 22 11  2  0.0000000  0  6 02 18 11 06 15 13
  20877683.195     -457017.132 8   -349681.378 3
  22979918.914     3353470.343 6   2549083.033 1
  24687813.406     3030795.606 5   2305293.447 1
  21816331.781    -2768166.685 7  -2128427.000 2
  24224741.203    -2661194.542 5  -2016096.341 1
  24109631.805    -3464859.178 5  -1982856.393 1
 90 10 22 11  2 15.0000000  0  6 02 18 11 06 15 13
  20876980.148     -460710.514 8   -352559.335 3
  22988621.648     3399203.215 6   2584719.031 1
  24695858.023     3073065.138 5   2338230.734 1
  21809657.477    -2803241.156 7  -2155757.749 2
  24218692.227    -2692981.938 5  -2040865.713 1
  24097312.227    -3529615.696 5  -2033316.009 1
 90 10 22 11  2 30.0000000  0  6 02 18 11 06 15 13
  20876286.398     -464349.808 8   -355395.145 3
  22997333.383     3444981.872 6   2620390.706 1
  24703911.477     3115398.686 5   2371217.911 1
  21802988.758    -2838289.285 7  -2183067.973 2
  24212655.328    -2724689.694 5  -2065573.037 1
  24084995.070    -3594342.745 5  -2083752.616 1
 90 10 22 11  2 45.0000000  0  6 02 18 11 06 15 13
  20875604.563     -467938.329 8   -358191.396 3
  23006052.563     3490802.832 6   2656095.336 1
  24711978.867     3157792.551 5   2404252.091 1
  21796322.352    -2873314.028 7  -2210359.983 2
  24206636.766    -2756321.100 5  -2090220.864 1
  24072680.445    -3659043.387 5  -2134168.751 1
 90 10 22 11  3  0.0000000  0  6 02 18 11 06 15 13
  20874931.227     -471476.275 8   -360948.239 3
  23014781.828     3536665.180 6   2691832.236 1
  24720061.438     3200246.173 5   2437332.832 1
  21789662.352    -2908315.419 7  -2237633.789 2
  24200633.617    -2787875.901 5  -2114808.997 1
  24060374.469    -3723717.292 5  -2184563.982 1
 90 10 22 11  3 15.0000000  0  6 02 18 11 06 15 13
  20874267.875     -474960.163 8   -363662.956 3
  23023516.906     3582572.492 6   2727604.158 1
  24728149.227     3242762.917 5   2470462.766 1
  21783006.977    -2943289.584 7  -2264886.381 2
  24194645.016    -2819349.724 5  -2139334.038 1
  24048069.859    -3788360.674 5  -2234935.425 1
 90 10 22 11  3 30.0000000  0  6 02 18 11 06 15 13
  20873615.430     -478386.620 8   -366332.920 3
  23032260.789     3628527.828 6   2763413.503 1
  24736252.438     3285345.909 5   2503644.281 1
  21776358.156    -2978232.823 7  -2292114.883 2
  24188668.625    -2850738.965 5  -2163793.175 1
  24035776.445    -3852969.411 5  -2285279.890 1
 90 10 22 11  3 45.0000000  0  6 02 18 11 06 15 13
  20872974.578     -481755.625 8   -368958.115 3
  23041015.891     3674531.044 6   2799260.164 1
  24744368.406     3327994.833 5   2536877.213 1
  21769713.805    -3013144.743 7  -2319318.975 2
  24182715.336    -2882042.992 5  -2188185.905 1
  24023490.352    -3917543.064 5  -2335597.041 1
 90 10 22 11  4  0.0000000  0  6 02 18 11 06 15 13
  20872343.992     -485071.142 7   -371541.637 3
  23049778.008     3720577.703 6   2835140.678 1
  24752498.969     3370705.325 5   2570158.100 1
  21763075.359    -3048029.362 7  -2346501.791 2
  24176773.531    -2913265.769 5  -2212515.321 1
  24011208.266    -3982085.324 5  -2385889.705 1
 90 10 22 11  4 15.0000000  0  6 02 18 11 06 15 13
  20871723.156     -488333.365 8   -374083.631 3
  23058546.984     3766667.332 6   2871054.667 1
  24760632.563     3413476.881 5   2603486.575 1
  21756441.875    -3082886.546 7  -2373663.241 2
  24170841.016    -2944407.229 5  -2236781.366 1
  23998930.570    -4046596.014 5  -2436157.741 1
 90 10 22 11  4 30.0000000  0  6 02 18 11 06 15 13
  20871113.320     -491537.243 8   -376580.165 3
  23067327.578     3812804.973 6   2907006.074 1
  24768786.836     3456314.395 4   2636866.454 1
  21749815.914    -3117710.782 7  -2400799.010 2
  24164937.055    -2975461.481 5  -2260979.471 1
  23986662.578    -4111069.551 5  -2486396.877 1
 90 10 22 11  4 45.0000000  0  6 02 18 11 06 15 13
  20870514.000     -494688.068 8   -379035.353 3
  23076117.828     3858984.816 6   2942990.366 1
  24776948.078     3499212.363 4   2670293.412 1
  21743195.250    -3152506.950 7  -2427912.901 2
  24159040.477    -3006433.212 5  -2285113.268 1
  23974396.797    -4175510.673 5  -2536610.732 1
 90 10 22 11  5  0.0000000  0  6 02 18 11 06 15 13
  20869924.711     -497784.147 8   -381447.885 3
  23084911.461     3905207.995 6   2979008.418 1
  24785125.195     3542171.966 5   2703768.422 1
  21736578.734    -3187273.340 7  -2455003.592 2
  24153164.883    -3037320.723 5  -2309181.447 1
  23962142.469    -4239917.458 5  -2586797.812 1
 90 10 22 11  5 15.0000000  0  6 02 18 11 06 15 13
  20869345.797     -500826.737 8   -383818.736 3
  23093714.289     3951473.389 6   3015059.370 1
  24793311.133     3585191.742 4   2737290.332 1
  21729968.797    -3222010.884 7  -2482071.809 2
  24147303.273    -3068124.487 5  -2333184.356 1
  23949892.906    -4304290.645 5  -2636958.737 1
 90 10 22 11  5 30.0000000  0  6 02 18 11 06 15 13
  20868776.945     -503813.687 8   -386146.233 3
  23102529.758     3997782.867 6   3051144.681 1
  24801510.297     3628273.654 4   2770860.648 1
  21723364.398    -3256717.068 7  -2509115.590 2
  24141457.656    -3098842.139 5  -2357120.178 1
  23937654.633    -4368627.447 5  -2687091.293 1
 90 10 22 11  5 45.0000000  0  6 02 18 11 06 15 13
  20868217.914     -506755.650 8   -388438.674 3
  23111347.852     4044125.546 6   3087255.845 1
  24809719.656     3671406.803 5   2804470.864 1
  21716762.906    -3291402.088 7  -2536142.872 2
  24135623.453    -3129484.004 5  -2380996.948 1
  23925414.406    -4432937.920 5  -2737203.348 1
 90 10 22 11  6  0.0000000  0  6 02 18 11 06 15 13
  20867669.500     -509641.966 8   -390687.751 3
  23120172.477     4090511.666 6   3123400.878 1
  24817938.578     3714601.504 4   2838129.089 1
  21710168.367    -3326055.142 7  -2563145.252 2
  24129811.117    -3160039.096 5  -2404806.098 1
  23913182.367    -4497211.070 5  -2787286.302 1
 90 10 22 11  6 15.0000000  0  6 02 18 11 06 15 13
  20867130.234     -512470.887 8   -392892.103 3
  23129008.000     4136942.560 6   3159580.794 1
  24826171.352     3757859.223 4   2871836.389 1
  21703581.734    -3360674.277 7  -2590121.203 2
  24124019.281    -3190505.168 6  -2428545.881 1
  23900958.586    -4561444.826 5  -2837338.584 1
 90 10 22 11  6 30.0000000  0  6 02 18 11 06 15 13
  20866603.859     -515240.590 8   -395050.318 3
  23137853.234     4183420.099 6   3195797.059 1
  24834413.750     3801181.422 5   2905593.948 1
  21697000.570    -3395257.364 7  -2617069.055 2
  24118233.992    -3220879.503 5  -2452214.181 1
  23888745.852    -4625637.186 5  -2887358.591 1
 90 10 22 11  6 45.0000000  0  6 02 18 11 06 15 13
  20866086.766     -517955.242 8   -397165.632 3
  23146706.148     4229939.981 6   3232046.310 1
  24842670.016     3844563.786 5   2939398.379 1
  21690425.070    -3429808.013 7  -2643991.647 2
  24112469.117    -3251166.053 5  -2475814.083 1
  23876537.797    -4689791.542 5  -2937348.999 1
 90 10 22 11  7  0.0000000  0  6 02 18 11 06 15 13
  20865579.609     -520617.126 7   -399239.836 3
  23155565.672     4276499.316 6   3268326.301 1
  24850937.828     3888003.696 5   2973247.641 1
  21683857.648    -3464328.431 7  -2670890.676 2
  24106723.703    -3281366.640 5  -2499346.998 1
  23864335.125    -4753909.626 5  -2987311.118 1
 90 10 22 11  7 15.0000000  0  6 02 18 11 06 15 13
  20865082.633     -523229.992 7   -401275.834 3
  23164428.805     4323094.203 6   3304634.005 1
  24859211.820     3931497.006 5   3007138.534 1
  21677293.383    -3498822.101 7  -2697768.858 2
  24100991.891    -3311484.703 5  -2522815.606 1
  23852141.773    -4817994.809 5  -3037247.635 1
 90 10 22 11  7 30.0000000  0  6 02 18 11 06 15 13
  20864596.414     -525784.575 7   -403266.417 3
  23173307.625     4369733.593 6   3340976.391 1
  24867500.711     3975052.745 5   3041078.073 1
  21670734.219    -3533279.440 7  -2724618.732 2
  24095277.688    -3341510.616 5  -2546212.403 1
  23839953.320    -4882037.367 5  -3087150.911 1
 90 10 22 11  7 45.0000000  0  6 02 18 11 06 15 13
  20864120.008     -528287.257 8   -405216.562 3
  23182192.617     4416410.877 6   3377348.289 1
  24875797.453     4018664.090 5   3075060.910 1
  21664184.156    -3567706.481 7  -2751444.995 2
  24089583.992    -3371450.617 6  -2569542.255 1
  23827771.188    -4946043.384 5  -3137025.728 1
 90 10 22 11  8  0.0000000  0  6 02 18 11 06 15 13
  20863653.094     -530738.478 7   -407126.600 3
  23191080.344     4463125.297 6   3413749.125 1
  24884109.586     4062330.415 5   3109086.600 1
  21657638.438    -3602103.575 7  -2778247.926 2
  24083903.133    -3401304.529 6  -2592805.040 1
  23815600.258    -5010012.826 5  -3186872.039 1
 90 10 22 11  8 15.0000000  0  6 02 18 11 06 15 13
  20863198.250     -533135.289 7   -408994.245 3
  23199975.023     4509879.866 6   3450181.260 1
  24892429.656     4106054.716 5   3143157.541 1
  21651099.430    -3636466.877 7  -2805024.527 2
  24078235.031    -3431068.480 5  -2615997.715 1
  23803435.047    -5073941.885 5  -3236686.885 1
 90 10 22 11  8 30.0000000  0  6 02 18 11 06 15 13
  20862749.070     -535490.202 7   -410829.243 3
  23208878.625     4556661.698 6   3486634.631 1
  24900757.594     4149824.080 5   3177263.525 1
  21644564.227    -3670808.978 7  -2831784.605 2
  24072588.703    -3460755.007 6  -2639130.058 1
  23791275.594    -5137842.844 5  -3286479.824 1
 90 10 22 11  8 45.0000000  0  6 02 18 11 06 15 13
  20862312.648     -537788.202 8   -412619.894 3
  23217789.945     4603485.228 6   3523120.502 1
  24909100.148     4193653.168 5   3211416.054 1
  21638036.930    -3705114.603 7  -2858516.260 2
  24066959.094    -3490348.833 6  -2662190.175 1
  23779119.789    -5201700.162 5  -3336238.778 1
 90 10 22 11  9  0.0000000  0  6 02 18 11 06 15 13
  20861884.867     -540032.684 7   -414368.844 3
  23226706.922     4650346.551 6   3559635.808 1
  24917450.578     4237538.134 5   3245612.154 1
  21631515.602    -3739386.925 7  -2885221.966 2
  24061342.992    -3519852.884 6  -2685180.331 1
  23766976.531    -5265516.946 5  -3385966.147 1
 90 10 22 11  9 15.0000000  0  6 02 18 11 06 15 13
  20861468.625     -542223.333 8   -416075.847 3
  23235633.625     4697246.179 6   3596180.968 1
  24925812.922     4281479.114 5   3279851.867 1
  21625000.320    -3773625.225 7  -2911901.168 2
  24055742.453    -3549266.161 5  -2708099.753 1
  23754843.914    -5329292.444 5  -3435661.313 1
 90 10 22 11  9 30.0000000  0  6 02 18 11 06 15 13
  20861060.922     -544364.061 8   -417743.953 3
  23244560.406     4744180.002 6   3632752.776 1
  24934179.234     4325471.945 5   3314132.000 1
  21618490.305    -3807833.079 7  -2938556.635 2
  24050162.813    -3578592.230 5  -2730951.221 1
  23742714.852    -5393030.135 5  -3485327.051 1
 90 10 22 11  9 45.0000000  0  6 02 18 11 06 15 13
  20860664.813     -546450.253 8   -419369.561 3
  23253502.766     4791152.205 6   3669354.487 1
  24942564.719     4369520.976 5   3348455.942 1
  21611986.836    -3842005.495 7  -2965184.490 2
  24044598.688    -3607826.006 5  -2753730.777 1
  23730593.555    -5456724.908 5  -3534959.334 1
 90 10 22 11 10  0.0000000  0  6 02 18 11 06 15 13
  20860277.234     -548481.880 7   -420952.649 3
  23262447.594     4838162.608 6   3705985.958 1
  24950958.367     4413626.015 5   3382823.486 1
  21605490.922    -3876142.167 7  -2991784.489 2
  24039054.633    -3636967.275 5  -2776438.241 1
  23718481.797    -5520376.091 5  -3584557.653 1
 90 10 22 11 10 15.0000000  0  6 02 18 11 06 15 13
  20859898.938     -550470.472 7   -422502.201 3
  23271397.945     4885199.266 6   3742637.897 1
  24959358.133     4457775.055 5   3417225.364 1
  21598999.797    -3910254.493 7  -3018365.519 2
  24033524.797    -3666026.861 6  -2799082.062 1
  23706373.727    -5583994.763 5  -3634130.631 1
 90 10 22 11 10 30.0000000  0  6 02 18 11 06 15 13
  20859531.492     -552404.596 7   -424009.309 3
  23280356.156     4932273.545 6   3779319.154 1
  24967772.352     4501979.376 5   3451670.299 1
  21592515.836    -3944330.674 7  -3044918.383 2
  24028011.531    -3694993.011 6  -2821653.077 1
  23694277.180    -5647569.217 5  -3683669.178 1
 90 10 22 11 10 45.0000000  0  6 02 18 11 06 15 13
  20859173.711     -554285.042 7   -425474.590 3
  23289321.125     4979384.319 6   3816028.837 1
  24976191.922     4546237.701 5   3486157.304 1
  21586038.289    -3978371.212 7  -3071443.479 2
  24022519.086    -3723866.411 6  -2844151.813 1
  23682186.430    -5711099.733 5  -3733173.455 1
 90 10 22 11 11  0.0000000  0  6 02 18 11 06 15 13
  20858824.836     -556114.378 7   -426900.038 3
  23298292.938     5026528.375 6   3852764.463 1
  24984623.984     4590547.245 5   3520684.254 1
  21579566.141    -4012378.449 7  -3097942.625 2
  24017040.695    -3752649.092 6  -2866579.855 1
  23670105.672    -5774588.727 5  -3782645.390 1
 90 10 22 11 11 15.0000000  0  6 02 18 11 06 15 13
  20858487.922     -557888.257 7   -428282.290 3
  23307271.391     5073710.078 6   3889529.426 1
  24993066.305     4634912.328 5   3555254.420 1
  21573102.211    -4046347.617 7  -3124412.105 2
  24011583.672    -3781336.171 6  -2888933.413 1
  23658034.250    -5838031.186 5  -3832081.061 1
 90 10 22 11 11 30.0000000  0  6 02 18 11 06 15 13
  20858161.758     -559598.346 7   -429614.826 3
  23316256.758     5120937.656 6   3926330.131 1
  25001521.430     4679340.755 5   3589873.981 1
  21566646.086    -4080270.160 7  -3150845.255 2
  24006142.836    -3809919.061 6  -2911205.784 1
  23645969.711    -5901418.227 5  -3881473.557 1
 90 10 22 11 11 45.0000000  0  6 02 18 11 06 15 13
  20857846.586     -561257.542 7   -430907.704 3
  23325250.328     5168197.718 6   3963156.150 1
  25009986.188     4723819.487 5   3624532.760 1
  21560197.250    -4114158.580 7  -3177251.820 2
  24000720.367    -3838410.416 6  -2933406.832 1
  23633916.023    -5964762.483 5  -3930832.713 1
 90 10 22 11 12  0.0000000  0  6 02 18 11 06 15 13
  20857540.320     -562866.320 7   -432161.297 3
  23334251.625     5215489.433 6   4000006.837 1
  25018461.398     4768347.573 5   3659229.982 1
  21553754.641    -4148013.150 7  -3203632.004 2
  23995314.688    -3866810.108 6  -2955536.450 1
  23621871.430    -6028064.185 5  -3980158.717 1
 90 10 22 11 12 15.0000000  0  6 02 18 11 06 15 13
  20857244.844     -564421.154 7   -433372.857 3
  23343259.641     5262816.326 6   4036884.922 1
  25026942.945     4812928.587 5   3693968.430 1
  21547320.352    -4181829.849 7  -3229982.674 2
  23989931.328    -3895114.007 6  -2977591.424 1
  23609833.367    -6091318.966 5  -4029448.125 1
 90 10 22 11 12 30.0000000  0  6 02 18 11 06 15 13
  20856958.508     -565923.896 7   -434543.824 3
  23352266.313     5310176.147 6   4073788.671 1
  25035436.703     4857560.121 5   3728746.263 1
  21540892.516    -4215610.253 7  -3256305.072 2
  23984561.836    -3923324.118 6  -2999573.329 1
  23597805.594    -6154528.064 5  -4078702.003 1
 90 10 22 11 12 45.0000000  0  6 02 18 11 06 15 13
  20856682.328     -567374.927 7   -435674.495 3
  23361284.281     5357568.299 6   4110717.632 1
  25043938.047     4902241.554 5   3763562.982 1
  21534470.938    -4249354.597 7  -3282599.369 2
  23979212.039    -3951440.105 6  -3021481.872 1
  23585785.758    -6217691.296 5  -4127920.065 1
 90 10 22 11 13  0.0000000  0  6 02 18 11 06 15 13
  20856415.500     -568777.534 7   -436767.442 3
  23370311.852     5404989.277 6   4147669.030 1
  25052451.469     4946969.452 5   3798415.896 1
  21528055.813    -4283065.645 7  -3308867.716 2
  23973880.492    -3979464.456 6  -3043319.015 1
  23573771.609    -6280811.830 5  -4177104.888 1
 90 10 22 11 13 15.0000000  0  7 02 18 11 06 15 13 09
  20856158.117     -570126.964 7   -437818.949 3
  23379341.086     5452443.367 6   4184646.237 1
  25060969.164     4991748.247 5   3833308.491 1
  21521648.711    -4316738.486 7  -3335106.292 2
  23968565.586    -4007392.203 6  -3065080.880 1
  23561773.438    -6343884.476 5  -4226252.404 1
  24559103.141          -0.58313
 90 10 22 11 13 30.0000000  0  7 02 18 11 06 15 13 09
  20855912.055     -571419.581 7   -438826.186 3
  23388376.359     5499933.998 6   4221651.918 1
  25069502.734     5036581.151 5   3868243.243 1
  21515248.641    -4350369.233 7  -3361312.072 2
  23963268.063    -4035219.487 6  -3086764.456 1
  23549780.016    -6406905.136 5  -4275359.402 1
  24549592.023      -49981.551 3
 90 10 22 11 13 45.0000000  0  7 02 18 11 06 15 13 09
  20855678.164     -572654.598 7   -439788.540 3
  23397420.734     5547461.729 6   4258686.517 1
  25078045.008     5081468.536 5   3903220.423 1
  21508856.750    -4383956.884 7  -3387484.265 2
  23957996.148    -4062945.226 6  -3108368.918 1
  23537796.367    -6469872.639 5  -4324424.988 1
  24540082.133      -99970.017 3        -0.20611
 90 10 22 11 14  0.0000000  0  7 02 18 11 06 15 13 09
  20855453.086     -573836.206 7   -440709.268 3
  23406472.797     5595022.126 6   4295746.563 1
  25086597.734     5126406.201 5   3938236.766 1
  21502472.531    -4417505.039 7  -3413625.688 2
  23952736.914    -4090572.967 6  -3129897.010 1
  23525825.094    -6532790.729 6  -4373452.065 1
  24530567.125     -149970.023 3    -38961.242 1
 90 10 22 11 14 15.0000000  0  7 02 18 11 06 15 13 09
  20855237.242     -574968.348 7   -441591.451 3
  23415531.336     5642610.801 6   4332828.643 1
  25095154.344     5171389.824 5   3973288.971 1
  21496094.953    -4451017.453 7  -3439739.259 2
  23947497.219    -4118106.218 6  -3151351.474 1
  23513860.602    -6595662.711 6  -4422443.211 1
  24521046.094     -199985.412 3    -77934.258 1
 90 10 22 11 14 30.0000000  0  7 02 18 11 06 15 13 09
  20855030.688     -576047.666 7   -442432.480 3
  23424590.227     5690230.871 6   4369935.189 1
  25103721.734     5216422.406 4   4008379.289 1
  21489726.164    -4484490.508 7  -3465822.154 2
  23942277.727    -4145541.564 6  -3172729.647 1
  23501909.664    -6658484.928 6  -4471395.590 1
  24511527.750     -250012.682 3   -116916.550 1
 90 10 22 11 14 45.0000000  0  6 02 18 06 15 13 09
  20854836.766     -577069.684 7   -443228.856 3
  23433657.914     5737886.697 6   4407069.594 1
  21483365.297    -4517919.340 7  -3491870.593 2
  23937075.078    -4172873.806 6  -3194027.486 1
  23489960.047    -6721252.314 5  -4520305.251 1
  24502004.445     -300046.936 3   -155904.265 1
 90 10 22 11 15  0.0000000  0  6 02 18 06 15 13 09
  20854653.008     -578041.495 7   -443986.115 3
  23442733.211     5785570.837 6   4444226.069 1
  21477011.422    -4551310.856 7  -3517889.950 2
  23931893.266    -4200110.150 6  -3215250.592 1
  23478029.375    -6783971.785 6  -4569177.541 1
  24492484.195     -350095.324 4   -194902.999 1
 90 10 22 11 15 15.0000000  0  6 02 18 06 15 13 09
  20854475.828     -578963.184 7   -444704.310 3
  23451814.539     5833283.112 6   4481404.458 1
  21470662.820    -4584664.592 7  -3543879.876 2
  23926727.664    -4227250.229 6  -3236398.692 1
  23466101.180    -6846642.923 6  -4618012.185 1
  24482957.852     -400157.621 4   -233912.522 1
 90 10 22 11 15 30.0000000  0  6 02 18 06 15 13 09
  20854312.039     -579832.815 7   -445381.943 3
  23460899.594     5881025.140 6   4518606.032 1
  21464323.797    -4617978.529 7  -3569838.785 2
  23921582.258    -4254291.254 6  -3257469.607 1
  23454185.109    -6909263.190 6  -4666807.208 1
  24473428.688     -450231.694 4   -272931.301 1
 90 10 22 11 15 45.0000000  0  6 02 18 06 15 13 09
  20854155.500     -580653.480 7   -446021.429 3
  23469987.633     5928793.163 6   4555827.872 1
  21457991.828    -4651255.452 7  -3595768.856 2
  23916453.570    -4281235.988 6  -3278465.489 1
  23442273.953    -6971835.345 6  -4715564.725 1
  24463897.297     -500320.502 4   -311961.526 1
 90 10 22 11 16  0.0000000  0  6 02 18 06 15 13 09
  20854007.102     -581424.008 7   -446621.840 3
  23479082.211     5976588.247 6   4593070.784 1
  21451666.570    -4684493.753 7  -3621668.836 2
  23911345.828    -4308083.279 6  -3299385.440 1
  23430378.438    -7034357.844 6  -4764283.538 1
  24454363.680     -550422.584 5   -351002.099 1
 90 10 22 11 16 15.0000000  0  6 02 18 06 15 13 09
  20853872.703     -582146.127 7   -447184.535 3
  23488183.688     6024408.235 6   4630333.103 1
  21445349.539    -4717695.081 7  -3647539.998 2
  23906255.156    -4334834.317 6  -3320230.391 1
  23418490.977    -7096832.039 6  -4812964.735 1
  24444825.375     -600539.593 5   -390054.325 1
 90 10 22 11 16 30.0000000  0  6 02 18 06 15 13 09
  20853741.133     -582821.310 7   -447710.656 3
  23497287.039     6072251.841 6   4667613.836 1
  21439038.305    -4750860.395 7  -3673383.102 2
  23901182.555    -4361489.966 6  -3341001.010 1
  23406611.219    -7159258.598 6  -4861608.786 1
  24435284.914     -650672.712 4   -429119.091 1
 90 10 22 11 16 45.0000000  0  6 02 18 06 15 13 09
  20853624.859     -583444.165 7   -448195.995 3
  23506396.969     6120123.996 6   4704916.812 1
  21432734.656    -4783983.957 7  -3699193.670 2
  23896129.781    -4388044.560 6  -3361692.892 1
  23394743.945    -7221631.771 6  -4910211.271 1
  24425743.430     -700816.481 5   -468192.135 1
 90 10 22 11 17  0.0000000  0  6 02 18 06 15 13 09
  20853515.625     -584013.981 7   -448640.013 3
  23515512.188     6168025.186 6   4742242.410 1
  21426437.961    -4817064.738 7  -3724970.893 2
  23891096.406    -4414496.726 6  -3382304.964 1
  23382882.859    -7283950.656 6  -4958771.410 1
  24416198.836     -750969.750 5   -507272.560 1
 90 10 22 11 17 15.0000000  0  6 02 18 06 15 13 09
  20853416.828     -584525.638 7   -449038.714 3
  23524635.320     6215960.007 6   4779594.210 1
  21420153.297    -4850097.501 7  -3750710.701 2
  23886083.359    -4440841.472 6  -3402833.332 1
  23371035.539    -7346209.605 6  -5007284.889 1
  24406654.102     -801127.493 5   -546356.549 1
 90 10 22 11 17 30.0000000  0  6 02 18 06 15 13 09
  20853332.016     -584983.986 7   -449395.867 3
  23533759.695     6263923.627 6   4816968.456 1
  21413875.695    -4883086.703 7  -3776416.577 2
  23881087.539    -4467082.985 6  -3423281.239 1
  23359199.773    -7408413.017 6  -5055755.072 1
  24397108.359     -851294.149 5   -585447.430 1
 90 10 22 11 17 45.0000000  0  6 02 18 06 15 13 09
  20853255.555     -585390.877 7   -449712.931 3
  23542893.461     6311913.905 6   4854363.486 1
  21407605.703    -4916033.662 7  -3802089.525 2
  23876113.391    -4493222.636 6  -3443649.791 1
  23347373.578    -7470562.116 6  -5104182.938 1
  24387557.656     -901471.430 4   -624546.613 1
 90 10 22 11 18  0.0000000  0  6 02 18 06 15 13 09
  20853186.039     -585745.587 7   -449989.328 3
  23552030.336     6359930.991 6   4891779.383 1
  21401345.203    -4948937.522 7  -3827728.900 2
  23871159.672    -4519259.243 6  -3463938.049 1
  23335555.656    -7532655.927 6  -5152567.702 1
  24378008.609     -951658.428 4   -663653.339 1
 90 10 22 11 18 15.0000000  0  6 02 18 06 15 13 09
  20853127.938     -586045.985 7   -450223.403 3
  23561171.570     6407977.229 6   4929218.022 1
  21395091.828    -4981795.876 7  -3853332.808 3
  23866225.992    -4545190.578 6  -3484144.265 1
  23323749.391    -7594691.630 6  -5200907.220 1
  24368452.828    -1001852.671 4   -702765.732 1
 90 10 22 11 18 30.0000000  0  6 02 18 06 15 13 09
  20853079.180     -586305.796 7   -450425.860 3
  23570316.047     6456038.331 5   4966668.227 1
  21388846.625    -5014622.023 7  -3878911.621 3
  23861309.766    -4571030.131 6  -3504278.970 1
  23311955.727    -7656682.610 6  -5249211.866 1
  24358903.695    -1052067.869 5   -741894.434 1
 90 10 22 11 18 45.0000000  0  6 02 18 06 15 13 09
  20853041.875     -586506.900 7
  23579467.109     6504131.864 5   5004143.709 1
  21382608.922    -5047397.613 7  -3904451.042 3
  23856412.617    -4596759.171 6  -3524327.560 1
  23300170.367    -7718610.575 6  -5297467.421 1
  24349342.375    -1102285.748 4   -781025.271 1
 90 10 22 11 19  0.0000000  0  6 02 18 06 15 13 09
  20853012.297     -586656.849 7
  23588628.422     6552250.151 6   5041638.480 1
  21376379.945    -5080130.066 7  -3929956.849 3
  23851536.320    -4622384.956 6  -3544295.695 1
  23288394.227    -7780482.643 6  -5345679.406 1
  24339788.273    -1152513.690 4   -820163.934 1
 90 10 22 11 19 15.0000000  0  6 02 18 06 15 13 09
  20852996.055     -586755.034 7
  23597788.867     6600393.792 6   5079153.008 1
  21370158.453    -5112818.290 7  -3955428.189 3
  23846677.992    -4647906.582 6  -3564182.665 1
  23276632.891    -7842297.550 6  -5393846.870 1
  24330228.070    -1202750.901 4   -859309.829 1
 90 10 22 11 19 30.0000000  0  6 02 18 06 15 13 09
  20852988.289     -586795.182 7
  23606954.813     6648568.660 5   5116691.859 1
  21363949.859    -5145455.515 7  -3980859.786 3
  23841844.336    -4673317.360 6  -3583983.262 1
  23264882.812    -7904048.607 6  -5441964.568 1
  24320667.828    -1252990.547 4   -898457.517 1
 90 10 22 11 19 45.0000000  0  6 02 18 06 15 13 09
  20852988.539     -586791.216 7
  23616125.719     6696760.495 5   5154243.927 1
  21357745.406    -5178055.504 7  -4006262.374 2
  23837025.453    -4698630.852 6  -3603708.043 1
  23253142.406    -7965749.335 6  -5490043.047 1
  24311106.523    -1303246.581 5   -937618.090 1
 90 10 22 11 20  0.0000000  0  6 02 18 06 15 13 09
  20852998.813     -586738.861 7
  23625300.453     6744973.169 5   5191812.239 1
  21351550.000    -5210613.644 7  -4031632.349 3
  23832229.141    -4723842.156 6  -3623353.213 1
  23241409.375    -8027394.947 6  -5538078.576 1
  24301540.906    -1353514.432 5   -976787.833 1
 90 10 22 11 20 15.0000000  0  6 02 18 06 15 13 09
  20853017.375     -586635.409 7
  23634480.766     6793209.505 5   5229398.987 1
  21345362.602    -5243126.817 7  -4056967.288 3
  23827449.609    -4748948.164 6  -3642916.328 1
  23229691.570    -8088982.155 6  -5586068.613 1
  24291973.961    -1403791.289 5  -1015964.625 1
 90 10 22 11 20 30.0000000  0  6 02 18 06 15 13 09
  20853044.531     -586478.084 7
  23643664.602     6841471.619 5   5267005.820 1
  21339184.445    -5275592.111 7  -4082264.924 3
  23822694.703    -4773946.203 6  -3662395.299 1
  23217981.547    -8150507.789 6  -5634010.646 1
  24282403.711    -1454074.204 5  -1055146.111 1
 90 10 22 11 20 45.0000000  0  6 02 18 06 15 13 09
  20853085.102     -586267.789 7
  23652850.141     6889758.491 5   5304631.961 1
  21333016.086    -5308010.023 7  -4107525.630 2
  23817959.313    -4798836.314 6  -3681790.184 1
  23206286.617    -8211972.426 6  -5681905.167 1
  24272835.227    -1504363.742 5  -1094332.774 1
 90 10 22 11 21  0.0000000  0  6 02 18 06 15 13 09
  20853137.984     -586010.141 7
  23662047.320     6938064.365 6   5342272.899 1
  21326854.258    -5340385.959 7  -4132753.636 3
  23813242.547    -4823624.111 6  -3701105.341 1
  23194600.477    -8273381.392 6  -5729756.298 1
  24263262.711    -1554665.463 5  -1133528.921 1
 90 10 22 11 21 15.0000000  0  6 02 18 06 15 13 09
  20853192.813     -585703.403 7
  23671241.211     6986390.502 5   5379929.618 1
  21320703.234    -5372717.894 7  -4157947.355 3
  23808544.625    -4848307.388 6  -3720339.047 1
  23182925.563    -8334732.693 6  -5777562.502 1
  24253687.594    -1604977.378 5  -1172733.008 1
 90 10 22 11 21 30.0000000  0  6 02 18 06 15 13 09
  20853262.063     -585340.104 7
  23680441.383     7034744.348 5   5417607.947 1
  21314559.523    -5404997.645 7  -4183100.407 3
  23803868.391    -4872878.117 6  -3739485.056 1
  23171264.258    -8396018.177 6  -5825317.413 1
  24244111.070    -1655291.789 4  -1211939.041 1
 90 10 22 11 21 45.0000000  0  6 02 18 06 15 13 09
  20853340.992     -584925.824 7        -0.06713
  23689647.063     7083119.626 5   5455302.964 1
  21308426.406    -5437231.075 7  -4208217.360 3
  23799213.297    -4897342.231 6  -3758547.988 1
  23159613.094    -8457243.176 6  -5873025.215 1
  24234538.172    -1705614.308 4  -1251151.330 1
 90 10 22 11 22  0.0000000  0  6 02 18 06 15 13 09
  20853433.203     -584462.480 7       360.979 3
  23698856.852     7131514.279 5   5493013.085 1
  21302299.914    -5469419.477 7  -4233299.231 3
  23794578.281    -4921700.609 6  -3777528.530 1
  23147974.305    -8518408.824 6  -5920686.749 1
  24224960.242    -1755946.439 4  -1290371.176 1
 90 10 22 11 22 15.0000000  0  6 02 18 06 15 13 09
  20853526.125     -583950.563 7       759.877 3
  23708071.039     7179927.660 5   5530737.793 1
  21296184.234    -5501563.172 7  -4258346.266 3
  23789959.398    -4945953.562 6  -3796426.929 1
  23136345.773    -8579515.355 6  -5968302.211 1
  24215375.594    -1806288.459 3  -1329598.742 1
 90 10 22 11 22 30.0000000  0  6 02 18 06 15 13 09
  20853633.813     -583384.694 8      1200.810 3
  23717286.891     7228364.808 5   5568481.035 1
  21290075.984    -5533656.174 7  -4283353.797 3
  23785367.672    -4970095.529 6  -3815238.844 1
  23124730.695    -8640557.014 6  -6015867.141 1
  24205797.227    -1856634.806 3  -1368829.641 1
 90 10 22 11 22 45.0000000  0  6 02 18 06 15 13 09
  20853753.109     -582766.946 7      1682.168 3
  23726512.008     7276823.413 5   5606240.968 1
  21283980.195    -5565700.327 7  -4308323.267 3
  23780795.352    -4994127.856 6  -3833965.326 1
  23113126.063    -8701535.338 6  -6063382.706 1
  24196217.328    -1906987.218 3  -1408065.250 1
 90 10 22 11 23  0.0000000  0  6 02 18 06 15 13 09
  20853881.547     -582096.932 8      2204.259 3
  23735731.227     7325303.607 5   5644017.744 1
  21277889.484    -5597695.043 7  -4333254.217 3
  23776244.477    -5018050.094 6  -3852606.013 1
  23101532.570    -8762449.396 6  -6110848.201 1
  24186633.523    -1957345.318 4  -1447305.338 1
 90 10 22 11 23 15.0000000  0  6 02 18 06 15 13 09
  20854018.914     -581376.817 7      2765.387 3
  23744965.781     7373802.742 5   5681809.272 1
  21271810.039    -5629642.160 7  -4358148.075 3
  23771713.039    -5041863.899 6  -3871162.213 1
  23089955.672    -8823301.373 6  -6158265.304 1
  24177049.422    -2007710.937 4  -1486551.284 1
 90 10 22 11 23 30.0000000  0  6 02 18 06 15 13 09
  20854165.898     -580608.109 8      3364.379 3
  23754193.148     7422319.130 5   5719614.251 1
  21265741.766    -5661542.895 7  -4383005.779 3
  23767199.047    -5065570.424 6  -3889634.818 1
  23078387.367    -8884092.082 6  -6205634.687 1
  24167464.906    -2058085.481 3  -1525804.187 1
 90 10 22 11 23 45.0000000  0  6 02 18 06 15 13 09
  20854319.758     -579788.009 7      4003.413 3
  23763431.883     7470855.383 5   5757434.707 1
  21259679.359    -5693394.060 7  -4407824.873 3
  23762711.031    -5089166.675 6  -3908021.498 1
  23066829.391    -8944818.164 6  -6252953.698 1
  24157875.906    -2108465.969 4  -1565061.674 1
 90 10 22 11 24  0.0000000  0  6 02 18 06 15 13 09
  20854486.414     -578915.143 7      4683.566 3
  23772669.195     7519412.559 5   5795271.473 1
  21253628.828    -5725193.888 7  -4432603.954 3
  23758239.883    -5112650.571 6  -3926320.622 1
  23055286.773    -9005477.791 6  -6300220.932 1
  24148290.469    -2158850.501 3  -1604322.319 1
 90 10 22 11 24 15.0000000  0  6 02 18 06 15 13 09
  20854662.125     -577989.161 7      5405.104 3
  23781917.930     7567990.658 5   5833124.521 1
  21247586.195    -5756941.875 7  -4457342.640 3
  23753796.734    -5136021.567 6  -3944531.776 1
  23043758.945    -9066070.351 6  -6347435.906 1
  24138698.711    -2209238.828 4  -1643585.930 1
 90 10 22 11 24 30.0000000  0  6 02 18 06 15 13 09
  20854846.406     -577016.070 7      6163.357 3
  23791160.234     7616583.641 5   5870989.183 1
  21241554.375    -5788643.377 7  -4482045.106 3
  23749367.266    -5159285.498 6  -3962659.504 1
  23032239.398    -9126601.383 6  -6394602.936 1
  24129109.758    -2259636.458 4  -1682856.824 1
 90 10 22 11 24 45.0000000  0  6 02 18 06 15 13 09
  20855041.609     -575994.780 7      6959.170 3
  23800413.438     7665192.231 5   5908865.997 1
  21235531.320    -5820297.306 7  -4506710.499 3
  23744961.234    -5182440.906 6  -3980702.670 1
  23020732.164    -9187069.154 6  -6441720.658 1
  24119516.086    -2310042.345 3  -1722134.141 1
 90 10 22 11 25  0.0000000  0  6 02 18 06 15 13 09
  20855245.281     -574920.573 7      7796.217 3
  23809663.328     7713820.434 5   5946758.103 1
  21229517.570    -5851898.593 7  -4531334.875 3
  23740574.211    -5205482.997 6  -3998657.537 1
  23009239.453    -9247468.914 6  -6488785.406 1
  24109924.500    -2360451.659 3  -1761414.098 1
 90 10 22 11 25 15.0000000  0  6 02 18 06 15 13 09
  20855460.039     -573793.710 7      8674.288 3
  23818924.352     7762467.955 5   5984665.265 1
  21223513.594    -5883447.248 7  -4555918.240 3
  23736211.852    -5228411.420 6  -4016523.829 1
  22997759.633    -9307800.242 6  -6535796.831 1
  24100329.344    -2410864.262 3  -1800696.620 1
 90 10 22 11 25 30.0000000  0  6 02 18 06 15 13 09
  20855684.492     -572616.038 7      9591.950 3
  23828183.031     7811133.108 5   6022586.139 1
  21217519.922    -5914944.448 7  -4580461.511 3
  23731871.906    -5251227.407 6  -4034302.504 1
  22986290.453    -9368064.627 6  -6582756.090 1
  24090735.781    -2461281.593 3  -1839982.822 1
 90 10 22 11 25 45.0000000  0  6 02 18 06 15 13 09
  20855919.695     -571382.991 7     10552.767 3
  23837448.539     7859819.885 5   6060523.894 1
  21211536.484    -5946385.499 7  -4604961.032 3
  23727552.328    -5273925.930 6  -4051989.659 1
  22974834.789    -9428257.141 6  -6629659.336 1
  24081146.594    -2511699.092 3  -1879269.160 1
 90 10 22 11 26  0.0000000  0  6 02 18 06 15 13 09
  20856163.203     -570099.961 7     11552.527 3
  23846719.180     7908522.443 5   6098473.931 1
  21205564.430    -5977775.530 7  -4629420.792 3
  23723254.953    -5296512.531 6  -4069589.599 1
  22963392.828    -9488382.747 6  -6676510.450 1
  24071550.750    -2562121.912 4  -1918559.661 1
 90 10 22 11 26 15.0000000  0  6 02 18 06 15 13 09
  20856417.422     -568764.801 7     12592.911 3
  23855987.047     7957242.849 5   6136437.886 1
  21199600.875    -6009112.107 7  -4653838.906 3
  23718973.453    -5318984.608 6  -4087100.286 1
  22951968.336    -9548438.914 6  -6723307.457 1
  24061950.852    -2612547.826 4  -1957852.584 1
 90 10 22 11 26 30.0000000  0  6 02 18 06 15 13 09
  20856681.961     -567377.932 7     13673.583 3
  23865260.523     8005980.504 5   6174415.270 1
  21193647.484    -6040395.229 7  -4678215.362 3
  23714721.109    -5341342.138 6  -4104521.733 1
  22940550.469    -9608425.410 6  -6770050.180 1
  24052354.242    -2662976.805 4  -1997147.852 1
 90 10 22 11 26 45.0000000  0  6 02 18 06 15 13 09
  20856954.797     -565945.171 7     14790.022 3
  23874538.273     8054729.158 5   6212401.227 1
  21187703.484    -6071630.501 7  -4702554.529 3
  23710487.844    -5363590.931 6  -4121858.440 1
  22929148.891    -9668347.820 6  -6816742.959 1
  24042753.992    -2713414.607 4  -2036450.042 1
 90 10 22 11 27  0.0000000  0  6 02 18 06 15 13 09
  20857236.273     -564463.072 7     15944.899 3
  23883822.391     8103491.942 5   6250398.216 1
  21181769.484    -6102814.027 7  -4726853.383 3
  23706277.383    -5385726.921 6  -4139107.248 1
  22917757.758    -9728202.118 6  -6863382.659 1
  24033159.352    -2763857.467 4  -2075756.159 1
 90 10 22 11 27 15.0000000  0  6 02 18 06 15 13 09
  20857527.047     -562932.143 7     17137.830 3
  23893099.734     8152268.208 5   6288405.683 1
  21175845.563    -6133945.962 7  -4751112.038 3
  23702086.656    -5407750.029 6  -4156268.100 1
  22906379.883    -9787988.594 6  -6909969.534 1
  24023557.375    -2814305.654 4  -2115066.450 1
 90 10 22 11 27 30.0000000  0  6 02 18 06 15 13 09
  20857828.508     -561355.055 7     18366.727 3
  23902383.828     8201054.807 5   6326421.201 1
  21169930.297    -6165028.696 7  -4775332.340 3
  23697916.102    -5429662.851 6  -4173343.019 1
  22895015.914    -9847709.466 6  -6956505.264 1
  24013959.617    -2864761.814 3  -2154382.911 1
 90 10 22 11 27 45.0000000  0  6 02 18 06 15 13 09
  20858138.281     -559726.938 7     19635.384 3
  23911670.156     8249856.550 5   6364448.545 1
  21164025.219    -6196057.089 7  -4799510.308 3
  23693768.234    -5451460.365 6  -4190328.077 1
  22883663.680    -9907359.296 6  -7002985.647 1
  24004354.742    -2915220.581 4  -2193701.413 1
 90 10 22 11 28  0.0000000  0  6 02 18 06 15 13 09
  20858456.898     -558048.947 7     20942.901 3
  23920959.648     8298671.567 5   6402486.206 1
  21158131.484    -6227032.065 7  -4823646.651 3
  23689641.180    -5473143.190 6  -4207223.771 1
  22872328.531    -9966938.905 6  -7049411.302 1
  23994752.609    -2965683.260 5  -2233022.981 1
 90 10 22 11 28 15.0000000  0  6 02 18 06 15 13 09
  20858785.250     -556321.924 7     22288.633 3
  23930250.469     8347499.198 5   6440533.731 1
  21152247.227    -6257954.234 7  -4847741.850 3
  23685537.109    -5494712.194 6  -4224030.777 1
  22861004.242   -10026448.819 6  -7095782.667 1
  23985152.281    -3016150.455 5  -2272348.053 1
 90 10 22 11 28 30.0000000  0  6 02 18 06 15 13 09
  20859124.016     -554543.475 7     23674.435 3
  23939547.070     8396341.421 5   6478592.574 1
  21146374.391    -6288820.673 7  -4871793.612 3
  23681453.414    -5516164.094 6  -4240746.527 1
  22849692.445   -10085886.113 6  -7142097.430 1
  23975545.320    -3066619.511 5  -2311674.599 1
 90 10 22 11 28 45.0000000  0  6 02 18 06 15 13 09
  20859471.422     -552716.664 7     25097.920 3
  23948847.148     8445194.747 5   6516660.115 1
  21140510.195    -6319634.244 7  -4895804.188 3
  23677395.664    -5537501.983 6  -4257373.442 1
  22838396.008   -10145253.328 6  -7188357.596 1
  23965939.992    -3117092.993 5  -2351004.583 1
 90 10 22 11 29  0.0000000  0  6 02 18 06 15 13 09
  20859828.242     -550841.269 7     26559.269 3
  23958143.117     8494059.458 5   6554736.520 1
  21134656.570    -6350394.205 7  -4919772.991 3
  23673357.883    -5558724.954 6  -4273910.810 1
  22827113.141   -10204549.954 6  -7234562.753 1
  23956338.031    -3167570.442 5  -2390337.646 1
 90 10 22 11 29 15.0000000  0  6 02 18 06 15 13 09
  20860195.320     -548915.688 7     28059.719 3
  23967439.891     8542936.381 5   6592822.435 1
  21128812.813    -6381098.697 7  -4943698.564 3
  23669339.117    -5579831.742 6  -4290357.642 1
  22815841.875   -10263774.155 6  -7280711.474 1
  23946730.141    -3218050.316 5  -2429672.611 1
 90 10 22 11 29 30.0000000  0  6 02 18 06 15 13 09
  20860571.023     -546939.683 7     29599.465 3
  23976743.625     8591825.632 5   6630917.956 1
  21122981.891    -6411747.227 7  -4967580.537 3
  23665345.047    -5600821.498 6  -4306713.278 1
  22804582.414   -10322925.121 6  -7326803.135 1
  23937124.445    -3268532.040 5  -2469008.997 1
 90 10 22 11 29 45.0000000  0  6 02 18 06 15 13 09
  20860956.898     -544916.220 7     31176.185 3
  23986049.641     8640724.187 5   6669020.725 1
  21117160.063    -6442342.451 7  -4991420.969 3
  23661371.016    -5621696.715 6  -4322979.674 1
  22793343.625   -10382005.134 6  -7372839.501 1
  23927515.727    -3319018.449 5  -2508349.056 1
 90 10 22 11 30  0.0000000  0  6 02 18 06 15 13 09
  20861349.859     -542844.076 7     32790.839 3
  23995358.336     8689632.876 5   6707131.383 1
  21111347.281    -6472882.801 7  -5015218.649 3
  23657422.141    -5642455.785 6  -4339155.556 1
  22782114.078   -10441012.773 6  -7418819.470 1
  23917905.984    -3369508.003 4  -2547691.538 1
 90 10 22 11 30 15.0000000  0  6 02 18 06 15 13 09
  20861753.672     -540724.641 7     34442.348 3
  24004667.445     8738549.894 5   6745248.549 1
  21105546.586    -6503369.457 7  -5038974.491 3
  23653493.633    -5663099.966 6  -4355241.930 1
  22770899.320   -10499949.249 6  -7464743.976 1
  23908298.883    -3420002.028 5  -2587037.520 1
 90 10 22 11 30 30.0000000  0  6 02 18 06 15 13 09
  20862166.852     -538555.397 7     36132.665 3
  24013977.570     8787477.573 5   6783374.021 1
  21099755.141    -6533799.396 7  -5062686.133 3
  23649588.953    -5683626.438 6  -4371236.567 1
  22759700.523   -10558811.406 6  -7510610.595 1
  23898690.133    -3470497.693 5  -2626384.789 1
 90 10 22 11 30 45.0000000  0  6 02 18 06 15 13 09
  20862587.938     -536334.948 7     37862.881 3
  24023289.992     8836417.164 5   6821508.760 1
  21093975.711    -6564170.828 7  -5086352.179 3
  23645707.047    -5704033.303 6  -4387138.008 1
  22748510.945   -10617597.432 6  -7556417.892 1
  23889082.266    -3520993.115 5  -2665731.875 1
 90 10 22 11 31  0.0000000  0  6 02 18 06 15 13 09
  20863020.742     -534064.307 7     39632.206 3
  24032607.227     8885367.343 5   6859651.756 1
  21088208.250    -6594484.684 7  -5109973.363 3
  23641841.805    -5724321.743 6  -4402947.181 1
  22737337.742   -10676308.005 6  -7602166.379 1
  23879475.219    -3571489.369 5  -2705079.603 1
 90 10 22 11 31 15.0000000  0  6 02 18 06 15 13 09
  20863461.023     -531748.406 7     41436.800 3
  24041920.844     8934322.826 5   6897798.878 1
  21082450.867    -6624745.585 7  -5133553.287 3
  23638004.047    -5744496.069 6  -4418667.424 1
  22726182.539   -10734947.702 6  -7647859.652 1
  23869861.984    -3621991.179 5  -2744431.619 1
 90 10 22 11 31 30.0000000  0  6 02 18 06 15 13 09
  20863911.563     -529382.741 7     43280.177 3
  24051236.875     8983287.933 5   6935953.525 1
  21076702.023    -6654948.416 7  -5157087.960 3
  23634187.820    -5764551.221 6  -4434294.811 1
  22715036.945   -10793511.406 6  -7693493.700 1
  23860253.023    -3672493.767 5  -2783784.308 1
 90 10 22 11 31 45.0000000  0  6 02 18 06 15 13 09
  20864372.266     -526966.048 7     45163.316 3
  24060557.094     9032263.564 5   6974116.340 1
  21070965.805    -6685091.707 7  -5180576.243 3
  23630395.094    -5784485.799 6  -4449828.227 1
  22703907.289   -10851997.373 6  -7739067.173 1
  23850643.086    -3722995.459 5  -2823136.276 1
 90 10 22 11 32  0.0000000  0  6 02 18 06 15 13 09
  20864842.445     -524498.455 7     47086.113 3
  24069881.648     9081249.195 5   7012286.958 1
  21065241.336    -6715175.581 7  -5204018.225 3
  23626625.117    -5804299.927 6  -4465267.793 1
  22692793.789   -10910405.810 6  -7784580.239 1
  23841033.609    -3773496.432 5  -2862487.667 1
 90 10 22 11 32 15.0000000  0  6 02 18 06 15 13 09
  20865321.086     -521983.431 7     49045.871 3
  24079202.898     9130241.049 5   7050462.420 1
  21059526.648    -6745202.743 7  -5227416.020 3
  23622875.648    -5823996.692 6  -4480615.895 1
  22681690.961   -10968739.499 6  -7830035.062 1
  23831420.266    -3823999.828 5  -2901840.942 1
 90 10 22 11 32 30.0000000  0  6 02 18 06 15 13 09
  20865807.352     -519421.930 7     51041.847 3
  24088534.289     9179238.216 5   7088642.035 1
  21053823.141    -6775173.958 7  -5250770.215 3
  23619149.141    -5843576.363 6  -4495872.770 1
  22670603.758   -11026998.957 6  -7875432.030 1
  23821810.445    -3874506.248 5  -2941196.586 1
 90 10 22 11 32 45.0000000  0  6 02 18 06 15 13 09
  20866304.234     -516812.612 7     53075.079 3
  24097852.039     9228241.727 5   7126826.581 1
  21048132.063    -6805087.783 7  -5274079.691 3
  23615446.523    -5863037.669 6  -4511037.405 1
  22659534.563   -11085182.523 6  -7920769.876 1
  23812198.578    -3925014.365 5  -2980553.550 1
 90 10 22 11 33  0.0000000  0  6 02 18 06 15 13 09
  20866808.227     -514159.839 7     55142.178 4
  24107176.117     9277246.788 5   7165012.336 1
  21042448.891    -6834947.968 7  -5297347.371 3
  23611766.570    -5882384.236 6  -4526112.637 1
  22648474.172   -11143294.153 6  -7966051.647 1
  23802586.273    -3975528.148 5  -3019914.941 1
 90 10 22 11 33 15.0000000  0  6 02 18 06 15 13 09
  20867322.250     -511461.234 7     57244.986 3
  24116505.617     9326255.304 5   7203200.786 1
  21036777.523    -6864751.857 7  -5320571.183 3
  23608106.461    -5901613.734 6  -4541096.642 1
  22637430.391   -11201331.069 6  -8011275.216 1
  23792971.820    -4026044.952 5  -3059278.676 1
 90 10 22 11 33 30.0000000  0  6 02 18 06 15 13 09
  20867845.078     -508709.615 7     59389.100 3
  24125830.938     9375274.313 5   7241397.427 1
  21031118.445    -6894492.031 7  -5343745.345 3
  23604470.109    -5920718.806 6  -4555983.692 1
  22626402.875   -11259285.684 6  -8056434.649 1
  23783359.055    -4076557.666 5  -3098639.212 1
 90 10 22 11 33 45.0000000  0  6 02 18 06 15 13 09
  20868376.820     -505914.003 7     61567.498 3
  24135153.203     9424294.692 4   7279595.117 1
  21025469.516    -6924177.121 7  -5366876.584 3
  23600856.609    -5939708.029 6  -4570780.476 1
  22615388.219   -11317166.389 6  -8101536.490 1
  23773747.313    -4127074.653 5  -3138003.102 1
 90 10 22 11 34  0.0000000  0  6 02 18 06 15 13 09
  20868918.680     -503069.555 7     63783.949 3
  24144490.438     9473321.037 5   7317797.460 1
  21019831.789    -6953801.905 7  -5389960.830 3
  23597266.625    -5958576.128 6  -4585482.877 1
  22604387.891   -11374967.937 6  -8146576.649 1
  23764133.242    -4177590.889 5  -3177366.397 1
 90 10 22 11 34 15.0000000  0  6 02 18 06 15 13 09
  20869468.813     -500180.371 7     66035.262 3
  24153815.266     9522348.819 5   7356000.937 1
  21014205.188    -6983370.186 7  -5413001.049 3
  23593698.703    -5977326.746 6  -4600093.745 1
  22593402.641   -11432694.402 6  -8191558.305 1
  23754523.375    -4228110.526 5  -3216732.349 1
 90 10 22 11 34 30.0000000  0  6 02 18 06 15 13 09
  20870027.211     -497243.114 7     68324.031 4
  24163147.695     9571381.062 5   7394207.871 1
  21008590.000    -7012878.425 7  -5435994.487 3
  23590152.852    -5995956.480 6  -4614610.402 1
  22582435.164   -11490341.745 6  -8236478.312 1
  23744906.898    -4278629.809 5  -3256098.001 1
 90 10 22 11 34 45.0000000  0  6 02 18 06 15 13 09
  20870596.719     -494256.229 7     70651.469 3
  24172480.383     9620419.117 5   7432419.358 1
  21002986.578    -7042324.692 7  -5458939.632 3
  23586629.578    -6014463.705 6  -4629031.609 1
  22571476.906   -11547908.166 6  -8281335.247 1
  23735291.680    -4329146.986 5  -3295462.007 1
 90 10 22 11 35  0.0000000  0  6 02 18 06 15 13 09
  20871174.625     -491222.045 7     73015.769 4
  24181811.273     9669460.309 5   7470633.255 1
  20997393.906    -7071710.927 7  -5481838.001 3
  23583129.789    -6032850.294 6  -4643358.810 1
  22560541.961   -11605395.417 6  -8326130.499 1
  23725681.000    -4379664.233 5  -3334826.097 1
 90 10 22 11 35 15.0000000  0  6 02 18 06 15 13 09
  20871760.711     -488139.800 7     75417.517 3
  24191146.156     9718505.398 5   7508850.223 1
  20991814.156    -7101035.906 7  -5504688.635 3
  23579654.930    -6051115.125 6  -4657591.136 1
  22549615.641   -11662802.235 6  -8370863.079 1
  23716068.883    -4430180.335 5  -3374189.276 1
 90 10 22 11 35 30.0000000  0  6 02 18 06 15 13 09
  20872355.359     -485009.163 7     77856.974 4
  24200480.820     9767553.870 5   7547069.787 1
  20986245.625    -7130299.248 7  -5527491.232 3
  23576204.641    -6069257.812 6  -4671728.284 1
  22538707.531   -11720128.173 6  -8415532.638 1
  23706453.336    -4480694.933 5  -3413551.303 1
 90 10 22 11 35 45.0000000  0  6 02 18 06 15 13 09
  20872961.297     -481829.297 7     80334.789 4
  24209813.266     9816606.421 4   7585292.560 1
  20980688.711    -7159499.746 7  -5550244.873 3
  23572775.852    -6087276.974 6  -4685769.184 1
  22527814.867   -11777371.844 6  -8460138.089 1
  23696845.320    -4531207.128 4  -3452911.459 1
 90 10 22 11 36  0.0000000  0  6 02 18 06 15 13 09
  20873574.914     -478601.836 7     82849.692 3
  24219146.000     9865661.389 5   7623517.217 1
  20975144.430    -7188638.704 7  -5572950.558 3
  23569369.133    -6105174.156 6  -4699715.028 1
  22516936.867   -11834534.694 6  -8504680.559 1
  23687233.648    -4581718.066 4  -3492270.594 1
 90 10 22 11 36 15.0000000  0  6 02 18 06 15 13 09
  20874198.438     -475327.579 7     85401.060 3
  24228481.156     9914717.840 5   7661743.026 1
  20969610.563    -7217716.522 7  -5595608.598 3
  23565988.125    -6122949.813 6  -4713566.180 1
  22506070.945   -11891617.209 6  -8549160.432 1
  23677620.117    -4632228.365 4  -3531629.279 1
 90 10 22 11 36 30.0000000  0  6 02 18 06 15 13 09
  20874829.383     -472007.862 7     87987.853 4
  24237820.156     9963773.789 5   7699968.448 1
  20964088.453    -7246734.453 7  -5618219.968 3
  23562628.102    -6140605.103 6  -4727323.531 1
  22495225.945   -11948620.273 6  -8593578.398 1
  23668006.445    -4682739.232 5  -3570988.357 1
 90 10 22 11 36 45.0000000  0  6 02 18 06 15 13 09
  20875470.352     -468640.755 7     90611.571 4
  24247150.391    10012830.938 5   7738194.797 1
  20958579.039    -7275690.012 7  -5640782.746 3
  23559290.898    -6158137.672 6  -4740985.264 1
  22484396.039   -12005541.533 6  -8637932.619 1
  23658394.742    -4733248.467 5  -3610346.216 1
 90 10 22 11 37  0.0000000  0  6 02 18 06 15 13 09
  20876120.219     -465225.189 7     93273.045 4
  24256487.391    10061890.102 5   7776422.720 1
  20953080.391    -7304581.928 7  -5663295.925 3
  23555980.336    -6175546.199 6  -4754550.342 1
  22473579.023   -12062379.404 6  -8682221.861 1
  23648788.570    -4783754.891 5  -3649701.856 1
 90 10 22 11 37 15.0000000  0  6 02 18 06 15 13 09
  20876779.633     -461760.621 7     95972.705 4
  24265826.883    10110951.279 5   7814652.202 1
  20947594.875    -7333409.452 7  -5685758.932 3
  23552687.102    -6192830.082 6  -4768018.285 1
  22462777.516   -12119133.162 6  -8726445.557 1
  23639176.031    -4834257.633 5  -3689054.629 1
 90 10 22 11 37 30.0000000  0  6 02 18 06 15 13 09
  20877448.633     -458248.223 7     98709.637 4
  24275159.203    10160013.297 5   7852882.365 1
  20942121.000    -7362173.242 7  -5708172.276 3
  23549424.039    -6209990.081 6  -4781389.700 1
  22451994.484   -12175803.275 6  -8770604.083 1
  23629565.273    -4884757.441 4  -3728405.122 1
 90 10 22 11 37 45.0000000  0  6 02 18 06 15 13 09
  20878126.398     -454688.500 7    101483.444 3
  24284498.516    10209075.553 5   7891112.685 1
  20936659.414    -7390873.320 7  -5730535.978 3
  23546180.758    -6227026.197 6  -4794664.590 1
  22441226.617   -12232390.006 6  -8814697.633 1
  23619955.500    -4935254.597 5  -3767753.545 1
 90 10 22 11 38  0.0000000  0  6 02 18 06 15 13 09
  20878812.352     -451082.380 7    104293.409 4
  24293833.852    10258136.812 5   7929342.244 1
  20931210.750    -7419510.296 7  -5752850.498 3
  23542961.695    -6243939.049 6  -4807843.425 1
  22430473.445   -12288893.723 6  -8858726.502 1
  23610346.828    -4985749.749 5  -3807100.404 1
 90 10 22 11 38 15.0000000  0  6 02 18 06 15 13 09
  20879507.266     -447427.557 7    107141.324 3
  24303168.523    10307198.958 5   7967572.494 1
  20925773.438    -7448081.778 7  -5775113.990 3
  23539769.492    -6260726.274 6  -4820924.365 1
  22419739.500   -12345311.887 6  -8902688.698 1
  23600739.328    -5036240.696 5  -3846443.975 1
 90 10 22 11 38 30.0000000  0  6 02 18 06 15 13 09
  20880211.516     -443726.436 7    110025.310 3
  24312507.312    10356259.183 5   8005801.226 1
  20920349.430    -7476589.796 7  -5797328.030 3
  23536598.914    -6277390.186 6  -4833909.219 1
  22409018.719   -12401646.674 6  -8946585.927 1
  23591130.883    -5086729.435 5  -3885785.868 1
 90 10 22 11 38 45.0000000  0  6 02 18 06 15 13 09
  20880925.586     -439975.091 7    112948.436 4
  24321841.281    10405321.388 5   8044031.519 1
  20914936.836    -7505030.079 7  -5819489.282 3
  23533451.320    -6293926.195 6  -4846794.414 1
  22398313.727   -12457893.692 6  -8990414.772 1
  23581523.047    -5137211.751 5  -3925122.715 1
 90 10 22 11 39  0.0000000  0  6 02 18 06 15 13 09
  20881648.352     -436177.700 7    115907.442 4
  24331178.398    10454381.148 5   8082259.914 1
  20909537.438    -7533406.300 7  -5841600.623 3
  23530326.727    -6310338.455 6  -4859583.173 1
  22387627.883   -12514056.714 6  -9034178.149 1
  23571921.289    -5187691.426 5  -3964457.519 1
 90 10 22 11 39 15.0000000  0  6 02 18 06 15 13 09
  20882379.781     -432333.388 7    118903.009 4
  24340510.133    10503439.149 5   8120486.922 1
  20904150.492    -7561717.447 7  -5863661.255 3
  23527230.211    -6326625.747 6  -4872274.556 1
  22376953.805   -12570134.511 6  -9077875.134 1
  23562313.688    -5238167.487 5  -4003789.509 1
 90 10 22 11 39 30.0000000  0  6 02 18 06 15 13 09
  20883120.070     -428441.935 7    121935.310 4
  24349848.914    10552494.796 5   8158712.088 1
  20898774.234    -7589963.056 7  -5885670.825 3
  23524152.305    -6342787.805 6  -4884868.355 1
  22366302.367   -12626126.270 6  -9121505.079 1
  23552709.617    -5288639.711 5  -4043118.513 1
 90 10 22 11 39 45.0000000  0  6 02 18 06 15 13 09
  20883870.375     -424499.825 7    125007.083 4
  24359185.633    10601551.506 5   8196938.123 1
  20893413.055    -7618139.206 7  -5907626.268 3
  23521102.117    -6358820.694 6  -4897361.508 1
  22355664.148   -12682028.225 6  -9165065.040 1
  23543106.680    -5339104.200 5  -4082441.480 1
 90 10 22 11 40  0.0000000  0  6 02 18 06 15 13 09
  20884630.078     -420510.222 7    128115.862 4
  24368518.727    10650606.018 5   8235162.418 1
  20888063.094    -7646248.477 7  -5929529.597 3
  23518074.391    -6374727.276 6  -4909756.240 1
  22345043.023   -12737843.167 6  -9208557.192 1
  23533504.961    -5389563.478 5  -4121760.383 1
 90 10 22 11 40 15.0000000  0  6 02 18 06 15 13 09
  20885398.055     -416473.624 7    131261.260 4
  24377855.273    10699657.597 5   8273384.418 1
  20882726.969    -7674291.227 7  -5951381.097 3
  23515071.914    -6390507.764 6  -4922052.712 1
  22334437.648   -12793571.220 6  -9251981.639 1
  23523903.578    -5440018.166 5  -4161075.720 1
 90 10 22 11 40 30.0000000  0  6 02 18 06 15 13 09
  20886174.578     -412389.202 7    134443.925 4
  24387185.914    10748706.825 5   8311604.596 1
  20877404.125    -7702266.296 7  -5973179.846 3
  23512093.164    -6406161.172 6  -4934250.167 1
  22323850.094   -12849211.134 6  -9295337.415 1
  23514303.422    -5490467.193 5  -4200386.634 1
 90 10 22 11 40 45.0000000  0  6 02 18 06 15 13 09
  20886961.367     -408258.170 7    137662.908 4
  24396518.617    10797751.801 5   8349821.480 1
  20872093.344    -7730174.817 7  -5994926.744 3
  23509139.531    -6421688.492 6  -4946349.374 1
  22313278.688   -12904763.908 6  -9338625.281 1
  23504703.469    -5540911.635 5  -4239693.992 1
 90 10 22 11 41  0.0000000  0  6 02 18 06 15 13 09
  20887756.844     -404079.383 7    140919.110 4
  24405853.047    10846793.848 5   8388036.031 1
  20866795.492    -7758015.099 7  -6016620.466 3
  23506208.250    -6437088.266 6  -4958349.182 1
  22302724.625   -12960227.959 6  -9381844.023 1
  23495104.352    -5591349.889 5  -4278996.523 1
 90 10 22 11 41 15.0000000  0  6 02 18 06 15 13 09
  20888560.852     -399855.678 7    144210.304 4
  24415181.266    10895829.487 5   8426245.660 1
  20861509.953    -7785789.706 7  -6038263.013 3
  23503302.828    -6452363.238 6  -4970251.748 1
  22292186.125   -13015605.795 7  -9424995.570 1
  23485506.102    -5641784.675 5  -4318296.332 1
 90 10 22 11 41 30.0000000  0  6 02 18 06 15 13 09
  20889373.148     -395585.742 7    147537.523 4
  24424513.039    10944859.951 5   8464451.183 1
  20856236.766    -7813496.890 7  -6059853.023 3
  23500419.883    -6467511.703 6  -4982055.738 1
  22281665.742   -13070895.415 6  -9468078.383 1
  23475912.125    -5692214.297 5  -4357592.144 1
 90 10 22 11 41 45.0000000  0  6 02 18 06 15 13 09
  20890194.289     -391266.359 7    150903.272 4
  24433843.133    10993888.294 5   8502655.094 1
  20850978.883    -7841133.099 7  -6081387.729 3
  23497559.844    -6482530.130 6  -4993758.403 1
  22271161.281   -13126093.431 7  -9511089.813 1
  23466316.398    -5742635.272 5  -4396881.224 1
 90 10 22 11 42  0.0000000  0  6 02 18 06 15 13 09
  20891025.211     -386898.719 7    154306.627 4
  24443172.953    11042912.612 5   8540855.879 1
  20845733.039    -7868699.386 7  -6102867.950 3
  23494729.594    -6497419.591 6  -5005360.580 1
  22260673.445   -13181200.993 7  -9554030.766 1
  23456725.758    -5793048.986 5  -4436164.620 1
 90 10 22 11 42 15.0000000  0  6 02 18 06 15 13 09
  20891867.313     -382481.514 7    157748.607 4
  24452499.172    11091934.226 5   8579054.519 1
  20840500.531    -7896194.100 7  -6124292.404 3
  23491918.156    -6512178.638 6  -5016861.118 1
  22250204.578   -13236216.060 7  -9596899.634 1
  23447134.188    -5843453.528 5  -4475440.884 1
 90 10 22 11 42 30.0000000  0  6 02 18 06 15 13 09
  20892715.664     -378017.955 7    161226.706 4
  24461827.813    11140949.653 4   8617248.384 1
  20835282.313    -7923620.211 7  -6145663.405 3
  23489134.461    -6526810.024 6  -5028262.182 1
  22239754.320   -13291141.390 7  -9639698.591 1
  23437542.406    -5893852.061 5  -4514712.453 1
 90 10 22 11 42 45.0000000  0  6 02 18 06 15 13 09
  20893574.258     -373507.317 7    164741.489 3
  24471155.688    11189959.315 5   8655437.712 1
  20830075.922    -7950976.450 7  -6166979.958 3
  23486376.617    -6541312.807 6  -5039563.038 1
  22229316.563   -13345976.110 7  -9682426.931 1
  23427953.469    -5944243.255 5  -4553978.323 1
 90 10 22 11 43  0.0000000  0  6 02 18 06 15 13 09
  20894441.531     -368950.417 7    168292.318 4
  24480480.102    11238961.824 5   8693621.485 1
  20824882.820    -7978263.410 7  -6188242.523 3
  23483636.922    -6555687.702 6  -5050764.247 1
  22218901.305   -13400720.821 7  -9725085.142 1
  23418364.289    -5994628.006 5  -4593239.154 1
 90 10 22 11 43 15.0000000  0  6 02 18 06 15 13 09
  20895317.555     -364347.186 7    171879.251 3
  24489805.633    11287957.149 4   8731799.675 1
  20819703.945    -8005480.866 7  -6209450.927 3
  23480928.648    -6569934.501 6  -5061865.640 1
  22208501.156   -13455374.945 7  -9767672.766 1
  23408775.219    -6045006.060 5  -4632494.781 1
 90 10 22 11 43 30.0000000  0  6 02 18 06 15 13 09
  20896201.320     -359695.926 7    175503.606 4
  24499122.203    11336946.967 3   8769973.544 1
  20814538.805    -8032626.654 7  -6230603.487 3
  23478242.375    -6584050.945 6  -5072865.456 1
  22198119.063   -13509936.088 7  -9810187.940 1
  23399194.211    -6095375.230 5  -4671743.468 1
 90 10 22 11 43 45.0000000  0  6 02 18 06 15 13 09
  20897096.016     -354997.901 7    179164.403 4
  24508444.461    11385929.846 3   8808142.006 1
  20809386.031    -8059701.469 7  -6251700.744 3
  23475580.461    -6598038.191 6  -5083764.608 1
  22187752.148   -13564405.502 7  -9852631.634 1
  23389609.008    -6145736.680 5  -4710986.151 1
 90 10 22 11 44  0.0000000  0  6 02 18 06 15 13 09
  20897999.125     -350253.356 7    182861.452 4
  24517764.477    11434904.602 4   8846304.156 1
  20804248.070    -8086705.547 7  -6272742.886 3
  23472943.531    -6611896.346 6  -5094563.168 1
  22177404.281   -13618783.198 7  -9895003.854 1
  23380025.352    -6196090.404 5  -4750222.811 1
 90 10 22 11 44 15.0000000  0  6 02 18 06 15 13 09
  20898910.266     -345462.608 7    186594.502 4
  24527083.141    11483870.931 3   8884459.711 1
  20799121.719    -8113638.895 7  -6293729.908 3
  23470331.484    -6625625.653 6  -5105261.317 1
  22167075.086   -13673068.889 7  -9937304.385 1
  23370450.242    -6246436.466 5  -4789453.509 1
 90 10 22 11 44 30.0000000  0  6 02 18 06 15 13 09
  20899831.609     -340624.058 7    190364.804 4
  24536395.117    11532829.956 3   8922609.628 1
  20794009.969    -8140499.700 7  -6314660.410 3
  23467743.203    -6639224.119 6  -5115857.507 1
  22156763.141   -13727260.721 7  -9979531.784 1
  23360867.039    -6296773.148 5  -4828676.887 1
 90 10 22 11 44 45.0000000  0  6 02 18 06 15 13 09
  20900761.133     -335739.718 7    194170.780 4
  24545714.156    11581780.050 3   8960752.518 1
  20788912.797    -8167289.384 7  -6335535.489 3
  23465178.375    -6652693.540 6  -5126353.150 1
  22146468.508   -13781360.085 7 -10021687.126 1
  23351290.547    -6347101.818 5  -4867894.025 1
 90 10 22 11 45  0.0000000  0  6 02 18 06 15 13 09
  20901699.531     -330807.422 7    198014.120 4
  24555029.891    11630722.736 4   8998889.710 1
  20783828.953    -8194005.324 7  -6356353.101 3
  23462641.766    -6666031.418 6  -5136746.302 1
  22136190.328   -13835364.314 7 -10063768.331 1
  23341714.828    -6397420.287 5  -4907103.216 1
 90 10 22 11 45 15.0000000  0  6 02 18 06 15 13 09
  20902647.805     -325826.941 7    201895.011 4
  24564339.875    11679657.908 4   9037020.960 1
  20778759.750    -8220647.230 7  -6377113.025 3
  23460127.047    -6679237.477 6  -5147036.736 1
  22125931.891   -13889273.222 7 -10105775.271 1
  23332142.945    -6447728.060 5  -4946304.067 1
 90 10 22 11 45 30.0000000  0  6 02 18 06 15 13 09
  20903604.609     -320801.524 7    205810.923 4
  24573652.320    11728582.091 4   9075143.715 1
  20773702.469    -8247217.649 7  -6397817.247 3
  23457640.852    -6692314.511 6  -5157226.614 1
  22115692.305   -13943089.551 7 -10147710.062 1
  23322570.445    -6498027.996 5  -4985498.819 1
 90 10 22 11 45 45.0000000  0  6 02 18 06 15 13 09
  20904568.469     -315729.935 7    209762.809 4
  24582959.617    11777496.037 3   9113258.486 1
  20768660.672    -8273715.663 7  -6418465.050 3
  23455176.922    -6705261.337 6  -5167315.040 1
  22105469.094   -13996811.850 7 -10189571.590 1
  23312999.695    -6548318.898 5  -5024686.513 1
 90 10 22 11 46  0.0000000  0  6 02 18 06 15 13 09
  20905542.773     -310610.876 7    213751.684 3
  24592265.578    11826400.968 3   9151366.207 1
  20763632.008    -8300139.137 7  -6439054.771 3
  23452738.891    -6718076.158 6  -5177300.604 1
  22095264.391   -14050438.199 7 -10231358.352 1
  23303430.016    -6598598.894 5  -5063865.742 1
 90 10 22 11 46 15.0000000  0  6 02 18 06 15 13 09
  20906526.039     -305444.791 7    217777.204 3
  24601567.852    11875296.232 3   9189466.451 1
  20758618.023    -8326488.336 7  -6459586.614 3
  23450323.594    -6730759.264 6  -5187183.537 1
  22085077.484   -14103968.916 7 -10273070.588 1
  23293863.406    -6648868.361 5  -5103036.746 1
 90 10 22 11 46 30.0000000  0  6 02 18 06 15 13 09
  20907517.648     -300229.113 7    221841.368 4
  24610873.922    11924184.097 4   9227560.865 1
  20753619.383    -8352760.398 7  -6480058.348 3
  23447938.180    -6743307.587 6  -5196961.445 1
  22074910.117   -14157400.988 7 -10314705.968 1
  23284303.922    -6699124.418 5  -5142197.300 1
 90 10 22 11 46 45.0000000  0  6 02 18 06 15 13 09
  20908519.109     -294965.984 7    225942.507 4
  24620175.180    11973062.248 4   9265647.713 1
  20748633.391    -8378957.072 7  -6500471.342 3
  23445573.945    -6755723.506 6  -5206636.171 1
  22064758.828   -14210736.312 7 -10356265.953 1
  23274742.047    -6749369.008 5  -5181348.925 1
 90 10 22 11 47  0.0000000  0  6 02 18 06 15 13 09
  20909529.273     -289657.550 7    230078.948 4
  24629472.852    12021928.098 5   9303725.020 1
  20743662.828    -8405080.256 7  -6520827.068 3
  23443236.289    -6768008.861 6  -5216209.170 1
  22054628.641   -14263976.495 7 -10397751.805 1
  23265182.836    -6799603.888 5  -5220492.986 1
 90 10 22 11 47 15.0000000  0  6 02 18 06 15 13 09
  20910549.469     -284303.837 7    234250.677 4
  24638765.703    12070781.177 4   9341792.363 1
  20738705.258    -8431129.650 7  -6541125.292 3
  23440922.102    -6780163.276 6  -5225680.134 1
  22044516.266   -14317121.359 7 -10439163.380 1
  23255625.930    -6849828.981 5  -5259629.419 1
 90 10 22 11 47 30.0000000  0  6 02 18 06 15 13 09
  20911575.977     -278905.154 7    238457.439 4
  24648064.766    12119620.908 5   9379849.308 1
  20733763.344    -8457105.312 7  -6561366.063 3
  23438632.445    -6792187.529 6  -5235049.678 1
  22034420.430   -14370170.913 7 -10480500.690 1
  23246066.680    -6900044.531 5  -5298758.413 1
 90 10 22 11 47 45.0000000  0  6 02 18 06 15 13 09
  20912613.719     -273459.884 7    242700.505 4
  24657351.672    12168448.883 5   9417897.050 1
  20728833.930    -8483005.349 7  -6581547.908 3
  23436373.023    -6804079.521 6  -5244316.161 1
  22024343.148   -14423123.136 7 -10521762.147 1
  23236517.148    -6950248.473 5  -5337878.375 1
 90 10 22 11 48  0.0000000  0  6 02 18 06 15 13 09
  20913658.734     -267963.157 7    246983.662 3
  24666645.617    12217269.442 5
  20723920.570    -8508824.435 7  -6601666.673 3
  23434134.258    -6815833.716 6  -5253475.268 1
  22014288.188   -14475972.869 7 -10562943.750 1
  23226963.281    -7000435.589 5  -5376985.198 1
 90 10 22 11 48 15.0000000  0  6 02 18 06 15 13 09
  20914713.391     -262421.580 7    251301.773 4
  24675929.961    12266075.893 5
  20719021.953    -8534568.938 7  -6621727.326 3
  23431923.555    -6827456.674 6  -5262532.122 1
  22004248.594   -14528726.107 7 -10604050.158 1
  23217414.281    -7050612.406 5  -5416084.025 1
 90 10 22 11 48 30.0000000  0  6 02 18 06 15 13 09
  20915776.461     -256829.304 7    255659.393 4
  24685215.477    12314873.775 5
  20714138.063    -8560232.608 7  -6641724.994 3
  23429737.180    -6838942.609 6  -5271482.199 1
  21994229.086   -14581376.901 7 -10645076.748 1
  23207871.258    -7100772.603 5  -5455169.877 1
 90 10 22 11 48 45.0000000  0  6 02 18 06 15 13 09
  20916850.508     -251189.745 7    260053.854 3
  24694499.438    12363659.514 5        -0.19911
  20709268.727    -8585818.651 7  -6661662.168 3
  23427577.805    -6850294.615 6  -5280327.920 1
  21984230.008   -14633928.231 7 -10686025.829 1
  23198328.625    -7150919.605 5  -5494245.459 1
 90 10 22 11 48 59.9990000  0  6 02 18 06 15 13 09
  20917931.542     -245506.534 7    264482.329 3
  24703784.769    12412426.164 5
  20704415.065    -8611328.160 7  -6681539.706 3
  23425441.245    -6861514.987 6  -5289071.055 1
  21974248.542   -14686379.666 7 -10726897.068 1
  23188789.542    -7201052.887 5  -5533310.348 1
 90 10 22 11 49 14.9990000  0  6 02 18 06 15 13 09
  20919022.808     -239775.153 7    268948.340 4
  24713060.917    12461183.596 5
  20699575.456    -8636760.732 7  -6701357.294 3
  23423331.917    -6872601.381 6  -5297709.804 1
  21964285.159   -14738733.823 7 -10767692.509 1
  23179250.511    -7251175.203 5  -5572366.700 1
 90 10 22 11 49 29.9990000  0  6 02 18 06 15 13 09
  20920123.261     -233993.605 7    273453.440 4
  24722336.269    12509930.636 5
  20694750.847    -8662111.758 7  -6721111.337 3
  23421248.198    -6883550.508 6  -5306241.587 1
  21954341.386   -14790984.658 7 -10808407.436 1
  23169717.534    -7301280.593 5  -5611409.849 1
 90 10 22 11 49 44.9990000  0  6 02 18 06 15 13 09
  20921230.644     -228167.529 7    277993.235 3
  24731609.417    12558661.528 5
  20689941.081    -8687386.528 7  -6740805.961 3
  23419192.448    -6894367.593 6  -5314670.479 1
  21944418.565   -14843137.539 7 -10849046.046 1
  23160183.620    -7351374.305 5  -5650443.908 1
 90 10 22 11 49 59.9990000  0  6 02 18 06 15 13 09
  20922348.519     -222298.736 7    282566.317 4
  24740876.198    12607374.136 5
  20685145.487    -8712586.603 7  -6760442.383 3
  23417158.065    -6905054.328 6  -5322997.794 1
  21934512.511   -14895193.988 7 -10889609.497 1
  23150653.659    -7401458.074 5  -5689470.219 1
 90 10 22 11 50 14.9990000  0  6 02 18 06 15 13 09
  20923473.386     -216383.473 7    287175.613 3
  24750144.651    12656071.850 5        -0.35711
  20680366.261    -8737707.961 7  -6780017.464 3
  23415149.237    -6915606.891 6  -5331220.549 1
  21924624.987   -14947149.864 7 -10930094.586 1
  23141124.456    -7451527.687 5  -5728485.494 1
 90 10 22 11 50 29.9990000  0  6 02 18 06 15 13 09
  20924607.253     -210424.390 7    291819.053 3
  24759406.683    12704751.950 5
  20675599.534    -8762752.607 7  -6799532.770 3
  23413166.237    -6926027.654 6  -5339340.620 1
  21914757.183   -14999007.212 7 -10970502.907 1
  23131600.378    -7501585.670 5  -5767491.693 1
 90 10 22 11 50 44.9990000  0  6 02 18 06 15 13 09
  20925751.323     -204416.725 7    296500.343 3
  24768671.542    12753418.751 5
  20670850.214    -8787715.896 7  -6818984.691 3
  23411207.597    -6936311.822 6  -5347354.240 1
  21904908.198   -15050761.156 7 -11010830.649 1
  23122079.222    -7551626.937 5  -5806484.899 1
 90 10 22 11 50 59.9990000  0  6 02 18 06 15 13 09
  20926902.894     -198362.055 7    301218.266 4
  24777929.550    12802070.269 5
  20666114.753    -8812599.004 7  -6838374.125 3
  23409278.839    -6946460.465 6  -5355262.270 1
  21895078.198   -15102412.821 7 -11051078.683 1
  23112556.417    -7601652.800 5  -5845466.072 1
 90 10 22 11 51 14.9990000  0  5 02 06 15 13 09
  20928063.651     -192261.063 7    305972.287 3
  20661395.808    -8837401.920 7  -6857701.072 3
  23407372.769    -6956474.046 6  -5363065.067 1
  21885269.386   -15153962.567 7 -11091247.316 1
  23103039.378    -7651663.577 5  -5884435.511 1
 90 10 22 11 51 29.9990000  0  5 02 06 15 13 09
  20929234.198     -186114.151 7    310762.088 4
  20656690.276    -8862125.088 7  -6876965.879 3
  23405492.284    -6966352.905 6  -5370762.873 1
  21875480.487   -15205410.464 7 -11131336.574 1
  23093528.472    -7701659.563 5  -5923393.409 1
 90 10 22 11 51 44.9990000  0  5 02 06 15 13 09
  20930412.894     -179916.903 7    315591.110 3
  20652001.175    -8886764.075 7  -6896165.085 3
  23403637.995    -6976092.776 6  -5378352.371 1
  21865709.222   -15256751.971 7 -11171342.934 1
  23084019.753    -7751636.342 5  -5962336.353 1
 90 10 22 11 51 59.9990000  0  5 02 06 15 13 09
  20931600.323     -173676.321 7    320453.897 4
  20647327.769    -8911325.064 7  -6915303.515 3
  23401810.300    -6985700.339 6  -5385838.789 1
  21855958.534   -15307993.607 7 -11211271.479 1
  23074510.323    -7801600.393 5  -6001269.373 1
 90 10 22 11 52 14.9990000  0  5 02 06 15 13 09
  20932796.886     -167390.360 7    325352.049 4
  20642668.605    -8935805.924 7  -6934379.500 3
  23400006.175    -6995173.362 6  -5393220.354 1
  21846226.597   -15359132.975 7 -11251120.332 1
  23065002.011    -7851549.351 5  -6040190.631 1
 90 10 22 11 52 29.9990000  0  5 02 06 15 13 09
  20934001.722     -161055.249 7    330288.496 4
  20638026.878    -8960202.399 7  -6953389.742 3
  23398232.597    -7004507.716 6  -5400493.874 1
  21836517.628   -15410165.928 7 -11290886.261 1
  23055500.714    -7901479.292 5  -6079097.068 1
 90 10 22 11 52 44.9990000  0  5 02 06 15 13 09
  20935216.011     -154673.179 7    335261.539 3
  20633400.550    -8984516.357 7  -6972335.681 3
  23396479.862    -7013705.355 6  -5407660.864 1
  21826823.323   -15461094.478 7 -11330570.840 1
  23046006.222    -7951391.930 5  -6117990.019 1
 90 10 22 11 52 59.9990000  0  5 02 06 15 13 09
  20936439.144     -148247.152 7    340268.833 3
  20628787.948    -9008750.494 7  -6991219.425 3
  23394754.659    -7022769.398 6  -5414723.763 1
  21817153.269   -15511921.403 7 -11370176.233 1
  23036507.519    -8001290.093 5  -6156871.704 1
 90 10 22 11 53 14.9990000  0  5 02 06 15 13 09
  20937671.964     -141773.018 7    345313.609 4
  20624193.159    -9032900.813 7  -7010037.852 3
  23393058.995    -7031695.834 6  -5421679.418 1
  21807501.690   -15562642.250 7 -11409698.968 1
  23027017.300    -8051169.643 5  -6195738.862 1
 90 10 22 11 53 29.9990000  0  5 02 06 15 13 09
  20938912.651     -135253.459 7    350393.778 4
  20619612.440    -9056969.125 7  -7028792.389 3
  23391386.073    -7040486.830 6  -5428529.547 1
  21797868.479   -15613259.071 7 -11449140.639 1
  23017527.378    -8101032.764 5  -6234593.248 1
 90 10 22 11 53 44.9990000  0  5 02 06 15 13 09
  20940162.026     -128689.185 7    355508.791 3
  20615048.300    -9080955.976 7  -7047483.440 3
  23389737.667    -7049142.815 6  -5435274.459 1
  21788256.050   -15663772.323 7 -11488501.613 1
  23008042.995    -8150879.893 5  -6273435.166 1
 90 10 22 11 53 59.9990000  0  5 02 06 15 13 09
  20941418.737     -122081.658 7    360657.513 3
  20610498.081    -9104862.681 7  -7066112.040 3
  23388115.534    -7057665.153 6  -5441915.234 1
  21778663.651   -15714183.256 7 -11527782.854 1
  22998557.237    -8200712.233 5  -6312265.567 1
 90 10 22 11 54 14.9990000  0  5 02 06 15 13 09
  20942684.042     -115431.521 7    365839.435 4
  20605965.409    -9128689.329 7  -7084678.259 3
  23386518.237    -7066053.899 6  -5448451.912 1
  21769090.972   -15764492.067 7 -11566984.515 1
  22989081.026    -8250530.150 5  -6351084.713 1
 90 10 22 11 54 29.9990000  0  5 02 06 15 13 09
  20943958.659     -108735.104 7    371057.423 3
  20601447.464    -9152431.833 7  -7103178.913 3
  23384949.104    -7074305.528 6  -5454881.751 1
  21759536.503   -15814694.889 7 -11606103.591 1
  22979603.847    -8300329.631 5  -6389889.497 1
 90 10 22 11 54 44.9990000  0  5 02 06 15 13 09
  20945241.315     -101989.541 7    376313.704 3
  20596945.409    -9176087.345 7  -7121611.777 3
  23383405.300    -7082417.402 6  -5461202.693 1
  21750004.729   -15864788.523 7 -11645137.584 1
  22970130.565    -8350107.747 5  -6428677.638 1
 90 10 22 11 54 59.9990000  0  5 02 06 15 13 09
  20946534.151      -95198.137 7    381605.703 3
  20592458.933    -9199658.587 7  -7139978.983 3
  23381888.987    -7090392.502 6  -5467417.053 1
  21740492.597   -15914775.844 7 -11684088.736 1
  22960661.323    -8399867.357 6  -6467451.358 1
 90 10 22 11 55 14.9990000  0  5 02 06 15 13 09
  20947834.370      -88362.819 7    386931.924 3
  20587990.339    -9223147.385 7  -7158281.943 3
  23380396.417    -7098232.284 6  -5473525.972 1
  21731000.565   -15964658.681 7 -11722958.465 1
  22951195.378    -8449610.115 5  -6506211.949 1
 90 10 22 11 55 29.9990000  0  5 02 06 15 13 09
  20949144.245      -81485.505 7    392290.868 3
  20583535.604    -9246555.429 7  -7176521.978 3
  23378928.831    -7105939.032 6  -5479531.226 1
  21721526.675   -16014438.506 7
  22941733.706    -8499338.018 5
 90 10 22 11 55 44.9990000  0  5 02 06 15 13 09
  20950462.589      -74558.243 7    397688.737 3
  20579097.651    -9269874.401 7  -7194692.608 3
  23377489.284    -7113504.659 6  -5485426.524 1
  21712075.933   -16064107.214 7
  22932270.972    -8549042.758 5
 90 10 22 11 55 59.9990000  0  5 02 06 15 13 09
  20951790.394      -67579.431 7    403126.772 3
  20574677.175    -9293102.221 7  -7212792.204 3
  23376078.034    -7120926.889 6  -5491210.071 1
  21702645.769   -16113662.724 7 -11839065.494 1
  22922818.847    -8598722.082 5  -6622403.066 1
 90 10 22 11 56 14.9990000  0  5 02 06 15 13 09
  20953126.636      -60555.260 7    408600.153 3
  20570274.042    -9316244.767 7  -7230825.360 3
  23374691.550    -7128211.750 6  -5496886.580 1
  21693234.604   -16163110.805 7 -11877596.459 1
  22913371.136    -8648382.138 6  -6661099.199 1
 90 10 22 11 56 29.9990000  0  5 02 06 15 13 09
  20954472.081      -53486.356 7    414108.387 3
  20565886.745    -9339302.383 7  -7248792.336 3
  23373330.542    -7135360.009 6  -5502456.639 1
  21683846.128   -16212451.734 7 -11916043.929 1
  22903926.855    -8698023.207 6  -6699780.551 1
 90 10 22 11 56 44.9990000  0  5 02 06 15 13 09
  20955825.690      -46373.118 7    419651.166 3
  20561514.386    -9362275.207 7  -7266693.245 3
  23371997.894    -7142371.894 6  -5507920.452 1
  21674476.706   -16261685.941 7 -11954408.238 1
  22894481.636    -8747645.474 5  -6738447.255 1
 90 10 22 11 56 59.9990000  0  5 02 06 15 13 09
  20957187.370      -39213.530 7    425230.064 3
  20557159.136    -9385160.954 7  -7284526.289 3
  23370689.565    -7149245.363 6  -5513276.387 1
  21665128.933   -16310810.918 7 -11992687.440 1
  22885041.644    -8797246.578 5  -6777097.446 1
 90 10 22 11 57 14.9990000  0  5 02 06 15 13 09
  20958557.198      -32010.054 7    430843.161 3
  20552821.987    -9407961.846 7  -7302293.216 3
  23369405.456    -7155982.984 6  -5518526.480 1
  21655800.409   -16359828.937 7 -12030883.294 1
  22875608.901    -8846828.915 5  -6815733.031 1
 90 10 22 11 57 29.9990000  0  5 02 06 15 13 09
  20959936.565      -24763.871 7    436489.538 3
  20548498.433    -9430678.788 7  -7319994.733 3
  23368152.597    -7162585.467 6  -5523671.269 1
  21646492.862   -16408740.953 7 -12068996.547 1
  22866174.409    -8896393.403 5  -6854354.698 1
 90 10 22 11 57 44.9990000  0  5 02 06 15 13 09
  20961324.847      -17473.451 7    442170.385 3
  20544190.675    -9453309.765 7  -7337629.257 3
  23366919.386    -7169051.106 6  -5528709.418 1
  21637207.097   -16457545.129 7 -12107025.773 1
  22856747.948    -8945938.188 5  -6892961.024 1
 90 10 22 11 57 59.9990000  0  5 02 06 15 13 09
  20962721.409      -10135.587 7    447888.198 3
  20539901.589    -9475851.370 7  -7355194.146 3
  23365718.112    -7175376.701 6  -5533638.445 1
  21627939.839   -16506237.942 7 -12144968.218 1
  22847324.956    -8995459.727 5  -6931549.233 1
 90 10 22 11 58 14.9990000  0  5 02 06 15 13 09
  20964127.112       -2750.831 7    453642.548 3
  20535629.831    -9498303.762 7  -7372689.517 3
  23364537.909    -7181562.708 6  -5538458.717 1
  21618694.878   -16554819.230 7 -12182823.760 1
  22837905.690    -9044958.225 5  -6970119.483 1
 90 10 22 11 58 29.9990000  0  5 02 06 15 13 09
  20965540.440        4678.442 7    459431.591 3
  20531373.620    -9520668.875 7  -7390116.878 3
  23363389.769    -7187611.183 6  -5543171.812 1
  21609472.104   -16603291.285 7 -12220594.185 1
  22828487.706    -9094435.861 5  -7008673.465 1
 90 10 22 11 58 44.9990000  0  5 02 06 15 13 09
  20966963.292       12155.052 7    465257.516 3
  20527134.089    -9542943.849 7  -7407474.005 3
  23362264.503    -7193519.224 6  -5547775.469 1
  21600269.495   -16651650.952 7 -12258277.031 1
  22819080.089    -9143889.449 5  -7047208.732 1
 90 10 22 11 58 59.9990000  0  5 02 06 15 13 09
  20968393.753       19674.196 7    471116.586 3
  20522911.839    -9565133.124 7  -7424764.347 3
  23361163.854    -7199291.694 6  -5552273.500 1
  21591086.808   -16699902.836 7 -12295875.901 1
  22809673.878    -9193323.634 5  -7085728.872 1
 90 10 22 11 59 14.9990000  0  5 02 06 15 13 09
  20969834.425       27241.963 7    477013.543 3
  20518707.284    -9587230.394 7  -7441982.993 3
  23360094.347    -7204922.462 6  -5556661.108 1
  21581925.933   -16748040.794 7 -12333385.989 1
  22800269.847    -9242732.302 5  -7124229.123 1
 90 10 22 11 59 29.9990000  0  5 02 06 15 13 09
  20971283.229       34856.470 7    482946.920 3
  20514519.862    -9609236.981 7  -7459130.989 3
  23359048.878    -7210412.823 6  -5560939.289 1
  21572787.737   -16796066.175 7 -12370808.364 1
  22790873.042    -9292116.691 5  -7162710.456 1
 90 10 22 11 59 44.9990000  0  5 02 06 15 13 09
  20972741.206       42518.278 7    488917.159 3
  20510350.354    -9631152.182 7  -7476207.769 3
  23358031.495    -7215762.156 6  -5565107.604 1
  21563671.261   -16843978.062 7 -12408142.295 1
  22781480.081    -9341475.892 5  -7201172.168 1
 90 10 22 11 59 59.9990000  0  5 02 06 15 13 09
  20974207.339       50225.042 7    494922.430 3
  20506196.128    -9652977.931 7  -7493214.843 3
  23357041.253    -7220972.649 6  -5569167.730 1
  21554575.206   -16891778.608 7 -12445389.467 1
  22772092.144    -9390812.149 5  -7239615.992 1
 90 10 22 12  0 14.9990000  0  5 02 06 15 13 09
  20975681.417       57972.976 7    500959.780 3
  20502057.964    -9674717.758 7  -7510154.972 3
  23356074.284    -7226048.363 6  -5573122.825 1
  21545499.034   -16939471.488 7 -12482552.739 1
  22762705.511    -9440128.971 6  -7278044.671 1
 90 10 22 12  0 29.9990000  0  5 02 06 15 13 09
  20977164.784       65763.068 7    507029.982 3
  20497937.542    -9696370.407 7  -7527027.164 3
  23355132.175    -7230988.211 6  -5576972.045 1
  21536443.628   -16987055.070 7 -12519630.845 1
  22753325.980    -9489424.972 5  -7316457.142 1
 90 10 22 12  0 44.9990000  0  5 02 06 15 13 09
  20978655.315       73600.946 7    513137.415 3
  20493836.261    -9717930.173 7  -7543826.980 3
  23354220.456    -7235786.602 6  -5580711.051 1
  21527410.808   -17034523.607 7 -12556619.314 1
  22743952.120    -9538694.614 5  -7354849.069 1
 90 10 22 12  0 59.9990000  0  5 02 06 15 13 09
  20980156.589       81484.599 7    519280.517 3
  20489750.331    -9739398.399 7  -7560555.465 3
  23353334.776    -7240445.031 6  -5584340.991 1
  21518398.269   -17081878.699 7 -12593519.376 1
  22734579.058    -9587939.445 5  -7393221.664 1
 90 10 22 12  1 14.9990000  0  5 02 06 15 13 09
  20981665.065       89413.074 7    525458.548 3
  20485682.620    -9760775.891 7  -7577213.254 3
  23352475.097    -7244964.513 6  -5587862.660 1
  21509410.073   -17129121.290 7 -12630331.775 1
  22725212.089    -9637160.058 5  -7431575.392 1
 90 10 22 12  1 29.9990000  0  5 02 06 15 13 09
  20983182.308       97386.177 7    531671.356 3
  20481631.284    -9782062.587 7  -7593800.288 3
  23351639.706    -7249344.994 6  -5591276.013 1
  21500440.925   -17176251.016 7 -12667056.234 1
  22715851.487    -9686356.382 5  -7469910.177 1
 90 10 22 12  1 44.9990000  0  5 02 06 15 13 09
  20984708.433      105404.576 7    537919.454 3
  20477598.964    -9803257.587 7  -7610315.873 3
  23350834.136    -7253585.373 6  -5594580.212 1
  21491494.120   -17223266.954 7 -12703692.017 1
  22706494.761    -9735527.569 6  -7508225.387 1
 90 10 22 12  1 59.9990000  0  5 02 06 15 13 09
  20986241.753      113465.928 7    544201.021 3
  20473582.253    -9824362.562 7  -7626761.307 3
  23350053.065    -7257688.249 6  -5597777.254 1
  21482569.167   -17270171.187 7 -12740240.761 1
  22697141.386    -9784675.444 6  -7546522.433 1
 90 10 22 12  2 14.9990000  0  5 02 06 15 13 09
  20987785.167      121573.713 7    550518.777 3
  20469584.276    -9845374.029 7  -7643133.878 3
  23349297.167    -7261650.202 6  -5600864.490 1
  21473664.940   -17316960.104 7 -12776699.647 1
  22687794.745    -9833796.428 6  -7584798.511 1
 90 10 22 12  2 29.9990000  0  5 02 06 15 13 09
  20989336.229      129726.166 7    556871.336 3
  20465601.987    -9866293.563 7  -7659434.816 3
  23348572.401    -7265472.821 6  -5603843.155 1
  21464782.667   -17363635.424 7 -12813070.025 1
  22678451.534    -9882892.056 6  -7623054.848 1
 90 10 22 12  2 44.9990000  0  5 02 06 15 13 09
  20990895.183      137921.289 7    563257.139 3
  20461639.604    -9887122.642 7  -7675665.270 3
  23347871.401    -7269157.900 6  -5606714.628 1
  21455922.448   -17410198.527 7 -12849352.956 1
  22669111.440    -9931963.971 6  -7661292.701 1
 90 10 22 12  2 59.9990000  0  5 02 06 15 13 09
  20992463.901      146161.541 7    569678.117 3
  20457694.315    -9907858.531 7  -7691823.106 3
  23347195.331    -7272703.201 6  -5609477.207 1
  21447083.815   -17456646.621 7 -12885546.271 1
  22659782.190    -9981009.420 6  -7699509.924 1
 90 10 22 12  3 14.9990000  0  5 02 06 15 13 09
  20994039.847      154447.868 7    576134.988 3
  20453765.917    -9928500.067 7  -7707907.420 3
  23346545.839    -7276107.478 6  -5612129.886 1
  21438266.269   -17502978.816 7 -12921649.272 1
  22650453.808   -10030027.371 6  -7737705.738 1
 90 10 22 12  3 29.9990000  0  5 02 06 15 13 09
  20995625.558      162777.471 7    582625.586 3
  20449854.862    -9949049.773 7  -7723920.179 3
  23345926.597    -7279373.403 6  -5614674.761 1
  21429472.433   -17549197.326 7 -12957663.690 1
  22641128.308   -10079020.065 6  -7775881.845 1
 90 10 22 12  3 44.9990000  0  5 02 06 15 13 09
  20997219.151      171153.252 7    589152.166 3
  20445962.565    -9969504.337 7  -7739858.792 3
  23345330.284    -7282497.728 6  -5617109.287 1
  21420699.378   -17595299.148 7 -12993587.178 1
  22631811.706   -10127984.331 6  -7814035.815 1
 90 10 22 12  3 59.9990000  0  5 02 06 15 13 09
  20998821.737      179573.824 7    595713.645 3
  20442089.175    -9989864.949 7  -7755724.200 3
  23344764.729    -7285482.033 6  -5619434.727 1
  21411947.503   -17641285.230 7 -13029420.483 1
  22622498.300   -10176921.359 6  -7852168.575 1
 90 10 22 12  4 14.9990000  0  5 02 06 15 13 09
  21000433.128      188041.474 7    602311.814 3
  20438231.940   -10010129.071 7  -7771514.430 3
  23344223.401    -7288323.968 6  -5621649.209 1
  21403219.198   -17687153.207 7 -13065161.758 1
  22613191.800   -10225828.760 6  -7890278.242 1
 90 10 22 12  4 29.9990000  0  5 02 06 15 13 09
  21002053.417      196553.539 7    608944.593 3
  20434393.159   -10030299.004 7  -7787231.259 3
  23343707.253    -7291026.340 6  -5623754.951 1
  21394513.198   -17732905.566 7 -13100812.938 1
  22603889.597   -10274708.820 6  -7928366.596 1
 90 10 22 12  4 44.9990000  0  5 02 06 15 13 09
  21003680.050      205106.574 7    615609.303 3
  20430573.644   -10050377.839 7  -7802877.102 3
  23343223.151    -7293592.226 6  -5625754.342 1
  21385828.792   -17778545.124 7 -13136376.224 1
  22594593.355   -10323564.506 6  -7966435.952 1
 90 10 22 12  4 59.9990000  0  5 02 06 15 13 09
  21005317.198      213703.744 7    622308.394 3
  20426769.261   -10070362.102 7  -7818449.259 3
  23342760.675    -7296018.337 6  -5627644.809 1
  21377164.104   -17824068.504 7 -13171848.979 1
  22585301.050   -10372392.426 6  -8004483.685 1
 90 10 22 12  5 14.9990000  0  5 02 06 15 13 09
  21006961.659      222350.454 7    629046.093 3
  20422987.308   -10090246.048 7  -7833943.242 3
  23342321.729    -7298299.301 6  -5629422.180 1
  21368525.245   -17869470.249 7 -13207226.955 1
  22576017.729   -10421186.883 6  -8042505.339 1
 90 10 22 12  5 29.9990000  0  5 02 06 15 13 09
  21008616.690      231040.826 7    635817.802 3
  20419219.823   -10110035.614 7  -7849363.683 3
  23341916.503    -7300440.835 6  -5631090.904 1
  21359907.136   -17914756.057 7 -13242514.590 1
  22566737.347   -10469953.816 6  -8080505.540 1
 90 10 22 12  5 44.9990000  0  5 02 06 15 13 09
  21010277.401      239774.930 7    642623.594 3
  20415473.058   -10129730.185 7  -7864710.100 3
  23341538.784    -7302442.387 6  -5632650.551 1
  21351313.526   -17959925.414 7 -13277711.485 1
  22557461.058   -10518692.407 6  -8118483.664 1
 90 10 22 12  5 59.9990000  0  5 02 06 15 13 09
  21011949.370      248557.220 7    649466.931 3
  20411744.534   -10149324.859 7  -7879978.677 3
  23341182.034    -7304300.062 6  -5634098.091 1
  21342739.745   -18004973.479 7 -13312813.865 1
  22548195.495   -10567398.079 6  -8156436.146 1
 90 10 22 12  6 14.9990000  0  5 02 06 15 13 09
  21013629.675      257388.124 7    656348.148 3
  20408033.831   -10168819.067 7  -7895168.967 3
  23340856.948    -7306013.475 6  -5635433.216 1
  21334190.753   -18049899.750 7 -13347821.343 1
  22538931.808   -10616070.063 6  -8194362.361 1
 90 10 22 12  6 29.9990000  0  5 02 06 15 13 09
  21015317.370      266260.428 7    663261.631 3
  20404342.675   -10188219.858 7  -7910286.465 3
  23340556.581    -7307589.507 6  -5636661.289 1
  21325663.198   -18094711.321 7 -13382739.448 2
  22529674.854   -10664715.513 6  -8232267.910 1
 90 10 22 12  6 44.9990000  0  5 02 06 15 13 09
  21017015.222      275177.722 7    670210.172 3
  20400668.894   -10207523.430 7  -7925328.208 3
  23340284.167    -7309024.459 6  -5637779.432 1
  21317158.620   -18139404.127 7 -13417565.007 1
  22520424.542   -10713330.523 6  -8270149.732 1
 90 10 22 12  6 59.9990000  0  5 02 06 15 13 09
  21018719.597      284138.259 7    677192.404 3
  20397013.722   -10226730.940 7  -7940295.097 3
  23340037.894    -7310320.307 6  -5638789.187 1
  21308676.808   -18183979.698 7 -13452299.210 2
  22511178.440   -10761916.415 6  -8308008.865 1
 90 10 22 12  7 14.9990000  0  5 02 06 15 13 09
  21020433.190      293143.709 7    684209.633 3
  20393378.237   -10245840.696 7  -7955185.817 3
  23339817.253    -7311475.207 6  -5639689.107 1
  21300216.636   -18228436.255 7 -13486940.672 2
  22501938.206   -10810471.413 6  -8345843.926 1
 90 10 22 12  7 29.9990000  0  5 02 06 15 13 09
  21022155.519      302196.898 7    691264.064 3
  20389760.714   -10264849.387 7  -7969997.781 3
  23339625.511    -7312485.804 6  -5640476.587 1
  21291779.737   -18272770.645 7 -13521486.943 2
  22492704.948   -10858992.266 6  -8383652.383 1
 90 10 22 12  7 44.9990000  0  5 02 06 15 13 09
  21023886.839      311294.110 7    698352.801 3
  20386160.659   -10283760.651 7  -7984733.833 3
  23339457.159    -7313356.165 6  -5641154.806 1
  21283365.230   -18316986.471 7 -13555940.826 2
  22483480.315   -10907482.486 6  -8421436.954 1
 90 10 22 12  7 59.9990000  0  5 02 06 15 13 09
  21025627.730      320437.983 7    705477.896 3
  20382582.183   -10302571.435 7  -7999391.584 3
  23339321.862    -7314083.247 6  -5641721.363 1
  21274974.331   -18361080.574 7 -13590299.860 2
  22474258.190   -10955938.962 6  -8459195.247 1
 90 10 22 12  8 14.9990000  0  5 02 06 15 13 09
  21027376.136      329627.963 7    712638.915 3
  20379021.604   -10321281.792 7  -8013971.081 3
  23339208.823    -7314667.875 6  -5642176.915 1
  21266607.886   -18405053.414 7 -13624564.401 1
  22465042.620   -11004361.871 6  -8496927.382 1
 90 10 22 12  8 29.9990000  0  5 02 06 15 13 09
  21029133.120      338859.497 7    719832.321 3
  20375480.386   -10339896.209 7  -8028475.818 3
  23339125.659    -7315114.448 6  -5642524.890 1
  21258261.269   -18448909.196 7 -13658737.730 2
  22455833.761   -11052755.714 6  -8534636.861 1
 90 10 22 12  8 44.9990000  0  5 02 06 15 13 09
  21030896.792      348133.098 7    727058.495 3
  20371956.308   -10358413.710 7  -8042905.045 3
  23339067.706    -7315422.477 6  -5642764.907 1
  21249939.886   -18492647.036 7 -13692819.155 2
  22446630.808   -11101119.491 6  -8572322.912 1
 90 10 22 12  8 59.9990000  0  5 02 06 15 13 09
  21032670.776      357449.102 7    734317.720 3
  20368450.745   -10376833.960 7  -8057258.484 3
  23339035.284    -7315591.689 6
  21241638.136   -18536266.846 7 -13726808.610 2
  22437431.706   -11149452.895 6  -8609985.298 1
 90 10 22 12  9 14.9990000  0  5 02 06 15 13 09
  21034452.175      366812.560 7    741613.918 3
  20364964.675   -10395151.618 7  -8071531.983 3
  23339030.034    -7315617.059 6
  21233360.878   -18579763.112 7 -13760701.802 2
  22428243.261   -11197750.516 6  -8647619.799 1
 90 10 22 12  9 29.9990000  0  5 02 06 15 13 09
  21036242.659      376222.777 7    748946.554 3
  20361497.183   -10413367.193 7  -8085725.937 3
  23339051.261    -7315499.348 6
  21225106.604   -18623136.397 7 -13794499.151 2
  22419061.315   -11246012.712 6  -8685226.700 1
 90 10 22 12  9 44.9990000  0  5 02 06 15 13 09
  21038042.253      385678.755 7    756314.843 3
  20358051.081   -10431481.064 7  -8099840.640 3
  23339102.589    -7315239.152 6
  21216877.003   -18666387.400 7 -13828201.224 2
  22409879.948   -11294240.360 6  -8722806.674 1
 90 10 22 12  9 59.9990000  0  5 02 06 15 13 09
  21039849.542      395175.129 7    763714.612 3
  20354623.058   -10449498.707 7  -8113880.361 3
  23339178.636    -7314841.838 6
  21208669.706   -18709521.266 7 -13861812.013 2
  22400706.792   -11342438.294 6  -8760363.496 1
 90 10 22 12 10 14.9990000  0  5 02 06 15 13 09
  21041664.698      404716.112 7    771149.146 3
  20351213.698   -10467415.302 7  -8127841.345 3
  23339282.894    -7314303.202 6        -0.24411
  21200484.753   -18752533.420 7 -13895327.968 2
  22391545.542   -11390601.917 6  -8797893.582 1
 90 10 22 12 10 29.9990000  0  5 02 06 15 13 09
  21043489.120      414303.332 7    778619.703 3
  20347823.972   -10485228.884 7  -8141722.063 3
  23339408.878    -7313621.263 6       531.135 1
  21192321.784   -18795421.709 7 -13928747.405 2
  22382383.972   -11438729.447 6  -8835395.549 1
 90 10 22 12 10 44.9990000  0  5 02 06 15 13 09
  21045322.995      423937.718 7    786127.011 3
  20344453.151   -10502938.354 7  -8155521.648 3
  23339566.034    -7312795.172 6      1174.825 1
  21184184.651   -18838185.363 7 -13962069.723 2
  22373234.183   -11486819.438 6  -8872868.262 1
 90 10 22 12 10 59.9990000  0  5 02 06 15 13 09
  21047164.956      433617.888 7    793669.997 3
  20341102.620   -10520544.784 7  -8169240.944 3
  23339751.151    -7311826.695 6      1929.484 1
  21176071.104   -18880825.680 7 -13995295.932 2
  22364089.308   -11534873.380 6  -8910312.885 1
 90 10 22 12 11 14.9990000  0  5 02 06 15 13 09
  21049015.901      443344.772 7    801249.383 3
  20337771.956   -10538047.046 7  -8182879.067 3
  23339960.979    -7310714.734 6      2795.945 1
  21167979.690   -18923341.100 7 -14028424.822 2
  22354954.472   -11582889.615 6  -8947728.125 1
 90 10 22 12 11 29.9990000  0  5 02 06 15 13 09
  21050875.378      453117.588 7    808864.560 3
  20334461.706   -10555445.788 7  -8196436.530 3
  23340200.144    -7309459.804 6      3773.806 1
  21159914.690   -18965732.623 7 -14061457.172 2
  22345821.175   -11630869.246 6  -8985114.849 1
 90 10 22 12 11 44.9990000  0  5 02 06 15 13 09
  21052742.940      462933.432 7    816513.267 3
  20331169.753   -10572743.397 7  -8209915.188 3
  23340466.612    -7308064.749 6      4860.861 1
  21151870.073   -19008002.666 7 -14094394.863 2
  22336698.440   -11678814.499 6  -9022474.771 1
 90 10 22 12 11 59.9990000  0  5 02 06 15 13 09
  21054620.269      472796.406 7    824198.698 3
  20327898.456   -10589935.507 7  -8223311.637 3
  23340759.050    -7306525.644 6      6060.159 1
  21143849.159   -19050146.757 7 -14127234.412 2
  22327582.651   -11726720.851 6  -9059804.395 1
 90 10 22 12 12 14.9990000  0  5 02 06 15 13 09
  21056505.503      482703.204 7    831918.277 3
  20324646.456   -10607025.326 7  -8236628.379 3
  23341076.698    -7304845.698 6      7369.205 1
  21135854.175   -19092168.045 7 -14159978.263 2
  22318473.933   -11774591.581 6  -9097106.252 1
 90 10 22 12 12 29.9990000  0  5 02 06 15 13 09
  21058399.065      492656.221 7    839673.868 3
  20321414.222   -10624010.087 7  -8249863.260 3
  23341426.980    -7303022.724 6      8789.699 1
  21127880.167   -19134064.207 7 -14192624.617 2
  22309368.933   -11822423.943 6  -9134378.222 1
 90 10 22 12 12 44.9990000  0  5 02 06 15 13 09
  21060300.894      502651.540 7    847462.424 3
  20318201.394   -10640893.388 7  -8263019.080 3
  23341799.839    -7301060.406 6     10318.780 1
  21119932.128   -19175838.682 7 -14225176.146 2
  22300274.987   -11870221.448 6  -9171623.033 1
 90 10 22 12 12 59.9990000  0  5 02 06 15 13 09
  21062211.815      512691.375 7    855285.670 3
  20315008.253   -10657672.818 7  -8276093.956 3
  23342200.284    -7298956.355 6     11958.287 1
  21112005.628   -19217489.000 7 -14257630.933 2
  22291185.354   -11917981.601 6  -9208838.724 1
 90 10 22 12 13 14.9990000  0  5 02 06 15 13 09
  21064130.979      522777.248 7    863144.792 3
  20311835.987   -10674346.614 7  -8289086.521 3
  23342627.440    -7296709.449 6     13709.121 1
  21104103.870   -19259013.665 7 -14289987.808 2
  22282103.761   -11965702.648 6  -9246023.944 1
 90 10 22 12 13 29.9990000  0  5 02 06 15 13 09
  21066058.378      532906.105 7    871037.407 3
  20308682.104   -10690917.504 7  -8301998.905 3
  23343081.948    -7294322.616 6     15568.983 1
  21096225.901   -19300415.594 7 -14322249.042 2
  22273030.980   -12013387.478 6  -9283180.952 1
 90 10 22 12 13 44.9990000  0  5 02 06 15 13 09
  21067993.948      543076.160 7    878962.120 3
  20305548.948   -10707387.115 7  -8314832.369 3
  23343561.120    -7291797.621 6     17536.510 1
  21088370.159   -19341696.273 7 -14354415.805 2
  22263964.378   -12061037.406 6  -9320310.770 1
 90 10 22 12 13 59.9990000  0  5 02 06 15 13 09
  21069937.503      553290.785 7    886921.565 3
  20302434.151   -10723751.885 7  -8327584.139 3
  23344070.558    -7289130.968 6     19614.417 1
  21080538.229   -19382852.123 7 -14386485.291 2
  22254905.784   -12108648.949 6  -9357410.661 1
 90 10 22 12 14 14.9990000  0  5 02 06 15 13 09
  21071887.901      563542.579 7    894909.969 3
  20299339.237   -10740018.536 7  -8340259.454 3
  23344602.011    -7286329.733 6     21797.187 1
  21072728.644   -19423890.140 7 -14418462.964 2
  22245851.081   -12156229.095 6  -9394486.094 1
 90 10 22 12 14 29.9990000  0  5 02 06 15 13 09
  21073848.081      573838.301 7    902932.609 3
  20296263.339   -10756180.090 7  -8352852.870 3
  23345162.081    -7283387.193 6     24090.064 1
  21064943.862   -19464803.204 7 -14450343.270 2
  22236802.722   -12203770.453 6  -9431531.297 1
 90 10 22 12 14 44.9990000  0  5 02 06 15 13 09
  21075815.917      584180.677 7    910991.595 3
  20293208.909   -10772233.669 7  -8365362.151 3
  23345750.151    -7280300.670 6     26495.140 1
  21057181.776   -19505588.422 7 -14482123.953 2
  22227765.409   -12251270.172 6  -9468544.053 1
 90 10 22 12 14 59.9990000  0  5 02 06 15 13 09
  21077793.698      594573.897 7    919090.205 3
  20290175.167   -10788174.834 7  -8377783.835 3
  23346365.417    -7277066.410 6     29015.341 1
  21049446.401   -19546241.605 7 -14513801.750 2
  22218735.737   -12298723.900 6  -9505520.984 1
 90 10 22 12 15 14.9990000  0  5 02 06 15 13 09
  21079780.519      605015.321 7    927226.375 3
  20287162.847   -10804006.129 7  -8390119.912 3
  23347008.558    -7273686.910 6     31648.711 1
  21041734.964   -19586765.312 7 -14545378.660 2
  22209710.339   -12346134.038 6  -9542463.943 1
 90 10 22 12 15 29.9990000  0  5 02 06 15 13 09
  21081775.636      615499.972 7    935396.230 3
  20284169.729   -10819732.053 7  -8402373.879 3
  23347679.378    -7270166.738 6     34391.691 1
  21034046.894   -19627164.241 7 -14576858.344 2
  22200696.917   -12393505.188 6  -9579376.523 1
 90 10 22 12 15 44.9990000  0  5 02 06 15 13 09
  21083778.722      626026.996 7    943599.101 3
  20281196.675   -10835353.171 7  -8414546.181 3
  23348374.964    -7266507.039 6     37243.401 1
  21026382.995   -19667438.942 7 -14608241.228 2
  22191691.847   -12440837.751 6  -9616259.029 1
 90 10 22 12 15 59.9990000  0  5 02 06 15 13 09
  21085791.401      636599.504 7    951837.416 3
  20278244.690   -10850866.233 7  -8426634.284 3
  23349097.253    -7262704.793 6     40206.180 1
  21018743.558   -19707586.064 7 -14639524.690 2
  22182690.065   -12488128.434 6  -9653108.905 1
 90 10 22 12 16 14.9990000  0  5 02 06 15 13 09
  21087811.573      647216.594 7    960110.472 3
  20275313.503   -10866271.769 7  -8438638.592 3
  23349849.753    -7258761.089 6     43279.187 1
  21011127.292   -19747606.378 7 -14670709.349 2
  22173700.839   -12535377.787 6  -9689926.581 1
 90 10 22 12 16 29.9990000  0  5 02 06 15 13 09
  21089840.401      657880.013 7    968419.630 3
  20272402.534   -10881567.934 7  -8450557.683 3
  23350626.776    -7254673.749 6     46464.124 1
  21003536.300   -19787498.366 7 -14701794.007 2
  22164717.839   -12582584.120 6  -9726710.733 1
 90 10 22 12 16 44.9990000  0  5 02 06 15 13 09
  21091879.737      668592.826 7    976767.271 3
  20269513.011   -10896751.475 7  -8462389.018 3
  23351431.737    -7250440.066 6     49763.085 1
  20995970.550   -19827258.308 7 -14732775.774 2
  22155743.081   -12629743.868 6  -9763458.585 1
 90 10 22 12 16 59.9990000  0  5 02 06 15 13 09
  21093926.198      679352.005 7    985151.039 3
  20266645.503   -10911825.218 7  -8474134.789 3
  23352266.222    -7246063.048 6     53173.732 1
  20988428.940   -19866889.118 7 -14763656.920 2
  22146775.948   -12676859.829 6  -9800172.307 1
 90 10 22 12 17 14.9990000  0  5 02 06 15 13 09
  21095981.847      690151.388 7    993566.137 3
  20263796.487   -10926794.832 7  -8485799.425 3
  23353126.995    -7241548.816 6     56691.315 1
  20980911.815   -19906396.745 7 -14794442.077 2
  22137816.894   -12723937.661 6  -9836856.333 1
 90 10 22 12 17 29.9990000  0  5 02 06 15 13 09
  21098045.214      700996.165 7   1002016.608 3
  20260968.237   -10941654.944 7  -8497378.734 3
  23354009.159    -7236892.326 6     60319.736 1
  20973418.214   -19945775.958 7 -14825127.174 2
  22128867.464   -12770972.136 6  -9873506.567 1
 90 10 22 12 17 44.9990000  0  5 02 06 15 13 09
  21100117.854      711888.711 7   1010504.299 3
  20258162.112   -10956402.827 7  -8508870.593 3
  23354924.683    -7232090.808 6     64061.163 1
  20965949.823   -19985023.997 7 -14855710.061 2
  22119924.706   -12817960.205 6  -9910120.639 1
 90 10 22 12 17 59.9990000  0  5 02 06 15 13 09
  21102197.917      722821.522 7   1019023.368 3
  20255375.417   -10971045.760 7  -8520280.672 3
  23355865.276    -7227151.939 6     67909.621 1
  20958504.706   -20024148.194 7 -14886196.445 2
  22110991.776   -12864909.270 6  -9946704.321 1
 90 10 22 12 18 14.9990000  0  5 02 06 15 13 09
  21104288.401      733801.867 7   1027579.479 3
  20252610.456   -10985576.064 7  -8531602.994 3
  23356830.229    -7222068.813 6     71870.484 1
  20951083.394   -20063140.913 7 -14916580.378 2
  22102066.401   -12911811.610 6  -9983251.597 1
 90 10 22 12 18 29.9990000  0  5 02 06 15 13 09
  21106385.128      744823.738 7   1036167.946 3
  20249866.456   -10999999.830 7  -8542842.291 3
  23357823.229    -7216847.304 6     75939.181 1
  20943687.487   -20102008.299 7 -14946866.648 2
  22093149.620   -12958673.193 6 -10019767.107 1
 90 10 22 12 18 44.9990000  0  5 02 06 15 13 09
  21108492.050      755896.126 7   1044795.780 3
  20247143.073   -11014307.743 7  -8553991.319 3
  23358846.519    -7211478.326 6     80122.798 1
  20936316.995   -20140741.366 7 -14977048.256 2
  22084242.573   -13005484.768 6 -10056243.660 1
 90 10 22 12 18 59.9990000  0  5 02 06 15 13 09
  21110607.003      767014.470 7   1053459.420 3
  20244441.612   -11028504.175 7  -8565053.472 3
  23359896.019    -7205966.332 6     84417.859 1
  20928970.636   -20179344.337 7 -15007128.486 2
  22075340.347   -13052250.492 6 -10092684.480 1
 90 10 22 12 19 14.9990000  0  5 02 06 15 13 09
  21112732.589      778178.005 7   1062158.275 3
  20241761.097   -11042589.429 7  -8576029.001 3
  23360969.284    -7200312.369 6     88823.534 1
  20921649.636   -20217817.702 7 -15037107.731 2
  22066452.159   -13098970.655 6 -10129089.799 1
 90 10 22 12 19 29.9990000  0  5 02 06 15 13 09
  21114864.495      789385.278 7   1070891.210 3
  20239101.448   -11056564.632 7  -8586918.771 3
  23362075.370    -7194517.712 6     93338.844 1
  20914352.870   -20256162.783 7 -15066987.008 2
  22057570.206   -13145646.454 6 -10165460.554 1
 90 10 22 12 19 44.9990000  0  5 02 06 15 13 09
  21117006.667      800631.144 7   1079654.219 3
  20236462.401   -11070434.955 7  -8597726.816 3
  23363200.628    -7188587.750 6     97959.597 1
  20907080.042   -20294384.697 7 -15096770.309 2
  22048695.206   -13192282.962 6 -10201800.684 1
 90 10 22 12 19 59.9990000  0  5 02 06 15 13 09
  21119154.854      811927.880 7   1088456.869 3
  20233845.456   -11084187.873 7  -8608443.372 3
  23364359.730    -7182509.691 6    102695.734 1
  20899831.706   -20332470.787 7 -15126447.769 2
  22039830.612   -13238867.191 6 -10238100.078 1
 90 10 22 12 20 14.9990000  0  5 02 06 15 13 09
  21121312.495      823270.934 7   1097295.611 3
  20231249.105   -11097827.410 7  -8619071.586 3
  23365543.964    -7176288.640 6    107543.305 1
  20892609.901   -20370425.415 7 -15156022.798 2
  22030974.659   -13285403.799 6 -10274362.374 1
 90 10 22 12 20 29.9990000  0  5 02 06 15 13 09
  21123480.690      834660.141 7   1106170.317 3
  20228676.097   -11111353.664 7  -8629611.526 3
  23366751.737    -7169924.758 6    112502.165 1
  20885411.862   -20408248.817 7 -15185495.572 2
  22022128.667   -13331892.649 6 -10310587.451 1
 90 10 22 12 20 44.9990000  0  5 02 06 15 13 09
  21125657.542      846094.151 7   1115079.934 3
  20226123.331   -11124767.730 7  -8640064.043 3
  23367989.792    -7163419.145 6    117571.469 1
  20878238.722   -20445941.874 7 -15214866.779 2
  22013291.292   -13378334.495 6 -10346775.889 1
 90 10 22 12 20 59.9990000  0  5 02 06 15 13 09
  21127840.737      857571.977 7   1124023.690 3
  20223591.612   -11138070.202 7  -8650429.605 3
  23369256.792    -7156773.293 6    122750.051 1
  20871089.839   -20483505.542 7 -15244137.164 2
  22004460.979   -13424730.106 6 -10382928.310 1
 90 10 22 12 21 14.9990000  0  5 02 06 15 13 09
  21130033.315      869091.363 7   1132999.837 3
  20221081.378   -11151263.286 7  -8660709.930 3
  23370547.964    -7149989.401 6    128036.188 1
  20863967.495   -20520941.865 7 -15273308.321 2
  21995640.690   -13471081.489 6 -10419046.272 1
 90 10 22 12 21 29.9990000  0  5 02 06 15 13 09
  21132233.362      880656.098 7   1142011.317 3
  20218592.417   -11164343.014 7  -8670901.928 3
  23371867.909    -7143063.834 6    133432.727 1
  20856868.651   -20558246.829 7 -15302377.118 2
  21986830.511   -13517384.504 6 -10455126.535 1
 90 10 22 12 21 44.9990000  0  5 02 06 15 13 09
  21134442.464      892265.091 7   1151057.283 3
  20216125.347   -11177310.086 7  -8681006.142 3
  23373211.354    -7135997.410 6    138939.027 1
  20849794.495   -20595421.666 7 -15331344.518 2
  21978028.120   -13563640.199 6 -10491169.935 1
 90 10 22 12 21 59.9990000  0  5 02 06 15 13 09
  21136661.401      903924.883 7   1160142.830 3
  20213679.737   -11190157.665 7  -8691017.245 3
  23374581.214    -7128783.715 6    144560.084 1
  20842746.987   -20632459.506 7 -15360205.164 2
  21969236.433   -13609841.304 6 -10527170.784 1
 90 10 22 12 22 14.9990000  0  5 02 06 15 13 09
  21138889.386      915629.102 7   1169262.999 3
  20211257.651   -11202891.991 7  -8700940.099 3
  23375979.479    -7121429.313 6    150290.781 1
  20835722.519   -20669366.297 7 -15388963.694 2
  21960453.909   -13655994.148 6 -10563134.042 1
 90 10 22 12 22 29.9990000  0  5 02 06 15 13 09
  21141123.331      927376.253 7   1178416.619 3
  20208854.823   -11215514.116 7  -8710775.521 3
  23377408.065    -7113935.567 6    156130.052 1
  20828724.784   -20706143.402 7 -15417621.170 2
  21951679.933   -13702099.781 6 -10599060.508 1
 90 10 22 12 22 44.9990000  0  5 02 06 15 13 09
  21143368.667      939170.818 7   1187607.186 3
  20206475.276   -11228019.426 7  -8720519.916 3
  23378863.886    -7106297.836 6    162081.526 1
  20821751.347   -20742786.534 7 -15446174.251 2
  21942917.190   -13748153.149 6 -10634946.247 1
 90 10 22 12 22 59.9990000  0  5 02 06 15 13 09
  21145621.612      951008.730 7   1196831.530 3
  20204117.112   -11240411.961 7  -8730176.438 3
  23380339.987    -7098520.642 6    168141.675 1
  20814804.206   -20779299.627 7 -15474626.004 2
  21934162.104   -13794158.628 6 -10670794.672 1
 90 10 22 12 23 14.9990000  0  5 02 06 15 13 09
  21147882.480      962895.308 7   1206093.798 3
  20201781.526   -11252686.150 7  -8739740.745 3
  23381849.480    -7090598.905 6    174314.443 1
  20807879.753   -20815677.003 7 -15502972.005 2
  21925416.847   -13840110.408 6 -10706601.242 1
 90 10 22 12 23 29.9990000  0  5 02 06 15 13 09
  21150154.151      974823.769 7   1215388.699 3
  20199467.503   -11264848.259 7  -8749217.713 3
  23383382.042    -7082539.208 6    180594.731 1
  20800983.315   -20851925.351 7 -15531217.467 2
  21916681.542   -13886014.842 6 -10742370.931 1
 90 10 22 12 23 44.9990000  0  5 02 06 15 13 09
  21152431.245      986795.467 7   1224717.292 3
  20197173.964   -11276896.903 7  -8758606.275 3
  23384943.714    -7074340.237 6    186983.527 1
  20794110.362   -20888043.319 7 -15559361.328 2
  21907956.487   -13931870.267 6 -10778102.430 1
 90 10 22 12 23 59.9990000  0  5 02 06 15 13 09
  21154719.058      998813.970 7   1234082.358 3
  20194904.058   -11288828.464 7  -8767903.595 3
  23386529.222    -7065998.375 6    193483.673 1
  20787263.019   -20924027.045 7 -15587400.588 2
  21899239.987   -13977673.088 6 -10813792.937 1
 90 10 22 12 24 14.9990000  0  5 02 06 15 13 09
  21157013.823     1010878.482 7   1243483.274 3
  20192655.347   -11300643.060 7  -8777109.774 3
  23388146.308    -7057514.396 6    200094.565 1
  20780439.644   -20959877.055 7 -15615335.651 2
  21890535.253   -14023423.305 6 -10849442.451 1
 90 10 22 12 24 29.9990000  0  5 02 06 15 13 09
  21159318.370     1022987.489 7   1252918.862 3
  20190430.308   -11312342.214 7  -8786226.000 3
  23389787.261    -7048890.175 6    206814.725 1
  20773643.698   -20995594.904 7 -15643167.734 2
  21881838.229   -14069122.341 6 -10885052.085 1
 90 10 22 12 24 44.9990000  0  5 02 06 15 13 09
  21161634.081     1035155.413 7   1262400.358 3
  20188227.401   -11323911.159 7  -8795240.761 3
  23391457.573    -7040111.219 6    213655.460 1
  20766874.737   -21031165.970 7 -15670885.443 2
  21873154.597   -14114755.555 6 -10920610.429 1
 90 10 22 12 24 59.9990000  0  5 02 06 15 13 09
  21163958.378     1047367.954 7   1271916.618 3
  20186048.151   -11335363.999 7  -8804165.055 3
  23393152.378    -7031191.926 6    220605.558 1
  20760129.964   -21066604.434 7 -15698499.823 2
  21864480.745   -14160336.643 6 -10956128.162 1
 90 10 22 12 25 14.9990000  0  5 02 06 15 13 09
  21166289.714     1059617.068 7   1281461.379 3
  20183889.612   -11346708.776 7  -8813005.144 3
  23394875.011    -7022140.486 6    227658.623 1
  20753410.612   -21101918.174 7 -15726017.011 2
  21855814.933   -14205873.842 6 -10991611.687 1
 90 10 22 12 25 29.9990000  0  5 02 06 15 13 09
  21168630.011     1071917.666 7   1291046.252 3
  20181754.151   -11357930.133 7  -8821749.061 3
  23396625.300    -7012942.102 6    234826.190 1
  20746717.378   -21137092.246 7 -15753425.372 2
  21847161.042   -14251351.623 6 -11027048.919 1
 90 10 22 12 25 44.9990000  0  5 02 06 15 13 09
  21170979.237     1084262.585 7   1300665.664 3
  20179640.706   -11369035.069 7  -8830402.258 3
  23398402.339    -7003603.788 6    242102.790 1
  20740048.683   -21172133.555 7 -15780730.282 2
  21838516.331   -14296776.767 6 -11062445.139 1
 90 10 22 12 25 59.9990000  0  5 02 06 15 13 09
  21173337.011     1096652.306 7   1310319.984 3
  20177550.308   -11380022.854 7  -8838964.174 3
  23400204.612    -6994125.300 6    249488.622 1
  20733406.511   -21207041.409 7 -15807931.197 2
  21829882.245   -14342148.740 6 -11097799.916 1
 90 10 22 12 26 14.9990000  0  5 02 06 15 13 09
  21175702.933     1109090.856 7   1320012.354 3
  20175482.151   -11390889.190 7  -8847431.447 3
  23402039.323    -6984502.558 6    256986.849 1
  20726789.800   -21241811.725 7 -15835024.940 2
  21821259.269   -14387462.962 6 -11133109.696 1
 90 10 22 12 26 29.9990000  0  5 02 06 15 13 09
  21178078.355     1121575.535 7   1329740.672 3
  20173436.917   -11401636.713 7  -8855806.145 3
  23403898.292    -6974738.391 6    264595.285 1
  20720198.862   -21276447.415 7 -15862013.785 2
  21812646.933   -14432721.976 6 -11168376.463 1
 90 10 22 12 26 44.9990000  0  5 02 06 15 13 09
  21180463.776     1134106.336 7   1339504.925 3
  20171414.097   -11412265.145 7  -8864088.045 3
  23405781.229    -6964833.170 6    272313.625 1
  20713633.144   -21310948.163 7 -15888897.476 2
  21804045.026   -14477925.589 6 -11203600.053 1
 90 10 22 12 26 59.9990000  0  5 02 06 15 13 09
  21182856.690     1146681.564 7   1349303.800 3
  20169414.933   -11422776.038 7  -8872278.356 3
  23407691.487    -6954788.371 6    280140.730 1
  20707093.019   -21345315.146 7 -15915676.940 2
  21795454.151   -14523075.010 6 -11238781.416 1
 90 10 22 12 27 14.9990000  0  5 02 06 15 13 09
  21185257.706     1159299.636 7   1359136.059 3
  20167436.839   -11433170.476 7  -8880377.927 3
  23409631.839    -6944605.661 6    288075.304 1
  20700579.487   -21379549.915 7 -15942353.373 2
  21786871.292   -14568171.517 6 -11273921.551 1
 90 10 22 12 27 29.9990000  0  5 02 06 15 13 09
  21187666.097     1171959.318 7   1369000.746 3
  20165480.214   -11443449.359 7  -8888387.446 3
  23411590.894    -6934286.433 6    296116.246 1
  20694089.808   -21413653.636 7 -15968927.695 2
  21778299.995   -14613215.735 6 -11309020.938 1
 90 10 22 12 27 44.9990000  0  5 02 06 15 13 09
  21190083.612     1184664.060 7   1378900.544 3
  20163546.315   -11453609.318 7  -8896304.299 3
  23413585.776    -6923827.519 6    304266.048 1
  20687625.534   -21447622.870 7 -15995397.222 2
  21769739.276   -14658204.303 6 -11344076.967 1
 90 10 22 12 27 59.9990000  0  5 02 06 15 13 09
  21192510.581     1197412.595 7   1388834.464 3
  20161635.698   -11463651.571 7  -8904129.436 3
  23415601.464    -6913230.055 6    312523.798 1
  20681185.378   -21481458.797 7 -16021762.873 2
  21761189.792   -14703138.086 6 -11379090.296 1
 90 10 22 12 28 14.9990000  0  5 02 06 15 13 09
  21194944.440     1210203.016 7   1398801.016 3
  20159747.823   -11473577.537 7  -8911863.964 3
  23417644.011    -6902496.052 6    320887.944 1
  20674772.464   -21515163.181 7 -16048026.023 2
  21752647.987   -14748018.597 6 -11414062.118 1
 90 10 22 12 28 29.9990000  0  5 02 06 15 13 09
  21197386.862     1223039.954 7   1408803.824 3
  20157881.003   -11483382.395 7  -8919504.114 3
  23419715.519    -6891620.806 6    329362.154 1
  20668385.972   -21548731.131 7 -16074182.863 2
  21744118.659   -14792841.130 6 -11448988.767 1
 90 10 22 12 28 44.9990000  0  5 02 06 15 13 09
  21199837.878     1235922.678 7   1418842.304 3
  20156038.128   -11493066.627 7  -8927050.268 3
  23421808.980    -6880605.156 6    337945.772 1
  20662022.737   -21582163.409 7 -16100233.981 2
  21735600.745   -14837605.685 6 -11483870.234 1
 90 10 22 12 28 59.9990000  0  5 02 06 15 13 09
  21202297.886     1248850.329 7   1428915.792 3
  20154218.011   -11502630.944 7  -8934502.982 3
  23423932.081    -6869449.998 6    346638.090 1
  20655685.644   -21615460.682 7 -16126179.902 2
  21727093.526   -14882312.974 6 -11518707.083 1
 90 10 22 12 29 14.9990000  0  5 02 06 15 13 09
  21204767.636     1261825.098 7   1439025.997 3
  20152422.050   -11512072.966 7  -8941860.402 3
  23426080.026    -6858153.543 6    355440.514 1
  20649376.487   -21648620.751 7 -16152018.908 2
  21718597.190   -14926960.760 6 -11553497.569 1
 90 10 22 12 29 29.9990000  0  5 02 06 15 13 09
  21207244.792     1274840.040 7   1449167.504 3
  20150646.597   -11521399.366 7  -8949127.732 3
  23428257.097    -6846722.995 6    364347.424 1
  20643090.628   -21681650.435 7 -16177756.316 2
  21710111.019   -14971555.382 6 -11588246.618 1
 90 10 22 12 29 44.9990000  0  5 02 06 15 13 09
  21209728.198     1287887.036 7   1459333.993 3
  20148892.089   -11530618.274 7  -8956311.299 3
  23430456.214    -6835166.493 6    373352.479 1
  20636828.440   -21714557.839 7 -16203398.449 2
  21701633.933   -15016104.844 6 -11622960.475 2
 90 10 22 12 29 59.9990000  0  5 02 06 15 13 09
  21212218.933     1300985.225 7   1469540.371 3
  20147163.198   -11539710.115 7  -8963395.852 3
  23432682.667    -6823464.704 6    382470.750 1
  20630594.940   -21747323.635 7 -16228930.230 2
  21693168.050   -15060589.704 6 -11657623.999 1
 90 10 22 12 30 14.9990000  0  5 02 06 15 13 09
  21214723.112     1314138.820 7   1479789.926 3
  20145457.323   -11548670.598 7  -8970378.055 3
  23434940.206    -6811613.811 6    391705.196 1
  20624385.479   -21779943.550 7 -16254348.339 2
  21684716.370   -15105005.454 6 -11692233.667 1
 90 10 22 12 30 29.9990000  0  5 02 06 15 13 09
  21217232.995     1327336.766 7   1490074.042 3
  20143775.347   -11557510.481 7  -8977266.276 3
  23437220.370    -6799624.865 6    401047.231 1
  20618204.862   -21812428.628 7 -16279661.379 2
  21676275.753   -15149362.681 6 -11726797.738 1
 90 10 22 12 30 44.9990000  0  5 02 06 15 13 09
  21219755.261     1340578.527 7   1500392.300 3
  20142116.112   -11566230.208 7  -8984060.874 3
  23439526.167    -6787498.468 6    410496.355 1
  20612048.222   -21844779.086 7 -16304869.519 2
  21667844.761   -15193661.605 6 -11761316.378 1
 90 10 22 12 30 59.9990000  0  5 02 06 15 13 09
  21222281.979     1353866.491 7   1510746.554 3
  20140479.745   -11574827.172 7  -8990759.806 3
  23441862.417    -6775232.517 6    420054.231 1
  20605918.909   -21876992.313 7 -16329970.732 2
  21659427.495   -15237899.607 6 -11795787.545 1
 90 10 22 12 31 14.9990000  0  5 02 06 15 13 09
  21224820.237     1367199.574 7   1521135.968 3
  20138867.269   -11583302.080 7  -8997363.625 3
  23444222.690    -6762828.307 6    429719.838 1
  20599813.386   -21909069.547 7 -16354965.973 2
  21651019.901   -15282077.328 6 -11830211.734 1
 90 10 22 12 31 29.9990000  0  5 02 06 15 13 09
  21227366.050     1380578.648 7   1531561.211 3
  20137277.612   -11591653.920 7  -9003871.552 3
  23446607.698    -6750284.817 6    439493.975 1
  20593737.190   -21941009.709 7 -16379854.404 2
  21642625.237   -15326193.798 6 -11864588.202 1
 90 10 22 12 31 44.9990000  0  5 02 06 15 13 09
  21229919.370     1394004.004 7   1542022.527 3
  20135711.698   -11599882.286 7  -9010283.272 3
  23449023.605    -6737601.485 6    449377.086 1
  20587684.401   -21972812.546 7 -16404635.829 2
  21634242.698   -15370248.248 6 -11898916.342 2
 90 10 22 12 31 59.9990000  0  5 02 06 15 13 09
  21232484.261     1407474.006 7   1552518.623 3
  20134168.667   -11607988.484 7  -9016599.799 3
  23451463.089    -6724780.550 6    459367.413 1
  20581658.378   -22004479.422 7 -16429311.312 2
  21625871.503   -15414242.006 6 -11933197.178 2
 90 10 22 12 32 14.9990000  0  5 02 06 15 13 09
  21235056.089     1420991.759 7   1563051.930 3
  20132650.104   -11615969.504 7  -9022818.779 3
  23453929.448    -6711819.132 6    469467.208 1
  20575659.558   -22036007.279 7 -16453878.464 2
  21617510.542   -15458171.857 6 -11967428.225 1
 90 10 22 12 32 29.9990000  0  5 02 06 15 13 09
  21237636.175     1434554.060 7   1573619.955 3
  20131154.894   -11623828.206 7  -9028942.447 3
  23456422.644    -6698720.524 6    479673.910 1
  20569685.276   -22067399.255 7 -16478339.741 2
  21609163.089   -15502040.543 6 -12001611.612 1
 90 10 22 12 32 44.9990000  0  5 02 06 15 13 09
  21240226.073     1448163.368 7   1584224.605 3
  20129683.589   -11631561.837 7  -9034968.655 3
  23458940.159    -6685482.125 6    489989.528 1
  20563738.839   -22098652.707 7 -16502693.077 2
  21600827.097   -15545845.257 6 -12035745.145 1
 90 10 22 12 32 59.9990000  0  5 02 06 15 13 09
  21242824.948     1461819.394 7   1594865.655 3
  20128236.604   -11639170.573 7  -9040897.541 3
  23461484.909    -6672104.416 6    500413.702 1
  20557816.815   -22129767.691 7 -16526938.516 2
  21592503.644   -15589586.049 6 -12069828.880 2
 90 10 22 12 33 14.9990000  0  5 02 06 15 13 09
  21245431.854     1475519.314 7   1605540.917 3
  20126810.933   -11646656.915 7  -9046731.064 3
  23464056.112    -6658590.561 6    510943.968 1
  20551922.347   -22160747.190 7 -16551078.380 2
  21584191.433   -15633265.354 6 -12103864.701 1
 90 10 22 12 33 29.9990000  0  5 02 06 15 13 09
  21248048.956     1489266.914 7
  20125410.769   -11654016.876 7  -9052466.104 3
  23466654.519    -6644936.487 6
  20546054.065   -22191587.236 7 -16575109.579 2
  21575892.433   -15676878.737 6 -12137849.152 2
 90 10 22 12 33 44.9990000  0  5 02 06 15 13 09
  21250674.401     1503062.844 7
  20124034.604   -11661249.689 7  -9058102.063 3
  23469278.354    -6631141.934 6
  20540211.308   -22222287.095 7 -16599031.540 2
  21567605.151   -15720425.817 6 -12171781.943 2
 90 10 22 12 33 59.9990000  0  5 02 06 15 13 09
  21253307.237     1516902.761 7   1637787.743 3
  20122680.925   -11668359.363 7  -9063642.078 3
  23471931.519    -6617211.280 6    543187.025 1
  20534396.058   -22252851.007 7 -16622847.571 2
  21559331.425   -15763910.221 6 -12205665.890 2
 90 10 22 12 34 14.9990000  0  5 02 06 15 13 09
  21255949.855     1530787.019 7   1648606.642 3
  20121352.081   -11675345.442 7  -9069085.780 3
  23474606.519    -6603144.317 6    554148.303 1
  20528604.487   -22283278.589 7 -16646557.375 2
  21551068.308   -15807331.357 6 -12239500.541 2
 90 10 22 12 34 29.9990000  0  5 02 06 15 13 09
  21258600.886     1544718.242 7   1659462.134 3
  20120047.136   -11682205.411 7  -9074431.216 3
  23477313.581    -6588938.938 6    565217.426 1
  20522840.854   -22313567.312 7 -16670158.970 2
  21542817.222   -15850686.568 6 -12273283.815 2
 90 10 22 12 34 44.9990000  0  5 02 06 15 13 09
  21261259.737     1558697.348 7   1670354.940 3
  20118765.097   -11688938.031 7  -9079677.417 3
  23480043.745    -6574593.908 6    576395.352 1
  20517105.065   -22343716.045 7 -16693651.486 2
  21534580.659   -15893974.354 6 -12307014.557 2
 90 10 22 12 34 59.9990000  0  5 02 06 15 13 09
  21263929.472     1572720.944 7   1681282.414 3
  20117507.589   -11695546.226 7  -9084826.665 3
  23482797.261    -6560113.142 6    587679.060 1
  20511392.792   -22373727.890 7 -16717037.333 2
  21526355.308   -15937197.712 6 -12340695.091 2
 90 10 22 12 35 14.9990000  0  5 02 06 15 13 09
  21266606.808     1586792.510 7   1692247.265 2
  20116274.284   -11702026.689 7  -9089876.381 3
  23485579.753    -6545493.123 6    599071.273 1
  20505709.394   -22403599.444 7 -16740313.862 2
  21518143.808   -15980353.243 6 -12374322.769 2
 90 10 22 12 35 29.9990000  0  5 02 06 15 13 09
  21269294.089     1600911.992 7   1703249.456 3
  20115065.276   -11708379.057 7  -9094826.282 3
  23488391.019    -6530734.005 6    610571.875 1
  20500050.722   -22433330.704 7 -16763481.071 2
  21509943.917   -16023440.460 6 -12407897.225 2
 90 10 22 12 35 44.9990000  0  5 02 06 15 13 09
  21271989.292     1615076.708 7   1714286.892 3
  20113879.753   -11714605.942 7  -9099678.405 3
  23491218.815    -6515838.657 6    622178.628 1
  20494419.753   -22462924.469 7 -16786541.146 2
  21501757.370   -16066461.521 6 -12441420.124 2
 90 10 22 12 35 59.9990000  0  5 02 06 15 13 09
  21274694.050     1629287.890 7   1725360.534 3
  20112720.855   -11720706.054 7  -9104431.741 3
  23494084.237    -6500805.928 6    633892.431 1
  20488813.354   -22492379.210 7 -16809492.882 2
  21493583.300   -16109415.277 6 -12474890.586 2
 90 10 22 12 36 14.9990000  0  5 02 06 15 13 09
  21277406.065     1643545.206 7   1736470.124 3
  20111584.261   -11726679.382 7  -9109086.289 2
  23496967.823    -6485636.564 6    645712.706 1
  20483235.479   -22521695.408 7 -16832336.665 2
  21485421.729   -16152301.546 6 -12508308.455 2
 90 10 22 12 36 29.9990000  0  5 02 06 15 13 09
  21280127.995     1657846.572 7   1747614.041 2
  20110470.729   -11732527.861 7  -9113643.549 3
  23499881.800    -6470332.504 6    657637.931 1
  20477683.378   -22550875.006 7 -16855074.008 2
  21477273.370   -16195122.040 6 -12541675.072 2
 90 10 22 12 36 44.9990000  0  5 02 06 15 13 09
  21282857.050     1672191.918 7   1758792.227 3
  20109380.925   -11738251.087 7  -9118103.203 3
  23502820.128    -6454893.732 6    669668.132 1
  20472156.503   -22579917.899 7 -16877704.825 2
  21469138.464   -16237876.365 6 -12574990.129 2
 90 10 22 12 36 59.9990000  0  5 02 06 15 13 09
  21285596.690     1686584.138 7   1770006.946 3
  20108316.597   -11743846.145 7  -9122462.991 2
  23505785.745    -6439317.764 6    681805.228 1
  20466655.940   -22608820.995 7 -16900226.716 2
  21461015.753   -16280561.425 6 -12608251.211 2
 90 10 22 12 37 14.9990000  0  5 02 06 15 13 09
  21288344.222     1701022.280 7   1781257.442 2
  20107276.964   -11749313.865 7  -9126723.551 3
  23508775.753    -6423605.517 6    694048.525 1
  20461182.159   -22637585.194 7 -16922640.372 2
  21452906.409   -16323177.779 7 -12641458.759 2
 90 10 22 12 37 29.9990000  0  5 02 06 15 13 09
  21291099.870     1715505.509 7   1792543.073 3
  20106259.690   -11754654.804 7  -9130885.325 2
  23511787.753    -6407758.139 6    706397.107 1
  20455734.776   -22666211.578 7 -16944946.642 2
  21444807.604   -16365726.026 6 -12674613.230 2
 90 10 22 12 37 44.9990000  0  5 02 06 15 13 09
  21293864.815     1730032.915 7   1803863.126 3
  20105267.878   -11759869.821 7  -9134948.982 3
  23514830.300    -6391776.979 6    718849.946 1
  20450313.604   -22694700.809 7 -16967146.040 2
  21436725.526   -16408206.865 7 -12707715.175 2
 90 10 22 12 37 59.9990000  0  5 02 06 15 13 09
  21296638.690     1744607.816 7   1815220.188 3
  20104299.394   -11764955.474 7  -9138911.831 3
  23517896.534    -6375658.443 6    731409.828 1
  20444919.323   -22723049.756 7 -16989236.125 2
  21428655.081   -16450616.512 6 -12740761.657 2
 90 10 22 12 38 14.9990000  0  5 02 06 15 13 09
  21299420.519     1759228.432 7   1826612.869 3
  20103356.003   -11769913.562 7  -9142775.280 2
  23520990.245    -6359405.014 5    744074.821 1
  20439550.214   -22751259.933 7 -17011218.074 2
  21420598.370   -16492956.618 6 -12773753.943 2
 90 10 22 12 38 29.9990000  0  5 02 06 15 13 09
  21302211.472     1773897.652 7   1838043.426 3
  20102439.058   -11774740.989 7  -9146536.914 3
  23524110.386    -6343013.687 6    756847.265 1
  20434210.229   -22779328.536 7 -17033089.707 2
  21412553.839   -16535224.030 6 -12806689.592 2
 90 10 22 12 38 44.9990000  0  5 02 06 15 13 09
  21305012.534     1788613.959 7   1849510.673 3
  20101543.269   -11779438.792 7  -9150197.546 3
  23527255.503    -6326485.917 6    769726.042 1
  20428894.995   -22807256.928 7 -17054852.085 2
  21404525.011   -16577419.694 6 -12839569.328 2
 90 10 22 12 38 59.9990000  0  5 02 06 15 13 09
  21307821.222     1803376.295 7   1861013.789 3
  20100674.519   -11784007.932 7  -9153757.921 3
  23530428.144    -6309823.293 6    782709.884 1
  20423607.292   -22835046.136 7 -17076506.007 2
  21396508.995   -16619544.447 6 -12872393.805 2
 90 10 22 12 39 14.9990000  0  5 02 06 15 13 09
  21310640.378     1818185.778 7   1872553.641 2
  20099829.034   -11788447.255 7  -9157217.138 3
  23533621.026    -6293024.602 6    795799.757 1
  20418344.948   -22862695.035 7 -17098050.599 2
  21388506.394   -16661596.807 7 -12905161.875 2
 90 10 22 12 39 29.9990000  0  5 02 06 15 13 09
  21313466.581     1833042.083 7   1884129.976 3
  20099009.972   -11792756.960 7  -9160575.353 2
  23536842.292    -6276090.360 6    808995.251 1
  20413111.612   -22890203.850 7 -17119486.033 2
  21380517.612   -16703576.817 7 -12937873.569 2
 90 10 22 12 39 44.9990000  0  5 02 06 15 13 09
  21316301.940     1847942.881 7   1895740.984 2
  20098213.011   -11796938.960 7  -9163834.052 3
  23540095.042    -6259023.012 6    822294.465 1
  20407902.831   -22917574.976 7 -17140814.181 2
  21372543.206   -16745486.638 7 -12970530.568 2
 90 10 22 12 39 59.9990000  0  5 02 06 15 13 09
  21319148.714     1862896.013 7   1907392.771 3
  20097442.003   -11800985.571 7  -9166987.260 3
  23543366.604    -6241815.081 6    835703.238 1
  20402721.792   -22944800.474 7 -17162028.847 2
  21364581.995   -16787317.964 7 -13003126.395 2
 90 10 22 12 40 14.9990000  0  5 02 06 15 13 09
  21322001.315     1877895.594 7   1919080.756 3
  20096698.815   -11804902.342 7  -9170039.291 2
  23546669.589    -6224472.814 6    849216.673 1
  20397566.401   -22971886.344 7 -17183134.708 2
  21356636.128   -16829076.306 7 -13035665.365 2
 90 10 22 12 40 29.9990000  0  5 02 06 15 13 09
  21324863.487     1892939.416 7   1930803.206 3
  20095976.433   -11808691.363 7  -9172991.780 2
  23549991.808    -6206998.147 6    862833.281 1
  20392438.151   -22998834.578 7 -17204133.328 2
  21348702.769   -16870763.767 7 -13068149.097 2
 90 10 22 12 40 44.9990000  0  5 02 06 15 13 09
  21327736.433     1908029.127 7   1942561.418 3
  20095280.261   -11812350.873 7  -9175843.348 3
  23553343.050    -6189389.658 6    876554.169 1
  20387336.519   -23025643.321 7 -17225023.253 2
  21340784.136   -16912378.055 7 -13100575.815 2
 90 10 22 12 40 59.9990000  0  5 02 06 15 13 09
  21330617.261     1923167.918 7   1954357.880 3
  20094608.597   -11815877.280 7  -9178591.197 2
  23556719.667    -6171644.273 5    890381.720 1
  20382262.401   -23052309.440 7 -17245802.039 2
  21332880.558   -16953915.660 7 -13132942.776 2
 90 10 22 12 41 14.9990000  0  5 02 06 15 13 09
  21333506.956     1938355.709 7   1966192.516 2
  20093962.769   -11819270.807 7  -9181235.508 3
  23560123.362    -6153762.601 5    904315.480 1
  20377216.183   -23078833.136 7 -17266469.850 2
  21324989.612   -16995376.758 7 -13165250.128 2
 90 10 22 12 41 29.9990000  0  5 02 06 15 13 09
  21336406.737     1953588.581 7   1978062.282 2
  20093340.948   -11822535.005 7  -9183779.041 3
  23563548.534    -6135748.435 5    918352.475 1
  20372194.925   -23105218.075 7 -17287029.540 2
  21317116.183   -17036764.658 7 -13197500.436 2
 90 10 22 12 41 44.9990000  0  5 02 06 15 13 09
  21339313.698     1968869.187 7   1989969.240 2
  20092745.870   -11825667.054 7  -9186219.601 2
  23567004.597    -6117599.416 5    932494.547 1
  20367200.120   -23131461.808 7 -17307479.194 2
  21309253.206   -17078076.383 7 -13229691.381 2
 90 10 22 12 41 59.9990000  0  5 02 06 15 13 09
  21342228.550     1984179.952 7   2001899.705 2
  20092172.636   -11828684.433 7  -9188570.809 3
  23570482.214    -6099333.248 5    946727.910 1
  20362230.519   -23157581.766 7 -17327832.401 2
  21301402.487   -17119329.094 7 -13261836.348 2
 90 10 22 12 42 14.9990000  0  5 02 06 15 13 09
  21345150.323     1999542.829 7   2013870.771 2
  20091624.503   -11831565.115 7  -9190815.497 3
  23573981.714    -6080928.309 5    961069.400 1
  20357287.003   -23183556.005 7 -17348072.060 2
  21293568.651   -17160500.566 7 -13293918.013 2
 90 10 22 12 42 29.9990000  0  5 02 06 15 13 09
  21348084.636     2014955.879 7   2025880.937 2
  20091101.440   -11834310.830 7  -9192955.020 3
  23577511.667    -6062386.803 5    975517.306 1
  20352371.636   -23209386.419 7 -17368199.650 2
  21285748.526   -17201592.682 7 -13325937.839 2
 90 10 22 12 42 44.9990000  0  5 02 06 15 13 09
  21351025.714     2030415.063 7   2037927.049 2
  20090605.354   -11836925.576 7  -9194992.488 3
  23581063.854    -6043712.581 5    990068.644 1
  20347483.386   -23235077.052 7 -17388218.320 2
  21277942.901   -17242608.990 7 -13357898.593 2
 90 10 22 12 42 59.9990000  0  5 02 06 15 13 09
  21353976.300     2045917.163 7   2050006.605 2
  20090131.222   -11839412.305 7  -9196930.205 2
  23584641.917    -6024909.145 5   1004720.654 1
  20342620.534   -23260631.159 7 -17408130.607 2
  21270152.386   -17283552.326 7 -13389802.486 2
 90 10 22 12 43 14.9990000  0  5 02 06 15 13 09
  21356933.815     2061469.001 7   2062124.912 2
  20089683.761   -11841764.101 7  -9198762.774 3
  23588248.448    -6005969.966 5   1019478.435 1
  20337785.597   -23286041.837 7 -17427931.123 2
  21262376.526   -17324415.595 7 -13421643.999 2
 90 10 22 12 43 29.9990000  0  5 02 06 15 13 09
  21359903.331     2077067.425 7   2074279.526 2
  20089260.769   -11843983.952 7  -9200492.528 2
  23591876.511    -5986898.411 5   1034339.366 1
  20332976.440   -23311312.337 7 -17447622.422 2
  21254614.761   -17365201.726 7 -13453425.400 2
 90 10 22 12 43 44.9990000  0  5 02 06 15 13 09
  21362880.112     2092712.459 7   2086470.452 2
  20088863.269   -11846071.872 7  -9202119.482 3
  23595530.175    -5967695.013 5   1049303.040 1
  20328192.300   -23336442.732 7 -17467204.539 2
  21246870.198   -17405910.437 7 -13485146.478 2
 90 10 22 12 43 59.9990000  0  5 02 06 15 13 09
  21365866.019     2108404.338 7   2098697.883 2
  20088491.136   -11848027.375 7  -9203643.252 2
  23599212.011    -5948359.165 5   1064369.920 1
  20323438.472   -23361432.745 7 -17486677.271 2
  21239136.472   -17446541.059 7 -13516806.702 2
 90 10 22 12 44 14.9990000  0  5 02 06 15 13 09
  21368861.190     2124146.009 7   2110964.113 2
  20088145.308   -11849847.272 7  -9205061.354 2
  23602918.253    -5928888.185 5   1079542.085 1
  20318710.433   -23386279.163 7 -17506038.109 2
  21231420.776   -17487090.282 7 -13548403.503 2
 90 10 22 12 44 29.9990000  0  5 02 06 15 13 09
  21371866.151     2139929.566 7   2123262.984 2
  20087822.940   -11851539.198 7  -9206379.740 2
  23606644.167    -5909290.361 5   1094813.105 1
  20314008.222   -23410989.761 7 -17525293.117 2
  21223717.362   -17527565.476 7 -13579942.615 2
 90 10 22 12 44 44.9990000  0  5 02 06 15 13 09
  21374877.675     2155759.670 7   2135598.121 2
  20087527.026   -11853098.699 7  -9207594.935 2
  23610400.597    -5889561.228 5   1110186.431 1
  20309332.917   -23435560.209 7 -17544438.916 2
  21216031.284   -17567961.990 7 -13611420.414 2
 90 10 22 12 44 59.9990000  0  5 02 06 15 13 09
  21377899.526     2171641.923 7   2147973.895 3
  20087257.519   -11854519.879 7  -9208702.353 2
  23614175.831    -5869695.339 5   1125666.322 1
  20304685.058   -23459984.691 7 -17563470.970 2
  21208360.355   -17608273.776 7 -13642832.196 2
 90 10 22 12 45 14.9990000  0  5 02 06 15 13 09
  21380930.823     2187569.501 7   2160384.985 2
  20087011.011   -11855809.227 7  -9209707.043 2
  23617985.894    -5849699.476 5   1141247.494 1
  20300063.448   -23484269.920 7 -17582394.521 2
  21200703.620   -17648507.156 7 -13674182.880 2
 90 10 22 12 45 29.9990000  0  5 02 06 15 13 09
  21383968.542     2203537.857 7   2172827.856 2
  20086789.558   -11856971.460 7  -9210612.686 3
  23621816.854    -5829578.839 5   1156925.905 1
  20295467.261   -23508420.662 7 -17601213.277 2
  21193061.269   -17688666.797 7 -13705476.110 2
 90 10 22 12 45 44.9990000  0  5 02 06 15 13 09
  21387017.081     2219549.901 7   2185304.764 2
  20086593.894   -11858003.510 7  -9211416.884 2
  23625666.378    -5809330.462 5   1172703.840 1
  20290897.323   -23532434.042 7 -17619924.993 2
  21185433.948   -17728749.302 7 -13736709.227 2
 90 10 22 12 45 59.9990000  0  5 02 06 15 13 09
  21390072.651     2235607.810 7   2197817.410 3
  20086421.597   -11858902.874 7  -9212117.691 2
  23629543.229    -5788952.635 5   1188582.660 1
  20286354.972   -23556307.942 7 -17638528.027 2
  21177822.448   -17768751.954 7 -13767880.128 2
 90 10 22 12 46 14.9990000  0  5 02 06 15 13 09
  21393137.612     2251718.839 7   2210371.448 2
  20086276.284   -11859662.416 7  -9212709.539 2
  23633447.472    -5768437.986 5   1204568.085 1
  20281839.667   -23580034.976 7 -17657016.618 2
  21170226.323   -17808667.413 7 -13798983.079 2
 90 10 22 12 46 29.9990000  0  5 02 06 15 13 09
  21396212.370     2267872.197 7   2222958.474 2
  20086157.745   -11860292.675 7  -9213200.657 2
  23637374.284    -5747797.717 5   1220651.386 1
  20277351.159   -23603626.021 7 -17675399.241 2
  21162645.495   -17848506.139 7 -13830026.243 2
 90 10 22 12 46 44.9990000  0  5 02 06 15 13 09
  21399295.409     2284072.715 7   2235582.245 2
  20086063.237   -11860788.723 7  -9213587.183 3
  23641329.323    -5727027.025 5   1236836.326 1
  20272888.604   -23627076.181 7 -17693672.090 2
  21155079.050   -17888262.900 7 -13861005.534 2
 90 10 22 12 46 59.9990000  0  5 02 06 15 13 09
  21402387.495     2300318.453 7   2248241.259 2
  20085992.948   -11861152.272 7  -9213870.468 3
  23645305.401    -5706128.279 5   1253121.039 1
  20268451.901   -23650387.183 7 -17711836.501 2
  21147530.019   -17927939.235 7 -13891922.155 2
 90 10 22 12 47 14.9990000  0  5 02 06 15 13 09
  21405486.354     2316609.478 7   2260935.556 2
  20085948.425   -11861383.072 7
  23649307.128    -5685101.210 5   1269505.750 1
  20264043.097   -23673559.187 7 -17729892.598 2
  21139995.183   -17967534.885 7 -13922775.909 2
 90 10 22 12 47 29.9990000  0  5 02 06 15 13 09
  21408595.925     2332948.943 7   2273667.605 2
  20085933.519   -11861478.052 7
  23653331.722    -5663943.338 5   1285992.391 1
  20259659.972   -23696589.063 7 -17747837.953 2
  21132475.878   -18007046.174 7 -13953563.923 2
 90 10 22 12 47 44.9990000  0  5 02 06 15 13 09
  21411712.753     2349335.366 7   2286436.238 2
  20085938.308   -11861438.538 7
  23657384.331    -5642656.395 5   1302579.603 1
  20255304.417   -23719478.409 7 -17765673.800 2
  21124972.925   -18046474.506 7 -13984287.298 2
 90 10 22 12 47 59.9990000  0  5 02 06 15 13 09
  21414841.323     2365768.428 7   2299241.217 2
  20085973.120   -11861264.657 7
  23661461.237    -5621240.491 5   1319267.307 1
  20250975.331   -23742227.386 7 -17783400.271 2
  21117486.378   -18085819.853 7 -14014946.012 2
 90 10 22 12 48 14.9990000  0  5 02 06 15 13 09
  21417976.753     2382249.516 7   2312083.614 2
  20086032.370   -11860954.941 7
  23665560.909    -5599694.242 5   1336056.571 1
  20246673.417   -23764834.581 7 -17801016.261 2
  21110014.581   -18125080.245 7 -14045538.521 2
 90 10 22 12 48 29.9990000  0  5 02 06 15 13 09
  21421122.987     2398774.429 7   2324960.165 2
  20086116.581   -11860513.393 7        -0.16713
  23669683.573    -5578022.619 5   1352943.535 1
  20242397.862   -23787304.392 7 -17818525.197 2
  21102558.925   -18164259.960 7 -14076068.171 2
 90 10 22 12 48 44.9990000  0  5 02 06 15 13 09
  21424275.948     2415347.169 7   2337873.977 2
  20086226.823   -11859935.886 7       449.834 3
  23673830.894    -5556221.631 5   1369931.293 1
  20238148.808   -23809632.654 7 -17835923.840 2
  21095119.206   -18203354.440 7 -14106531.403 2
 90 10 22 12 48 59.9990000  0  5 02 06 15 13 09
  21427437.901     2431966.871 7   2350824.391 2
  20086361.479   -11859223.205 7      1005.164 3
  23678006.433    -5534292.449 5   1387018.957 1
  20233926.456   -23831820.283 7 -17853212.894 2
  21087695.745   -18242364.215 7 -14136928.630 2
 90 10 22 12 49 14.9990000  0  5 02 06 15 13 09
  21430608.847     2448631.825 7   2363810.060 2
  20086522.190   -11858377.047 7      1664.507 2
  23682199.644    -5512237.299 5   1404204.762 1
  20229731.956   -23853869.240 7 -17870393.896 2
  21080288.511   -18281290.734 7 -14167260.978 2
 90 10 22 12 49 29.9990000  0  5 02 06 15 13 09
  21433789.651     2465342.992 7   2376831.745 3
  20086708.269   -11857396.181 7      2428.817 2
  23686426.472    -5490055.029 5   1421489.620 1
  20225561.362   -23875778.369 7 -17887465.937 2
  21072897.151   -18320132.627 7 -14197527.392 2
 90 10 22 12 49 44.9990000  0  5 02 06 15 13 09
  21436979.339     2482102.994 7   2389891.480 2
  20086921.886   -11856278.096 7      3300.040 2
  23690669.104    -5467743.689 5   1438875.073 1
  20221419.808   -23897545.134 7 -17904427.049 2
  21065523.151   -18358887.225 7 -14227725.779 2
 90 10 22 12 49 59.9990000  0  5 02 06 15 13 09
  21440177.011     2498910.689 7   2402988.379 2
  20087159.370   -11855023.755 7      4277.449 3
  23694940.315    -5445304.250 5   1456360.320 1
  20217304.854   -23919170.348 7 -17921277.860 2
  21058163.761   -18397555.076 7 -14257856.571 2
 90 10 22 12 50 14.9990000  0  5 02 06 15 13 09
  21443385.206     2515765.017 7   2416121.613 3
  20087425.581   -11853634.082 7      5360.305 2
  23699234.651    -5422737.946 5   1473944.439 1
  20213215.886   -23940655.588 7 -17938019.597 2
  21050822.409   -18436136.940 7 -14287920.359 2
 90 10 22 12 50 29.9990000  0  5 02 06 15 13 09
  21446600.636     2532663.936 7   2429289.594 2
  20087714.550   -11852111.095 7      6547.042 2
  23703551.183    -5400047.362 5   1491625.385 1
  20209153.901   -23962003.067 7 -17954653.994 2
  21043497.495   -18474634.874 7 -14317918.745 2
 90 10 22 12 50 44.9990000  0  5 02 06 15 13 09
  21449825.886     2549613.306 7   2442496.888 2
  20088031.472   -11850448.656 7      7842.444 3
  23707896.019    -5377226.751 5   1509407.645 1
  20205119.183   -23983206.656 7 -17971176.264 2
  21036188.019   -18513042.438 7 -14347846.715 2
 90 10 22 12 50 59.9990000  0  5 02 06 15 13 09
  21453060.050     2566611.858 7   2455742.502 3
  20088373.120   -11848648.064 7      9245.500 2
  23712261.940    -5354277.569 6   1527290.102 1
  20201111.394   -24004267.813 7 -17987587.551 2
  21028895.659   -18551360.498 7 -14377704.944 2
 90 10 22 12 51 14.9990000  0  5 02 06 15 13 09
  21456305.339     2583658.199 7   2469025.355 3
  20088742.190   -11846710.453 7     10755.323 3
  23716654.448    -5331201.354 6   1545271.554 1
  20197130.276   -24025187.946 7 -18003888.945 2
  21021621.198   -18589590.252 7 -14407494.363 2
 90 10 22 12 51 29.9990000  0  5 02 06 15 13 09
  21459557.534     2600753.589 7   2482346.430 2
  20089137.940   -11844634.750 7     12372.747 3
  23721066.050    -5307997.112 5   1563352.749 1
  20193176.354   -24045965.717 7 -18020079.411 2
  21014363.167   -18627730.183 7 -14437213.786 2
 90 10 22 12 51 44.9990000  0  5 02 06 15 13 09
  21462819.323     2617895.630 7   2495703.856 3
  20089558.183   -11842422.958 7     14096.220 2
  23725510.003    -5284667.521 6   1581531.628 1
  20189247.815   -24066603.301 7 -18036160.639 2
  21007122.925   -18665782.163 7 -14466864.678 2
 90 10 22 12 51 59.9990000  0  5 02 06 15 13 09
  21466090.495     2635085.445 7   2509098.509 2
  20090005.714   -11840073.933 7     15926.625 3
  23729968.323    -5261211.683 5   1599808.888 1
  20185348.714   -24087099.857 7 -18052131.978 2
  20999899.144   -18703744.881 7 -14496446.014 2
 90 10 22 12 52 14.9990000  0  5 02 06 15 13 09
  21469369.690     2652320.562 7   2522528.463 3
  20090478.214   -11837590.097 7     17862.079 3
  23734460.823    -5237632.233 6   1618182.454 1
  20181474.370   -24107457.702 7 -18067995.227 2
  20992691.628   -18741620.286 7 -14525959.312 2
 90 10 22 12 52 29.9990000  0  5 02 06 15 13 09
  21472658.519     2669596.384 7   2535990.130 2
  20090975.198   -11834975.960 7     19899.063 3
  23738966.604    -5213934.324 6   1636648.329 1
  20177625.479   -24127681.969 7 -18083754.390 2
  20985499.698   -18779413.076 7 -14555408.237 2
 90 10 22 12 52 44.9990000  0  6 02 12 06 15 13 09
  21475954.526     2686914.543 7   2549484.792 2
  24504859.909      -53572.128 3
  20091497.683   -11832229.791 7     22038.932 3
  23743500.409    -5190116.428 6   1655207.713 1
  20173804.425   -24147770.817 7 -18099408.034 2
  20978322.683   -18817120.942 7 -14584790.992 2
 90 10 22 12 52 59.9990000  0  6 02 12 06 15 13 09
  21479257.878     2704280.030 7   2563016.330 2
  24494671.401     -107148.014 3
  20092045.347   -11829346.479 7     24285.664 3
  23748054.776    -5166173.572 6   1673864.459 1
  20170006.315   -24167719.379 7 -18114952.363 2
  20971166.144   -18854738.828 7 -14614103.622 2
 90 10 22 12 53 14.9990000  0  6 02 12 06 15 13 09
  21482570.995     2721692.179 7   2576584.230 3
  24484470.206     -160728.989 3
  20092621.019   -11826326.540 7     26638.861 3
  23752636.354    -5142106.572 6   1692617.920 1
  20166237.972   -24187528.206 7 -18130387.807 2
  20964024.214   -18892266.831 7 -14643346.226 2
 90 10 22 12 53 29.9990000  0  6 02 12 06 15 13 09
  21485894.183     2739152.805 7   2590189.904 2
  24474279.386     -214312.990 4
  20093222.925   -11823168.284 7     29099.831 2
  23757240.120    -5117914.110 6   1711469.183 1
  20162494.128   -24207195.695 7 -18145713.118 2
  20956899.995   -18929702.929 7 -14672517.212 2
 90 10 22 12 53 44.9990000  0  6 02 12 06 15 13 09
  21489226.448     2756661.888 7   2603833.333 2
  24464081.823     -267899.895 4
  20093848.425   -11819871.459 7     31668.782 3
  23761865.901    -5093596.538 6   1730417.912 1
  20158779.253   -24226721.961 7 -18160928.383 2
  20949793.620   -18967047.024 7 -14701616.502 2
 90 10 22 12 53 59.9990000  0  6 02 12 06 15 13 09
  21492566.862     2774218.185 7   2617513.555 2
  24453878.581     -321490.704 4        -0.30111
  20094503.573   -11816437.372 7     34344.689 3
  23766518.378    -5069155.309 6   1749462.997 1
  20155089.589   -24246108.009 7 -18176034.390 2
  20942705.589   -19004299.710 7 -14730644.564 2
 90 10 22 12 54 14.9990000  0  6 02 12 06 15 13 09
  21495916.245     2791820.944 7   2631229.980 2
  24443683.401     -375085.815 5    -41762.696 1
  20095182.315   -11812866.502 7     37127.184 3
  23771190.620    -5044591.538 5   1768603.578 1
  20151427.440   -24265354.725 7 -18191031.825 2
  20935633.394   -19041461.484 7 -14759601.790 2
 90 10 22 12 54 29.9990000  0  6 02 12 06 15 13 09
  21499275.737     2809474.331 7   2644985.859 2
  24433485.300     -428681.044 5    -83525.214 1
  20095889.050   -11809154.669 7     40019.520 3
  23775891.269    -5019900.933 6   1787842.989 1
  20147792.448   -24284458.150 7 -18205917.606 2
  20928578.729   -19078527.992 7 -14788484.780 2
 90 10 22 12 54 44.9990000  0  6 02 12 06 15 13 09
  21502643.769     2827176.322 7   2658779.607 2
  24423282.940     -482278.151 5   -125289.213 1
  20096622.026   -11805303.716 7     43020.260 3
  23780614.987    -4995086.131 5   1807179.169 1
  20144183.870   -24303420.243 7 -18220693.257 2
  20921544.401   -19115500.773 7 -14817294.734 2
 90 10 22 12 54 59.9990000  0  6 02 12 06 15 13 09
  21506023.323     2844928.313 7   2672612.318 2
  24413085.862     -535875.464 5   -167053.340 1
  20097381.276   -11801312.235 7     46130.503 3
  23785360.823    -4970145.610 5   1826613.316 1
  20140603.456   -24322239.600 7 -18235357.687 2
  20914527.128   -19152378.160 7 -14846030.352 2
 90 10 22 12 55 14.9990000  0  6 02 12 06 15 13 09
  21509408.847     2862725.208 7   2686480.023 2
  24402885.995     -589477.947 5   -208821.516 1
  20098165.558   -11797185.172 7     49346.389 3
  23790127.456    -4945084.964 5   1846141.080 1
  20137048.620   -24340921.374 7 -18249914.907 2
  20907526.081   -19189165.015 7 -14874695.430 2
 90 10 22 12 55 29.9990000  0  6 02 12 06 15 13 09
  21512804.269     2880567.412 7   2700383.029 2
  24392686.347     -643084.890 5   -250593.160 1
  20098978.417   -11792922.079 7     52668.280 3
  23794918.362    -4919904.043 5   1865762.555 1
  20133518.769   -24359465.174 7 -18264364.617 2
  20900542.409   -19225860.543 7 -14903289.342 2
 90 10 22 12 55 44.9990000  0  6 02 12 06 15 13 09
  21516208.925     2898458.054 7   2714323.782 2
  24382478.612     -696693.129 4   -292365.809 1
  20099815.979   -11788520.040 7     56098.440 3
  23799738.815    -4894599.770 5   1885480.144 1
  20130016.800   -24377868.132 7 -18278704.580 2
  20893578.331   -19262461.473 7 -14931809.542 2
 90 10 22 12 55 59.9990000  0  6 02 12 06 15 13 09
  21519621.698     2916396.870 7   2728302.072 2
  24372283.784     -750302.821 4   -334139.582 1
  20100680.183   -11783979.221 7     59636.738 3
  23804573.784    -4869173.021 5   1905293.171 1
  20126542.081   -24396130.854 7 -18292935.268 2
  20886632.190   -19298967.736 7 -14960255.979 2
 90 10 22 12 56 14.9990000  0  6 02 12 06 15 13 09
  21523046.433     2934384.792 7   2742318.628 2
  24362078.237     -803912.537 5   -375913.387 1
  20101570.058   -11779298.290 7     63284.215 3
  23809438.472    -4843622.877 5   1925202.352 1
  20123093.479   -24414252.066 7 -18307055.686 2
  20879702.815   -19335377.878 7 -14988627.516 2
 90 10 22 12 56 29.9990000  0  6 02 12 06 15 13 09
  21526477.808     2952421.058 7   2756372.852 2
  24351875.675     -857522.752 5
  20102488.120   -11774477.983 7     67040.294 3
  23814317.862    -4817950.257 5   1945206.958 1
  20119672.456   -24432232.480 7 -18321066.393 2
  20872792.604   -19371692.234 7 -15016924.411 2
 90 10 22 12 56 44.9990000  0  6 02 12 06 15 13 09
  21529919.190     2970507.776 7   2770466.386 2
  24341676.081     -911131.251 4
  20103432.026   -11769516.147 7     70906.657 3
  23819233.940    -4792153.680 5   1965308.150 1
  20116276.948   -24450070.078 7 -18334965.819 2
  20865900.526   -19407908.579 7 -15045144.936 2
 90 10 22 12 56 59.9990000  0  6 02 12 06 15 13 09
  21533370.190     2988641.882 7   2784596.849 2
  24331474.276     -964740.993 5
  20104402.237   -11764415.920 7     74880.855 3
  23824158.901    -4766236.347 5   1985503.459 1
  20112909.401   -24467768.082 7 -18348756.464 2
  20859027.276   -19444029.575 7 -15073291.161 2
 90 10 22 12 57 14.9990000  0  6 02 12 06 15 13 09
  21536831.042     3006824.924 7   2798765.442 2
  24321271.839    -1018350.183 5        -0.19111
  20105400.722   -11759175.612 7     78964.211 3
  23829120.370    -4740196.738 5   2005794.016 1
  20109568.487   -24485325.272 7 -18362437.384 2
  20852171.737   -19480053.461 7 -15101361.715 2
 90 10 22 12 57 29.9990000  0  6 02 12 06 15 13 09
  21540300.073     3025057.066 7   2812972.293 2
  24311075.175    -1071958.614 5    -41773.090 1
  20106422.933   -11753795.102 7     83156.812 3
  23834096.948    -4714034.982 5   2026179.781 1
  20106254.401   -24502741.580 7 -18376008.533 2
  20845335.526   -19515980.076 7 -15129356.478 2
 90 10 22 12 57 44.9990000  0  6 02 12 06 15 13 09
  21543778.745     3043335.542 7   2827215.251 2
  24300869.089    -1125568.755 5    -83547.212 1
  20107472.940   -11748276.976 7     87456.647 3
  23839097.089    -4687754.251 5   2046658.234 1
  20102966.542   -24520019.710 7 -18389472.002 2
  20838516.347   -19551811.374 7 -15157276.968 2
 90 10 22 12 57 59.9990000  0  6 02 12 06 15 13 09
  21547266.261     3061662.826 7   2841496.242 2
  24290669.628    -1179177.853 5   -125320.520 1
  20108550.097   -11742618.739 7     91865.663 3
  23844120.683    -4661352.412 5   2067231.068 1
  20099705.894   -24537157.296 7 -18402825.962 2
  20831718.159   -19587544.758 7 -15185121.158 2
 90 10 22 12 58 14.9990000  0  6 02 12 06 15 13 09
  21550762.940     3080038.387 7   2855814.851 2
  24280466.081    -1232786.283 4   -167093.328 1
  20109653.776   -11736820.979 7     96383.396 3
  23849167.214    -4634830.463 5   2087897.486 1
  20096470.269   -24554154.964 7 -18416070.891 2
  20824935.729   -19623180.623 7 -15212889.367 2
 90 10 22 12 58 29.9990000  0  6 02 12 06 15 13 09
  21554268.784     3098461.048 7   2870170.161 2
  24270263.261    -1286394.932 4   -208866.305 1
  20110783.339   -11730884.495 7    101009.218 3
  23854239.987    -4608189.576 5   2108656.599 1
  20093261.675   -24571013.883 7 -18429207.708 2
  20818173.417   -19658719.562 7 -15240582.043 2
 90 10 22 12 58 44.9990000  0  6 02 12 06 15 13 09
  21557782.550     3116932.716 7   2884563.655 2
  24260066.222    -1340001.761 4   -250637.845 1
  20111940.511   -11724807.671 7    105744.399 3
  23859327.901    -4581428.002 5   2129509.738 1
  20090080.894   -24587732.328 7 -18442235.061 2
  20811429.526   -19694159.454 7 -15268197.540 2
 90 10 22 12 58 59.9990000  0  6 02 12 06 15 13 09
  21561308.636     3135453.344 7   2898995.306 2
  24249864.479    -1393606.564 4   -292407.807 1
  20113122.354   -11718590.181 7    110589.196 3
  23864448.979    -4554546.051 5   2150456.684 1
  20086926.862   -24604310.229 7 -18455152.904 2
  20804703.823   -19729499.883 7 -15295735.540 2
 90 10 22 12 59 14.9990000  0  6 02 12 06 15 13 09
  21564841.878     3154024.682 7   2913466.463 2
  24239666.222    -1447207.518 4   -334174.778 1
  20114332.183   -11712230.442 7    115544.834 3
  23869581.519    -4527542.243 5   2171498.581 1
  20083799.737   -24620746.130 7 -18467960.093 2
  20797997.519   -19764738.917 7 -15323194.526 2
 90 10 22 12 59 29.9990000  0  6 02 12 06 15 13 09
  21568384.331     3172643.989 7   2927975.004 2
  24229466.573    -1500806.983 4   -375940.604 1
  20115569.729   -11705731.025 7    120609.309 3
  23874746.901    -4500419.732 5   2192632.967 1
  20080696.784   -24637042.652 7 -18480658.675 2
  20791311.401   -19799879.011 7 -15350576.417 2
 90 10 22 12 59 44.9990000  0  6 02 12 06 15 13 09
  21571937.120     3191311.869 7   2942521.394 2
  24219268.331    -1554404.170 4   -417704.687 1
  20116833.636   -11699091.412 7    125783.023 3
  23879929.706    -4473178.237 5   2213860.070 1
  20077622.800   -24653199.313 7 -18493248.280 2
  20784643.565   -19834919.363 7 -15377880.588 2
 90 10 22 12 59 59.9990000  0  6 02 12 06 15 13 09
  21575498.808     3210029.036 7   2957106.187 2
  24209070.370    -1607998.070 4   -459466.122 1
  20118123.995   -11692310.493 7    131066.850 3
  23885138.206    -4445817.243 5   2235180.289 1
  20074575.901   -24669215.468 7 -18505728.394 2
  20777994.284   -19869858.421 7 -15405105.824 2
 90 10 22 13  0 14.9990000  0  6 02 12 06 15 13 09
  21579070.261     3228794.921 7   2971728.942 2
  24198871.417    -1661589.174 4   -501225.401 1
  20119441.433   -11685389.075 7    136460.158 3
  23890364.472    -4418337.604 5   2256592.968 1
  20071554.206   -24685092.096 7 -18518099.788 2
  20771365.276   -19904696.830 7 -15432252.633 2
 90 10 22 13  0 29.9990000  0  6 02 12 06 15 13 09
  21582650.425     3247608.118 7   2986388.559 2
  24188675.729    -1715178.551 4   -542983.403 1
  20120784.331   -11678328.472 7    141961.922 3
  23895614.800    -4390741.007 5   2278096.766 1
  20068559.183   -24700830.447 7 -18530363.432 2
  20764754.604   -19939435.785 7 -15459321.946 2
 90 10 22 13  0 44.9990000  0  6 02 12 06 15 13 09
  21586239.323     3266470.453 7   3001086.471 2
  24178473.050    -1768764.283 4   -584738.538 1
  20122154.839   -11671126.778 7    147573.617 3
  23900892.479    -4363025.907 5   2299692.924 1
  20065591.745   -24716428.981 7 -18542518.129 2
  20758163.190   -19974073.089 7 -15486312.050 2
 90 10 22 13  0 59.9990000  0  6 02 12 06 15 13 09
  21589838.167     3285381.065 7   3015821.997 2
  24168280.440    -1822347.051 4   -626491.322 1
  20123552.308   -11663784.971 7    153294.501 3
  23906184.378    -4335193.633 5   2321380.376 1
  20062648.019   -24731888.490 7 -18554564.498 2
  20751591.417   -20008609.117 7 -15513223.243 2
 90 10 22 13  1 14.9990000  0  6 02 12 06 15 13 09
  21593446.065     3304342.367 7   3030597.021 2
  24158086.487    -1875924.025 4   -668239.606 1
  20124976.370   -11656300.454 7    159126.590 3
  23911508.003    -4307241.763 5   2343161.007 1
  20059734.003   -24747206.550 7 -18566500.639 2
  20745039.401   -20043041.246 7 -15540053.472 2
 90 10 22 13  1 29.9990000  0  6 02 12 06 15 13 09
  21597063.315     3323349.418 7   3045407.700 2
  24147887.409    -1929499.905 4   -709987.064 1
  20126426.620   -11648678.020 7    165066.149 3
  23916847.042    -4279175.616 5   2365030.710 1
  20056845.417   -24762388.225 7 -18578330.513 2
  20738505.878   -20077374.211 7 -15566806.433 2
 90 10 22 13  1 44.9990000  0  6 02 12 06 15 13 09
  21600689.753     3342406.996 7   3060257.747 2
  24137694.261    -1983069.849 3   -751729.849 1
  20127904.245   -11640913.015 7    171116.797 3
  23922213.737    -4250990.759 5   2386992.881 1
  20053982.690   -24777428.959 7 -18590050.565 2
  20731992.315   -20111602.840 7 -15593478.089 2
 90 10 22 13  1 59.9990000  0  6 02 12 06 15 13 09
  21604325.839     3361512.675 7   3075145.279 2
  24127499.776    -2036636.078 3   -793469.763 1
  20129408.690   -11633007.911 7    177276.607 3
  23927594.425    -4222689.564 5   2409045.728 1
  20051148.222   -24792331.166 7 -18601662.667 2
  20725497.745   -20145729.174 7 -15620070.038 2
 90 10 22 13  2 14.9990000  0  6 02 12 06 15 13 09
  21607968.933     3380662.789 7   3090067.424 2
  24117304.448    -2090201.949 3   -835209.394 1
  20130938.948   -11624966.252 7    183542.836 3
  23933003.003    -4194276.107 5   2431186.030 1
  20048336.331   -24807098.786 7 -18613169.898 2
  20719023.628   -20179756.705 7 -15646584.990 2
 90 10 22 13  2 29.9990000  0  6 02 12 06 15 13 09
  21611624.612     3399867.361 7   3105032.010 2
  24107116.604    -2143756.979 3   -876940.585 1
  20132496.823   -11616777.634 7    189923.572 3
  23938432.690    -4165740.565 5   2453421.482 1
  20045553.698   -24821721.679 7 -18624564.360 2
  20712567.769   -20213674.754 7 -15673014.639 2
 90 10 22 13  2 44.9990000  0  6 02 12 06 15 13 09
  21615288.886     3419121.777 7   3120035.432 2
  24096926.784    -2197305.739 3   -918666.875 1
  20134082.425   -11608446.810 7    196415.115 3
  23943884.159    -4137088.098 5   2475748.037 1
  20042798.112   -24836204.603 7 -18635849.747 2
  20706133.800   -20247487.810 7 -15699362.476 2
 90 10 22 13  2 59.9990000  0  6 02 12 06 15 13 09
  21618960.886     3438423.467 7   3135075.695 2
  24086733.331    -2250850.715 4   -960390.217 1
  20135694.315   -11599976.591 7    203015.282 3
  23949360.519    -4108321.781 5   2498163.306 1
  20040068.081   -24850550.526 7 -18647028.387 2
  20699718.729   -20281198.373 7 -15725630.445 2
 90 10 22 13  3 14.9990000  0  6 02 12 06 15 13 09
  21622644.347     3457776.440 7   3150155.915 2
  24076549.159    -2304387.837 4  -1002107.452 1
  20137333.300   -11591362.774 7    209727.345 3
  23954853.706    -4079437.545 5   2520670.468 1
  20037365.065   -24864755.348 7 -18658097.074 2
  20693324.120   -20314801.866 7 -15751814.984 2
 90 10 22 13  3 29.9990000  0  6 02 12 06 15 13 09
  21626336.495     3477178.539 7   3165274.415 2
  24066360.425    -2357918.885 4  -1043819.981 1
  20138999.323   -11582607.494 7    216549.637 3
  23960375.550    -4050437.962 5   2543267.491 1
  20034687.292   -24878821.362 7 -18669057.597 2
  20686950.737   -20348300.201 7 -15777917.578 2
 90 10 22 13  3 44.9990000  0  6 02 12 06 15 13 09
  21630037.269     3496630.878 7   3180432.060 2
  24056174.519    -2411442.546 4  -1085526.719 1
  20140692.979   -11573709.780 7    223482.912 3
  23965915.425    -4021322.290 5   2565954.974 1
  20032038.730   -24892747.578 7 -18679909.193 2
  20680595.651   -20381692.210 7 -15803937.328 2
 90 10 22 13  3 59.9990000  0  6 02 12 06 15 13 09
  21633750.237     3516140.360 7   3195634.239 2
  24045992.769    -2464951.461 4  -1127221.964 1
  20142414.214   -11564662.359 7    230532.844 3
  23971480.683    -3992083.826 5   2588738.165 1
  20029416.925   -24906527.138 7 -18690646.508 2
  20674263.323   -20414970.342 7 -15829868.339 2
 90 10 22 13  4 14.9990000  0  6 02 12 06 15 13 09
  21637473.495     3535706.074 7   3210880.236 2
  24035812.589    -2518446.227 4  -1168906.214 1
  20144164.612   -11555466.207 7    237698.672 3
  23977065.878    -3962723.620 5   2611616.200 1
  20026821.144   -24920160.966 7 -18701270.262 2
  20667952.229   -20448135.127 7 -15855711.031 2
 90 10 22 13  4 29.9990000  0  6 02 12 06 15 13 09
  21641205.065     3555317.879 7   3226162.143 2
  24025634.550    -2571936.938 4  -1210587.281 1
  20145939.995   -11546131.502 7    244972.469 3
  23982674.651    -3933252.044 5   2634581.016 1
  20024253.659   -24933659.327 7 -18711788.464 2
  20661660.292   -20481196.622 7 -15881473.230 2
 90 10 22 13  4 44.9990000  0  6 02 12 06 15 13 09
  21644946.800     3574979.430 7   3241482.819 2
  24015459.034    -2625419.761 4  -1252262.185 1
  20147745.237   -11536654.568 7    252357.097 3
  23988305.667    -3903666.108 5   2657634.984 1
  20021711.526   -24947018.844 7 -18722198.475 2
  20655389.050   -20514150.892 7 -15907151.877 2
 90 10 22 13  4 59.9990000  0  6 02 12 06 15 13 09
  21648697.323     3594689.791 7   3256841.522 2
  24005281.698    -2678895.491 4  -1293931.582 1
  20149574.737   -11527036.366 7    259851.798 3
  23993952.183    -3873967.010 5   2680777.102 1
  20019195.651   -24960240.655 7 -18732501.178 2
  20649139.636   -20546998.376 7 -15932747.321 2
 90 10 22 13  5 14.9990000  0  6 02 12 06 15 13 09
  21652457.300     3614450.255 7   3272239.273 2
  23995109.089    -2732362.448 4  -1335594.134 1
  20151431.698   -11517275.545 7    267457.633 3
  23999630.034    -3844153.265 5   2704008.533 1
  20016704.550   -24973323.402 7 -18742695.523 2
  20642910.003   -20579737.587 7 -15958258.389 2
 90 10 22 13  5 29.9990000  0  6 02 12 06 15 13 09
  21656228.136     3634258.143 7   3287673.975 2
  23984933.206    -2785823.009 5  -1377251.698 1
  20153315.144   -11507374.640 7    275172.622 3
  24005321.878    -3814228.146 5   2727326.782 1
  20014242.620   -24986269.782 7 -18752783.605 2
  20636699.417   -20612370.924 7 -15983686.961 2
 90 10 22 13  5 44.9990000  0  6 02 12 06 15 13 09
  21660006.604     3654119.710 7   3303150.507 2
  23974762.815    -2839270.832 5  -1418899.375 1
  20155227.894   -11497327.640 7    283001.451 3
  24011042.573    -3784185.755 5   2750736.405 1
  20011805.284   -24999073.842 7 -18762760.789 2
  20630509.706   -20644891.946 7 -16009028.012 2
 90 10 22 13  5 59.9990000  0  6 02 12 06 15 13 09
  21663796.269     3674029.289 7   3318664.448 2
  23964593.729    -2892711.317 5  -1460541.291 1
  20157166.730   -11487140.039 7    290939.840 3
  24016776.354    -3754031.955 5   2774232.812 1
  20009394.378   -25011741.342 7 -18772631.568 2
  20624341.808   -20677305.658 7 -16034285.450 2
 90 10 22 13  6 14.9990000  0  6 02 12 06 15 13 09
  21667594.003     3693986.576 7   3334215.561 2
  23954428.175    -2946144.534 5  -1502177.564 1
  20159131.440   -11476812.038 7    298987.627 3
  24022539.769    -3723767.679 5   2797815.299 1
  20007010.104   -25024272.756 7 -18782396.304 2
  20618194.417   -20709612.218 7 -16059459.394 2
 90 10 22 13  6 29.9990000  0  6 02 12 06 15 13 09
  21671400.011     3713996.210 7   3349807.467 2
  23944260.464    -2999565.757 5  -1543804.503 1
  20161124.925   -11466339.159 7    307148.310 3
  24028317.823    -3693388.255 5   2821487.559 1
  20004652.112   -25036663.611 7 -18792051.514 2
  20612068.808   -20741806.755 7 -16084546.044 2
 90 10 22 13  6 44.9990000  0  6 02 12 06 15 13 09
  21675219.042     3734059.546 7   3365441.214 2
  23934098.519    -3052973.218 5  -1585420.688 1
  20163146.940   -11455720.048 7    315422.938 3
  24034121.565    -3662892.734 5   2845250.262 1
  20002321.136   -25048912.659 7 -18801596.219 2
  20605962.964   -20773887.736 7 -16109544.211 2
 90 10 22 13  6 59.9990000  0  6 02 12 06 15 13 09
  21679044.495     3754167.237 7   3381109.530 2
  23923934.940    -3106376.216 5  -1627033.388 1
  20165192.550   -11444964.167 7    323804.138 3
  24039944.065    -3632290.906 5   2869095.801 1
  20000014.862   -25061029.420 7 -18811037.848 2
  20599878.269   -20805864.168 7 -16134460.911 2
 90 10 22 13  7 14.9990000  0  6 02 12 06 15 13 09
  21682880.542     3774322.726 7   3396815.085 2
  23913774.722    -3159770.876 5  -1668639.601 1
  20167266.464   -11434067.804 7    332294.804 3
  24045788.222    -3601579.631 5   2893026.623 1
  19997735.909   -25073010.540 7 -18820373.785 2
  20593813.206   -20837732.184 7 -16159293.129 2
 90 10 22 13  7 29.9990000  0  6 02 12 06 15 13 09
  21686725.503     3794529.582 6   3412560.670 2
  23903614.948    -3213153.374 5  -1710236.370 1
  20169366.487   -11423027.398 7    340897.709 3
  24051655.823    -3570755.506 5   2917045.392 1
  19995482.550   -25084852.664 7 -18829601.409 2
  20587771.112   -20869487.868 7 -16184037.816 2
 90 10 22 13  7 44.9990000  0  6 02 12 06 15 13 09
  21690579.425     3814787.800 6   3428346.277 2
  23893463.120    -3266523.537 5  -1751823.496 1
  20171495.409   -11411842.976 7    349612.839 3
  24057541.050    -3539818.768 5   2941151.905 1
  19993255.776   -25096555.824 7 -18838720.753 2
  20581749.636   -20901130.987 7 -16208694.792 2
 90 10 22 13  7 59.9990000  0  6 02 12 06 15 13 09
  21694445.979     3835098.640 7   3444172.887 2
  23883307.667    -3319879.883 5  -1793399.881 1
  20173651.050   -11400513.345 7    358441.117 3
  24063450.933    -3508768.500 5   2965346.870 1
  19991054.729   -25108118.803 7 -18847730.861 2
  20575749.276   -20932659.846 7 -16233262.728 2
 90 10 22 13  8 14.9990000  0  6 02 12 06 15 13 09
  21698321.175     3855459.499 6   3460038.469 2
  23873153.808    -3373224.640 5  -1834967.223 1
  20175834.128   -11389040.886 7    367380.686 3
  24069380.315    -3477607.651 5   2989628.024 1
  19988880.534   -25119544.208 7 -18856633.773 2
  20569771.128   -20964076.822 7 -16257743.489 2
 90 10 22 13  8 29.9990000  0  6 02 12 06 15 13 09
  21702203.511     3875868.436 6   3475941.517 2
  23863003.745    -3426559.561 5  -1876526.891 1
  20178045.003   -11377427.602 7    376429.987 3
  24075332.479    -3446337.975 5   3013993.958 1
  19986732.526   -25130834.155 7 -18865431.127 2
  20563813.659   -20995383.357 7 -16282138.187 2
 90 10 22 13  8 44.9990000  0  6 02 12 06 15 13 09
  21706096.604     3896320.862 7   3491878.454 2
  23852858.120    -3479889.140 5  -1918082.388 1
  20180280.065   -11365678.128 7    385585.412 3
  24081301.472    -3414965.019 5   3038440.373 1
  19984609.167   -25141993.412 7 -18874126.651 2
  20557876.815   -21026584.057 7 -16306450.420 2
 90 10 22 13  8 59.9990000  0  6 02 12 06 15 13 09
  21709998.581     3916824.025 6   3507854.923 2
  23842713.339    -3533206.014 5  -1959628.001 1
  20182542.651   -11353785.529 7    394852.368 3
  24087291.659    -3383481.872 5   3062972.671 1
  19982510.839   -25153015.274 7 -18882715.109 2
  20551960.683   -21057671.378 7 -16330674.307 2
 90 10 22 13  9 14.9990000  0  6 02 12 06 15 13 09
  21713910.229     3937379.061 6   3523871.816 2
  23832564.636    -3586508.715 5  -2001162.575 1
  20184833.581   -11341748.492 7    404231.872 3
  24093307.222    -3351887.644 5   3087591.501 1
  19980439.722   -25163898.573 7 -18891195.602 2
  20546067.425   -21088643.913 7 -16354808.745 2
 90 10 22 13  9 29.9990000  0  6 02 12 06 15 13 09
  21717830.808     3957982.699 6   3539926.577 2
  23822427.933    -3639800.176 5  -2042688.384 1
  20187149.550   -11329570.193 7    413721.445 3
  24099337.909    -3320185.545 5   3112294.413 1
  19978395.167   -25174646.557 7 -18899570.645 2
  20540194.956   -21119504.528 7 -16378855.978 2
 90 10 22 13  9 44.9990000  0  6 02 12 06 15 13 09
  21721760.097     3978635.513 6   3556019.661 2
  23812289.698    -3693079.669 5  -2084204.868 1
  20189495.284   -11317250.063 7    423321.537 3
  24105390.315    -3288375.530 5   3137081.372 1
  19976376.526   -25185258.829 7 -18907839.945 2
  20534343.151   -21150252.244 7 -16402815.236 2
 90 10 22 13  9 59.9990000  0  6 02 12 06 15 13 09
  21725699.519     3999336.788 6   3572150.502 2
  23802152.925    -3746347.572 5  -2125712.315 1
  20191866.683   -11304788.901 7    433031.526 3
  24111465.448    -3256458.349 5   3161951.870 1
  19974381.394   -25195736.176 7 -18916004.105 2
  20528514.175   -21180887.530 7 -16426686.888 2
 90 10 22 13 10 14.9990000  0  6 02 12 06 15 13 09
  21729650.011     4020089.487 6   3588321.412 2
  23792018.214    -3799600.722 5  -2167208.275 1
  20194265.151   -11292183.769 7    442853.701 3
  24117559.315    -3224431.625 5   3186907.701 1
  19972413.464   -25206075.997 7 -18924061.108 2
  20522706.284   -21211407.383 7 -16450468.588 2
 90 10 22 13 10 29.9990000  0  6 02 12 06 15 13 09
  21733607.917     4040892.128 6   3604531.246 2
  23781886.659    -3852840.124 5  -2208693.506 1
  20196691.565   -11279435.849 7    452787.133 3
  24123674.589    -3192297.185 5   3211947.510 1
  19970472.448   -25216279.673 7 -18932012.020 2
  20516920.894   -21241812.601 7 -16474160.968 2
 90 10 22 13 10 44.9990000  0  6 02 12 06 15 13 09
  21737575.003     4061742.792 6   3620778.490 2
  23771757.620    -3906067.749 5  -2250169.584 1
  20199144.980   -11266547.622 7    462829.903 3
  24129809.065    -3160057.277 5   3237069.481 1
  19968556.237   -25226349.650 7 -18939858.752 2
  20511155.792   -21272104.980 7 -16497765.420 2
 90 10 22 13 10 59.9990000  0  6 02 12 06 15 13 09
  21741551.378     4082642.941 6   3637064.300 2
  23761633.479    -3959281.779 5  -2291635.055 1
  20201624.612   -11253517.176 7    472983.485 3
  24135964.323    -3127710.842 5   3262274.428 1
  19966665.409   -25236284.522 7 -18947600.206 2
  20505412.831   -21302282.694 7 -16521280.523 2
 90 10 22 13 11 14.9990000  0  6 02 12 06 15 13 09
  21745538.112     4103590.747 6   3653387.242 2
  23751508.386    -4012483.856 5  -2333091.217 1
  20204131.097   -11240346.601 7    483246.259 3
  24142142.604    -3095259.793 5   3287560.917 1
  19964800.464   -25246086.124 7 -18955237.814 2
  20499691.831   -21332347.401 7 -16544707.565 2
 90 10 22 13 11 29.9990000  0  6 02 12 06 15 13 09
  21749534.870     4124588.889 6   3669749.408 2
  23741385.245    -4065671.020 4  -2374535.728 1
  20206663.722   -11227033.092 7    493620.416 3
  24148334.175    -3062701.628 5   3312930.866 1
  19962960.409   -25255751.783 7 -18962769.493 2
  20493992.769   -21362296.017 7 -16568044.148 3
 90 10 22 13 11 44.9990000  0  6 02 12 06 15 13 09
  21753538.612     4145636.297 6   3686149.961 2
  23731265.987    -4118844.066 5  -2415969.264 1
  20209224.136   -11213577.828 7    504105.031 3
  24154552.292    -3030038.007 5   3338383.006 1
  19961146.448   -25265282.838 7 -18970196.285 2
  20488315.737   -21392129.304 7 -16591290.865 2
 90 10 22 13 11 59.9990000  0  6 02 12 06 15 13 09
  21757553.565     4166730.927 6   3702587.307 2
  23721152.784    -4172004.671 5  -2457393.120 1
  20211811.448   -11199982.882 7    514698.489 3
  24160783.862    -2997271.305 5   3363915.445 1
  19959357.862   -25274681.434 7 -18977519.862 2
  20482660.878   -21421848.957 7 -16614449.030 3
 90 10 22 13 12 14.9990000  0  6 02 12 06 15 13 09
  21761579.190     4187874.580 6   3719062.860 2
  23711036.847    -4225150.893 5  -2498805.778 1
  20214424.323   -11186246.266 7    525402.335 3
  24167041.878    -2964399.901 5   3389529.491 1
  19957595.089   -25283946.129 7 -18984739.100 2
  20477026.456   -21451453.166 7 -16637517.249 3
 90 10 22 13 12 29.9990000  0  6 02 12 06 15 13 09
  21765612.698     4209068.763 6   3735577.785 2
  23700926.495    -4278280.845 5  -2540205.722 1
  20217065.159   -11172366.620 7    536217.635 3
  24173317.737    -2931422.445 5   3415226.163 1
  19955858.417   -25293075.340 7 -18991852.769 2
  20471414.972   -21480939.625 7 -16660493.708 2
 90 10 22 13 12 44.9990000  0  6 02 12 06 15 13 09
  21769652.604     4230315.009 6   3752133.276 2
  23690820.925    -4331392.925 5  -2581591.728 1
  20219735.698   -11158342.392 7    547145.595 3
  24179614.722    -2898338.015 5   3441006.218 1
  19954146.753   -25302067.788 7 -18998859.870 2
  20465827.245   -21510306.844 7 -16683377.254 3
 90 10 22 13 12 59.9990000  0  6 02 12 06 15 13 09
  21773705.589     4251614.761 6   3768730.465 2
  23680715.972    -4384485.304 5  -2622962.421 1
  20222430.534   -11144172.235 7    558187.271 3
  24185927.409    -2865145.726 5   3466870.304 1
  19952462.917   -25310922.159 7 -19005759.374 2
  20460263.230   -21539552.958 7 -16706166.434 2
 90 10 22 13 13 14.9990000  0  6 02 12 06 15 13 09
  21777770.573     4272965.357 6   3785367.274 2
  23670616.464    -4437560.777 4  -2664319.931 1
  20225154.315   -11129859.027 7    569340.412 3
  24192263.558    -2831848.288 5   3492816.322 1
  19950802.722   -25319641.642 7 -19012553.774 2
  20454719.456   -21568680.595 7 -16728863.290 2
 90 10 22 13 13 29.9990000  0  6 02 12 06 15 13 09
  21781843.901     4294371.911 6   3802047.680 2
  23660519.526    -4490613.630 4  -2705659.772 1
  20227906.933   -11115397.368 7    580609.231 3
  24198624.823    -2798440.788 5   3518848.093 1
  19949171.042   -25328220.975 7 -19019238.962 2
  20449199.808   -21597684.126 7 -16751463.447 2
 90 10 22 13 13 44.9990000  0  6 02 12 06 15 13 09
  21785928.058     4315833.426 6   3818770.912 2
  23650434.237    -4543644.682 5  -2746982.666 1
  20230686.003   -11100788.649 7    591992.642 3
  24204998.800    -2764924.633 5   3544964.548 1
  19947563.886   -25336661.270 7 -19025815.813 2
  20443705.112   -21626564.298 7 -16773967.470 2
 90 10 22 13 13 59.9990000  0  6 02 12 06 15 13 09
  21790022.464     4337346.887 6   3835534.629 2
  23640339.651    -4596656.660 5  -2788290.698 1
  20233493.917   -11086035.665 7    603488.464 3
  24211398.737    -2731303.215 5   3571163.020 1
  19945983.159   -25344965.776 7 -19032286.854 2
  20438231.737   -21655323.952 7 -16796377.589 2
 90 10 22 13 14 14.9990000  0  6 02 12 06 15 13 09
  21794122.323     4358905.474 6   3852333.500 2
  23630256.511    -4649656.171 5  -2829589.011 1
  20236328.394   -11071145.174 7    615091.434 3
  24217816.370    -2697583.584 5   3597438.023 1
  19944428.792   -25353141.375 7 -19038657.447 2
  20432780.862   -21683969.400 7 -16818698.715 2
 90 10 22 13 14 29.9990000  0  6 02 12 06 15 13 09
  21798237.308     4380517.793 6   3869174.243 2
  23620171.089    -4702634.489 5  -2870870.824 1
  20239189.261   -11056108.943 7    626807.965 3
  24224252.433    -2663757.705 5   3623795.790 1
  19942899.386   -25361179.997 7 -19044921.304 2
  20427352.362   -21712491.898 7 -16840924.040 2
 90 10 22 13 14 44.9990000  0  6 02 12 06 15 13 09
  21802360.519     4402183.508 6   3886056.591 2
  23610099.737    -4755591.588 5  -2912136.071 1
  20242077.386   -11040927.147 7    638637.922 3
  24230707.464    -2629826.053 5   3650235.973 1
  19941394.386   -25369081.913 7 -19051078.637 2
  20421950.073   -21740891.539 7 -16863053.627 2
 90 10 22 13 14 59.9990000  0  6 02 12 06 15 13 09
  21806492.698     4423899.857 6   3902978.393 2
  23600024.589    -4808529.982 5  -2953386.775 1
  20244994.144   -11025602.557 7    650579.150 3
  24237187.847    -2595791.510 5   3676756.365 1
  19939916.253   -25376849.898 7 -19057131.611 2
  20416566.698   -21769170.818 7 -16885089.429 2
 90 10 22 13 15 14.9990000  0  6 02 12 06 15 13 09
  21810634.339     4445668.596 6   3919941.018 2
  23589952.815    -4861447.770 5  -2994621.394 1
  20247938.675   -11010133.459 7    662632.985 3
  24243681.526    -2561652.845 4   3703357.883 1
  19938464.894   -25384482.385 7 -19063079.000 2
  20411208.175   -21797327.522 7 -16907029.719 2
 90 10 22 13 15 29.9990000  0  5 02 12 06 13 09
  21814786.253     4467487.941 6   3936943.076 2
  23579887.433    -4914346.337 5  -3035841.069 1
  20250908.831   -10994521.840 7    674797.877 3
  19937036.198   -25391981.660 7 -19068922.583 2
  20405874.519   -21825363.110 7 -16928875.626 2
 90 10 22 13 15 44.9990000  0  5 02 12 06 13 09
  21818946.995     4489352.434 6   3953980.313 2
  23569825.542    -4967230.789 5  -3077049.700 1
  20253906.558   -10978773.001 7    687069.695 3
  19935635.003   -25399353.197 7 -19074666.634 2
  20400560.886   -21853283.042 7 -16950631.419 2
 90 10 22 13 15 59.9990000  0  5 02 12 06 13 09
  21823118.644     4511266.671 6   3971056.316 2
  23559765.854    -5020096.203 5  -3118243.532 1
  20256928.753   -10962882.335 7    699452.020 3
  19934257.386   -25406592.456 7 -19080307.616 2
  20395271.370   -21881082.136 7 -16972293.047 2
 90 10 22 13 16 14.9990000  0  5 02 12 06 13 09
  21827297.808     4533229.550 6   3988170.223 2
  23549711.597    -5072943.448 5  -3159423.202 1
  20259978.987   -10946851.022 7    711943.942 3
  19932903.511   -25413700.706 7 -19085846.510 2
  20390004.894   -21908761.357 7 -16993861.272 2
 90 10 22 13 16 29.9990000  0  5 02 12 06 13 09
  21831487.151     4555246.192 6   4005326.021 2
  23539657.042    -5125767.315 5  -3200584.653 1
  20263057.628   -10930674.000 7    724549.404 3
  19931577.964   -25420673.018 7 -19091279.473 2
  20384760.362   -21936315.088 7 -17015331.715 2
 90 10 22 13 16 44.9990000  0  5 02 12 06 13 09
  21835686.198     4577316.263 6   4022523.449 2
  23529609.058    -5178567.795 5  -3241727.861 1
  20266164.870   -10914351.809 7    737267.988 3
  19930277.401   -25427509.716 7 -19096606.769 2
  20379541.511   -21963743.418 7 -17036704.439 2
 90 10 22 13 16 59.9990000  0  5 02 12 06 13 09
  21839895.683     4599434.716 6   4039758.577 2
  23519564.729    -5231349.724 5  -3282856.642 1
  20269297.667   -10897889.379 7    750095.842 3
  19929000.909   -25434216.304 7 -19101832.677 2
  20374345.901   -21991051.297 7 -17057983.309 2
 90 10 22 13 17 14.9990000  0  5 02 12 06 13 09
  21844114.854     4621605.517 6   4057034.488 2
  23509525.198    -5284108.745 5  -3323967.549 1
  20272455.878   -10881282.829 7    763036.000 3
  19927749.589   -25440788.951 7 -19106954.218 2
  20369171.433   -22018234.352 7 -17079164.906 2
 90 10 22 13 17 29.9990000  0  5 02 12 06 13 09
  21848342.136     4643828.186 6   4074350.828 2
  23499492.659    -5336845.207 5  -3365060.899 1
  20275645.472   -10864532.803 7    776087.957 3
  19926524.769   -25447228.492 7 -19111972.040 2
  20364022.495   -22045292.987 7 -17100249.555 2
 90 10 22 13 17 44.9990000  0  5 02 12 06 13 09
  21852581.987     4666101.089 6   4091706.301 2
  23489459.354    -5389560.338 5  -3406137.629 1
  20278858.558   -10847640.970 7    789250.413 3
  19925324.667   -25453536.708 7 -19116887.528 2
  20358897.276   -22072228.481 7 -17121238.257 2
 90 10 22 13 17 59.9990000  0  5 02 12 06 13 09
  21856830.011     4688427.112 6   4109103.173 2
  23479431.933    -5442250.945 5  -3447195.223 1
  20282101.495   -10830604.289 7    802525.735 3
  19924149.058   -25459710.662 7 -19121698.401 2
  20353795.284   -22099037.373 7 -17142128.307 2
 90 10 22 13 18 14.9990000  0  5 02 12 06 13 09
  21861087.784     4710808.307 6   4126543.025 2
  23469412.784    -5494914.869 5  -3488232.027 1
  20285372.097   -10813420.765 7    815915.482 3
  19922999.769   -25465748.459 7 -19126403.180 2
  20348719.003   -22125717.354 7 -17162917.901 2
 90 10 22 13 18 29.9990000  0  5 02 12 06 13 09
  21865357.433     4733235.985 6   4144019.100 2
  23459393.433    -5547560.685 5  -3529254.741 1
  20288666.854   -10796099.519 7    829412.546 3
  19921875.745   -25471659.306 7 -19131009.030 2
  20343664.886   -22152277.371 7 -17183614.017 2
 90 10 22 13 18 44.9990000  0  5 02 12 06 13 09
  21869635.058     4755716.315 6   4161536.212 2
  23449379.394    -5600181.631 5  -3570258.078 1
  20291990.675   -10778634.227 7    843021.846 3
  19920775.456   -25477437.089 7 -19135511.196 2
  20338634.370   -22178710.470 7 -17204211.239 2
 90 10 22 13 18 59.9990000  0  5 02 12 06 13 09
  21873921.472     4778247.391 6   4179092.865 2
  23439368.987    -5652779.406 5  -3611243.354 1
  20295343.159   -10761026.713 7    856741.976 3
  19919701.472   -25483083.759 7 -19139911.201 2
  20333629.003   -22205018.331 7 -17224710.874 2
 90 10 22 13 19 14.9990000  0  5 02 12 06 13 09
  21878218.542     4800829.107 6   4196688.968 2
  23429365.644    -5705353.771 5  -3652210.385 1
  20298719.214   -10743277.177 7    870572.770 3
  19918651.284   -25488599.665 7 -19144209.310 2
  20328646.386   -22231200.876 7 -17245112.854 2
 90 10 22 13 19 29.9990000  0  5 02 12 06 13 09
  21882526.261     4823464.295 6   4214326.742 2
  23419366.354    -5757901.904 5  -3693156.964 1
  20302124.823   -10725383.132 7    884516.173 3
  19917627.558   -25493982.307 7 -19148403.577 2
  20323687.972   -22257255.037 7 -17265414.802 2
 90 10 22 13 19 44.9990000  0  5 02 12 06 13 09
  21886842.269     4846151.410 6   4232004.974 2
  23409370.347    -5810424.990 5  -3734084.051 1
  20305556.292   -10707345.917 7    898571.129 3
  19916628.065   -25499233.351 7 -19152495.296 2
  20318754.214   -22283182.010 7 -17285617.638 2
 90 10 22 13 19 59.9990000  0  5 02 12 06 13 09
  21891171.120     4868891.757 6   4249724.691 2
  23399380.198    -5862921.548 5  -3774990.432 1
  20309016.472   -10689164.483 7    912738.467 3
  19915653.761   -25504351.582 7 -19156483.527 2
  20313845.401   -22308980.274 7 -17305720.186 2
 90 10 22 13 20 14.9990000  0  5 02 12 06 13 09
  21895507.284     4891681.266 6   4267482.718 2
  23389395.542    -5915395.409 5  -3815879.148 1
  20312503.495   -10670842.943 7    927014.974 3
  19914705.183   -25509341.396 7 -19160371.694 2
  20308959.198   -22334653.833 7 -17325725.560 2
 90 10 22 13 20 29.9990000  0  5 02 12 06 13 09
  21899854.417     4914522.843 6   4285281.307 2
  23379413.948    -5967843.167 5  -3856747.533 1
  20316017.862   -10652378.353 7    941402.950 3
  19913779.987   -25514199.922 7 -19164157.560 2
  20304098.847   -22360199.191 7 -17345631.035 2
 90 10 22 13 20 44.9990000  0  5 02 12 06 13 09
  21904213.097     4937418.444 6   4303122.004 2
  23369441.003    -6020262.607 5  -3897593.843 1
  20319558.120   -10633768.829 7    955903.863 3
  19912880.104   -25518925.424 7 -19167839.771 2
  20299262.253   -22385614.030 7 -17365434.806 2
 90 10 22 13 20 59.9990000  0  5 02 12 06 13 09
  21908579.425     4960363.886 6   4321001.527 2
  23359469.855    -6072657.618 5  -3938421.115 1
  20323125.901   -10615018.629 7    970514.393 3
  19912006.089   -25523522.299 7 -19171421.746 2
  20294449.308   -22410902.329 7 -17385139.976 2
 90 10 22 13 21 14.9980000  0  5 02 12 06 13 09
  21912952.365     4983357.811 6   4338918.830 2
  23349502.967    -6125024.412 5  -3979226.391 1
  20326720.873   -10596128.945 7    985233.616 3
  19911155.686   -25527990.383 7 -19174903.370 2
  20289662.701   -22436062.090 7 -17404744.985 2
 90 10 22 13 21 29.9980000  0  5 02 12 06 13 09
  21917341.318     5006406.558 6   4356878.855 2
  23339544.600    -6177366.390 5  -4020012.354 1
  20330341.928   -10577094.127 7   1000065.928 3
  19910330.818   -25532327.215 7 -19178282.720 2
  20284898.678   -22461093.203 7 -17424249.752 2
 90 10 22 13 21 44.9980000  0  5 02 12 06 13 09
  21921735.029     5029507.376 6   4374879.449 2
  23329588.264    -6229681.003 5  -4060776.974 1
  20333991.623   -10557916.595 7   1015009.451 3
  19909529.240   -25536533.788 7 -19181560.568 2
  20280160.834   -22485994.757 7 -17443653.566 2
 90 10 22 13 21 59.9980000  0  5 02 12 06 13 09
  21926142.303     5052660.284 6   4392920.626 2
  23319640.514    -6281968.009 5  -4101520.081 1
  20337667.951   -10538596.521 7   1030064.034 3
  19908754.076   -25540610.500 7 -19184737.225 2
  20275445.865   -22510766.414 7 -17462956.155 2
 90 10 22 13 22 14.9980000  0  5 02 12 06 13 09
  21930557.295     5075867.856 6   4411004.408 2
  23309695.396    -6334224.513 5  -4142239.432 1
  20341373.600   -10519131.449 7   1045231.608 3
  19908004.443   -25544554.914 7 -19187810.795 2
  20270758.271   -22535405.441 7 -17482155.397 2
 90 10 22 13 22 29.9980000  0  5 02 12 06 13 09
  21934985.006     5099126.196 6   4429127.746 2
  23299757.092    -6386453.959 5  -4182937.689 1
  20345103.373   -10499525.088 7   1060509.276 3
  19907277.482   -25548370.989 7 -19190784.359 2
  20266093.162   -22559915.555 7 -17501254.191 2
 90 10 22 13 22 44.9980000  0  5 02 12 06 13 09
  21939419.342     5122438.921 6   4447293.463 2
  23289822.920    -6438652.482 5  -4223611.871 1
  20348862.615   -10479774.005 7   1075899.713 3
  19906576.443   -25552055.155 7 -19193655.142 2
  20261455.139   -22584292.524 7 -17520249.237 2
 90 10 22 13 22 59.9980000  0  5 02 12 06 13 09
  21943866.428     5145806.144 6   4465501.647 2
  23279893.240    -6490819.979 5  -4264261.866 1
  20352648.686   -10459878.366 7   1091402.789 3
  19905900.467   -25555607.806 7 -19196423.439 2
  20256841.334   -22608536.281 7 -17539140.474 2
 90 10 22 13 23 14.9980000  0  5 02 12 06 13 09
  21948321.889     5169224.267 6   4483749.488 2
  23269975.607    -6542959.539 5  -4304890.084 1
  20356460.381   -10439841.791 7   1107015.687 3
  19905248.006   -25559032.748 7 -19199092.225 2
  20252252.811   -22632650.128 7 -17557930.488 2
 90 10 22 13 23 29.9980000  0  5 02 12 06 13 09
  21952790.373     5192694.196 6   4502037.707 2
  23260059.396    -6595069.990 5  -4345495.625 1
  20360301.147   -10419663.265 7   1122739.197 3
  19904621.756   -25562329.364 7 -19201661.023 2
  20247688.928   -22656632.841 7 -17576618.321 2
 90 10 22 13 23 44.9980000  0  5 02 12 06 13 09
  21957267.967     5216214.976 6   4520365.539 2
  23250148.115    -6647151.935 5  -4386078.959 1
  20364167.326   -10399343.905 7   1138572.442 3
  19904019.146   -25565498.565 7 -19204130.527 2
  20243149.896   -22680484.949 7 -17595204.381 2
 90 10 22 13 23 59.9980000  0  5 02 12 06 13 09
  21961752.842     5239788.217 6   4538734.255 2
  23240242.396    -6699203.674 5  -4426638.746 1
  20368060.389   -10378882.288 7   1154516.540 3
  19903439.865   -25568539.171 7 -19206499.832 2
  20238636.834   -22704204.995 7 -17613687.538 2
 90 10 22 13 24 14.9980000  0  5 02 12 06 13 09
  21966248.186     5263414.595 6   4557144.380 1
  23230342.709    -6751224.161 5  -4467174.191 1
  20371982.373   -10358277.868 7   1170571.915 3
  19902885.482   -25571450.549 7 -19208768.440 2
  20234147.717   -22727791.569 7 -17632066.686 2
 90 10 22 13 24 29.9980000  0  5 02 12 06 13 09
  21970753.975     5287093.518 6   4575595.448 1
  23220448.209    -6803213.465 5  -4507685.320 1
  20375930.311   -10337531.066 7   1186738.231 3
  19902356.123   -25574233.245 7 -19210936.781 2
  20229685.646   -22751245.048 7 -17650342.128 2
 90 10 22 13 24 44.9980000  0  5 02 12 06 13 09
  21975269.123     5310826.215 6   4594088.415 1
  23210561.256    -6855170.571 5  -4548171.388 1
  20379905.662   -10316641.105 7   1203016.100 3
  19901850.834   -25576886.602 7 -19213004.331 2
  20225246.779   -22774564.377 7 -17668513.038 2
 90 10 22 13 24 59.9980000  0  5 02 12 06 13 09
  21979794.795     5334612.672 6   4612623.277 1
  23200682.420    -6907095.045 5  -4588632.006 1
  20383909.287   -10295608.013 7   1219405.505 3
  19901370.772   -25579410.860 7 -19214971.286 2
  20220834.592   -22797748.866 7 -17686578.875 2
 90 10 22 13 25 14.9980000  0  5 02 12 06 13 09
  21984331.693     5358451.306 6   4631198.788 1
  23190804.818    -6958988.016 5  -4629068.103 1
  20387937.779   -10274433.424 7   1235905.168 3
  19900914.615   -25581807.828 7 -19216839.056 2
  20216449.123   -22820800.148 7 -17704540.917 2
 90 10 22 13 25 29.9980000  0  5 02 12 06 13 09
  21988879.131     5382341.722 6   4649814.649 1
  23180938.529    -7010849.623 5  -4669479.727 1
  20391993.467   -10253117.705 7   1252514.794 3
  19900483.436   -25584078.215 7 -19218608.190 2
  20212087.568   -22843718.314 7 -17722399.230 2
 90 10 22 13 25 44.9980000  0  5 02 12 06 13 09
  21993431.662     5406285.760 6   4668472.291 1
  23171075.154    -7062677.857 5  -4709865.363 1
  20396077.709   -10231659.451 7   1269235.494 3
  19900075.139   -25586220.264 7 -19220277.320 2
  20207752.623   -22866501.333 7 -17740152.235 2
 90 10 22 13 25 59.9980000  0  5 02 12 06 13 09
  21998002.186     5430280.552 6   4687169.484 1
  23161218.232    -7114475.136 5  -4750226.878 1
  20400186.920   -10210061.296 7   1286065.203 3
  19899690.193   -25588236.783 7 -19221848.637 2
  20203443.139   -22889151.310 7 -17757801.574 2
 90 10 22 13 26 14.9980000  0  5 02 12 06 13 09
  22002576.201     5454328.961 6   4705908.463 1
  23151366.990    -7166238.510 5  -4790561.969 1
  20404324.303   -10188320.465 7   1303006.092 3
  19899331.717   -25590125.330 7 -19223320.236 2
  20199157.459   -22911665.577 7 -17775345.166 2
 90 10 22 13 26 29.9980000  0  5 02 12 06 13 09
  22007164.998     5478429.466 6   4724688.032 1
  23141523.342    -7217969.169 5  -4830871.570 1
  20408487.545   -10166438.743 7   1320056.763 3
  19898995.818   -25591887.940 7 -19224693.697 2
  20194899.654   -22934045.123 7 -17792783.777 2
 90 10 22 13 26 44.9980000  0  5 02 12 06 13 09
  22011758.170     5502583.808 6   4743509.544 1
  23131686.959    -7269664.924 5  -4871153.979 1
  20412679.732   -10144414.479 7   1337218.503 3
  19898685.771   -25593522.883 7 -19225967.677 2
  20190665.826   -22956288.213 7 -17810116.067 2
 90 10 22 13 26 59.9980000  0  5 02 12 06 13 09
  22016364.725     5526789.396 6   4762371.001 1
  23121854.818    -7321328.132 5  -4911411.032 1
  20416895.975   -10122250.194 7   1354489.355 3
  19898397.842   -25595032.754 7 -19227144.204 2
  20186459.717   -22978397.015 7 -17827343.710 2
 90 10 22 13 27 14.9980000  0  5 02 12 06 13 09
  22020984.936     5551046.336 6   4781272.468 1
  23112028.865    -7372958.415 5  -4951642.400 1
  20421140.646   -10099945.990 7   1371869.239 3
  19898133.631   -25596417.884 7 -19228223.527 2
  20182278.193   -23000371.149 7 -17844466.418 2
 90 10 22 13 27 29.9980000  0  5 02 12 06 13 09
  22025607.771     5575354.970 6   4800214.207 1
  23102211.811    -7424555.098 5  -4991847.611 1
  20425412.357   -10077501.577 7   1389358.375 3
  19897895.162   -25597678.020 7 -19229205.453 2
  20178121.873   -23022210.061 7 -17861483.756 2
 90 10 22 13 27 44.9980000  0  5 02 12 06 13 09
  22030243.045     5599717.602 6   4819198.028 1
  23092399.990    -7476115.603 5  -5032024.620 1
  20429711.186   -10054914.965 7   1406958.320 3
  19897679.959   -25598811.235 7 -19230088.482 2
  20173992.959   -23043911.320 7 -17878393.838 2
 90 10 22 13 27 59.9980000  0  5 02 12 06 13 09
  22034887.928     5624131.649 6   4838221.914 1
  23082593.514    -7527642.364 5  -5072175.350 1
  20434036.131   -10032188.793 7   1424666.999 3
  19897486.303   -25599820.240 7 -19230874.722 2
  20169888.811   -23065477.105 7 -17895198.351 2
 90 10 22 13 28 14.9980000  0  5 02 12 06 13 09
  22039543.889     5648597.922 6   4857286.497 1
  23072797.068    -7579134.245 5  -5112298.878 1
  20438387.107   -10009322.292 7   1442485.030 3
  19897319.654   -25600704.423 7 -19231563.697 2
  20165809.662   -23086906.635 7 -17911896.692 2
 90 10 22 13 28 29.9980000  0  5 02 12 06 13 09
  22044209.467     5673114.502 6   4876390.282 1
  23063005.475    -7630592.819 5  -5152396.474 1
  20442767.240    -9986317.648 7   1460410.704 3
  19897173.897   -25601465.930 7 -19232157.087 2
  20161759.428   -23108201.165 7 -17928489.839 2
 90 10 22 13 28 44.9980000  0  5 02 12 06 13 09
  22048886.553     5697684.066 6   4895535.343 1
  23053219.311    -7682014.802 5  -5192465.540 1
  20447169.467    -9963171.877 7   1478446.348 3
  19897053.459   -25602102.328 7 -19232652.984 2
  20157732.279   -23129357.615 7 -17944975.394 2
 90 10 22 13 28 59.9980000  0  5 02 12 06 13 09
  22053572.592     5722307.403 6   4914722.304 1
  23043440.967    -7733399.388 6  -5232505.476 1
  20451600.154    -9939884.535 7   1496592.298 3
  19896955.725   -25602613.086 7 -19233050.984 2
  20153732.717   -23150375.456 7 -17961352.936 2
 90 10 22 13 29 14.9980000  0  5 02 12 06 13 09
  22058269.217     5746984.166 6   4933950.895 1
  23033669.311    -7784746.717 6  -5272516.386 1
  20456057.654    -9916456.194 7   1514848.122 3
  19896882.545   -25602998.780 7 -19233351.528 2
  20149760.311   -23171254.705 7 -17977622.484 2
 90 10 22 13 29 29.9980000  0  5 02 12 06 13 09
  22062974.037     5771713.647 6   4953220.571 1
  23023904.998    -7836057.058 6  -5312498.465 1
  20460543.912    -9892887.587 7   1533213.251 3
  19896833.232   -25603260.264 7 -19233555.289 2
  20145813.068   -23191995.406 7 -17993784.076 2
 90 10 22 13 29 44.9980000  0  5 02 12 06 13 09
  22067688.357     5796495.549 6   4972531.082 1
  23014149.123    -7887330.374 6  -5352451.704 1
  20465055.232    -9869179.148 7   1551687.339 3
  19896807.670   -25603398.085 7
  20141891.287   -23212598.091 7 -18009838.121 2
 90 10 22 13 29 59.9980000  0  5 02 12 06 13 09
  22072416.545     5821328.872 6   4991881.676 1
  23004399.037    -7938567.597 6  -5392376.796 1
  20469592.232    -9845331.932 7   1570269.564 3
  19896804.115   -25603413.662 7
  20137998.201   -23233063.261 7 -18025785.012 2
 90 10 22 13 30 14.9980000  0  5 02 12 06 13 09
  22077147.881     5846200.591 6   5011262.186 1
  22994654.475    -7989781.485 6  -5432283.738 1
  20474154.795    -9821359.363 7   1588949.461 3
  19896820.139   -25603320.285 7
  20134127.748   -23253404.020 7 -18041634.959 2
 90 10 22 13 30 29.9980000  0  5 02 12 06 13 09
  22081891.428     5871121.106 6   5030680.717 1
  22984914.826    -8040961.235 6  -5472164.053 1
  20478743.873    -9797250.945 7   1607735.218 3
  19896860.865   -25603107.434 7
  20130282.951   -23273609.467 7 -18057379.467 2
 90 10 22 13 30 44.9980000  0  5 02 12 06 13 09
  22086641.217     5896094.226 6   5050140.240 1
  22975181.021    -8092102.700 6  -5512014.548 1
  20483356.404    -9773002.948 7   1626629.735 3
  19896924.936   -25602771.711 7
  20126464.186   -23293675.318 7 -18073015.200 2
 90 10 22 13 30 59.9980000  0  5 02 12 06 13 09
  22091407.068     5921118.739 6   5069639.801 1
  22965456.701    -8143206.922 6  -5551836.002 1
  20487997.756    -9748616.948 7   1645631.786 3
  19897011.170   -25602314.801 7        -0.09912
  20122671.475   -23313602.950 7 -18088543.230 2
 90 10 22 13 31 14.9980000  0  5 02 12 06 13 09
  22096177.404     5946197.249 6   5089181.439 1
  22955740.818    -8194270.889 6  -5591626.111 1
  20492664.701    -9724090.261 7   1664743.461 3
  19897122.279   -25601734.179 7       452.329 2
  20118907.201   -23333389.395 7 -18103961.240 2
 90 10 22 13 31 29.9980000  0  5 02 12 06 13 09
  22100960.068     5971330.547 6   5108765.769 1
  22946029.803    -8245293.509 6  -5631383.990 1
  20497358.857    -9699422.372 7   1683965.169 3
  19897255.264   -25601029.383 7      1001.518 2
  20115169.396   -23353033.583 7 -18119268.405 2
 90 10 22 13 31 44.9980000  0  5 02 12 06 13 09
  22105755.826     5996516.163 6   5128390.871 1
  22936329.381    -8296276.818 6  -5671111.261 1
  20502078.068    -9674615.891 7   1703294.865 3
  19897413.600   -25600202.937 7      1645.496 2
  20111456.771   -23372537.839 7 -18134466.537 2
 90 10 22 13 31 59.9980000  0  5 02 12 06 13 09
  22110555.678     6021753.911 6   5148056.584 1
  22926634.779    -8347220.791 6  -5710807.867 1
  20506827.373    -9649670.918 7   1722732.485 3
  19897595.092   -25599255.240 7      2383.957 2
  20107771.498   -23391902.113 7 -18149555.586 2
 90 10 22 13 32 14.9980000  0  5 02 12 06 13 09
  22115367.342     6047045.866 6   5167764.550 1
  22916949.467    -8398122.982 6  -5750471.911 1
  20511599.506    -9624585.526 7   1742279.513 3
  19897798.498   -25598184.325 7      3218.434 2
  20104114.178   -23411123.996 7 -18164533.684 2
 90 10 22 13 32 29.9980000  0  5 02 12 06 13 09
  22120190.271     6072392.790 6
  22907269.529    -8448982.387 6  -5790102.614 1
  20516401.240    -9599359.305 7
  19898024.842   -25596989.835 7      4149.201 2
  20100483.662   -23430202.498 7 -18179400.057 2
 90 10 22 13 32 44.9980000  0  5 02 12 06 13 09
  22125024.537     6097790.937 6
  22897598.342    -8499802.462 6  -5829702.666 1
  20521227.412    -9573996.008 7
  19898275.279   -25595675.717 7      5173.182 2
  20096879.459   -23449140.858 7 -18194157.228 2
 90 10 22 13 32 59.9980000  0  5 02 12 06 13 09
  22129865.373     6123241.805 6
  22887937.193    -8550581.403 6  -5869270.674 1
  20526080.928    -9548494.243 7
  19898547.771   -25594240.956 7      6291.170 2
  20093304.045   -23467937.675 7 -18208804.108 2
 90 10 22 13 33 14.9980000  0  5 02 12 06 13 09
  22134721.100     6148748.823 6   5247013.365 1
  22878281.592    -8601315.467 6  -5908803.707 1
  20530959.404    -9522850.624 7   1821553.355 3
  19898844.662   -25592682.273 7      7505.728 2
  20089753.357   -23486589.107 7 -18223337.698 2
 90 10 22 13 33 29.9980000  0  5 02 12 06 13 09
  22139585.740     6174309.704 6   5266930.875 1
  22868635.834    -8652006.673 6  -5948303.351 1
  20535865.928    -9497067.854 7   1841643.801 3
  19899165.670   -25591002.223 7      8814.851 2
  20086231.826   -23505097.357 7 -18237759.720 2
 90 10 22 13 33 44.9980000  0  5 02 12 06 13 09
  22144463.162     6199924.853 6   5286890.677 1
  22858997.607    -8702654.227 6  -5987768.976 1
  20540798.670    -9471145.449 7   1861843.048 3
  19899507.975   -25589200.448 7     10218.824 2
  20082736.334   -23523461.749 7 -18252069.647 2
 90 10 22 13 33 59.9980000  0  5 02 12 06 13 09
  22149344.732     6225596.604 6   5306894.573 1
  22849368.537    -8753255.401 6  -6027198.467 1
  20545758.600    -9445081.194 7   1882152.833 3
  19899873.881   -25587274.786 7     11719.335 2
  20079269.412   -23541679.617 7 -18266265.393 2
 90 10 22 13 34 14.9980000  0  5 02 12 06 13 09
  22154238.748     6251319.370 6   5326938.226 1
  22839748.318    -8803815.487 6  -6066595.926 1
  20550744.982    -9418881.023 7   1902568.521 3
  19900263.818   -25585231.298 7     13311.658 2
  20075829.334   -23559756.345 7 -18280351.165 2
 90 10 22 13 34 29.9980000  0  5 02 12 06 13 09
  22159146.443     6277093.919 6   5347022.225 1
  22830134.779    -8854333.681 6  -6105960.756 1
  20555755.147    -9392544.412 7   1923090.527 3
  19900674.615   -25583069.504 7     14996.169 2
  20072417.873   -23577691.260 7 -18294326.429 2
 90 10 22 13 34 44.9980000  0  5 02 12 06 13 09
  22164060.154     6302922.815 6   5367148.574 1
  22820527.943    -8904807.099 6  -6145290.686 1
  20560794.873    -9366068.637 7   1943720.975 3
  19901109.006   -25580786.750 7     16774.931 2
  20069031.693   -23595481.272 7 -18308188.786 2
 90 10 22 13 34 59.9980000  0  5 02 12 06 13 09
  22168987.061     6328803.320 6   5387315.141 1
  22810932.381    -8955238.030 6  -6184587.513 1
  20565858.037    -9339456.788 7   1964457.445 3
  19901565.670   -25578386.289 7     18645.414 2
  20065674.709   -23613128.813 7 -18321940.122 2
 90 10 22 13 35 14.9980000  0  5 02 12 06 13 09
  22173921.021     6354737.713 6   5407523.694 1
  22801345.397    -9005623.723 6  -6223849.105 1
  20570949.404    -9312706.422 7   1985301.853 3
  19902044.873   -25575866.127 7     20609.169 2
  20062342.521   -23630631.518 7 -18335578.604 2
 90 10 22 13 35 29.9980000  0  5 02 12 06 13 09
  22178868.217     6380726.516 6   5427774.643 1
  22791766.084    -9055963.551 6  -6263074.949 1
  20576064.490    -9285817.590 7   2006254.156 3
  19902547.225   -25573225.898 7     22666.485 2
  20059041.318   -23647988.634 7 -18349103.636 2
 90 10 22 13 35 44.9980000  0  5 02 12 06 13 09
  22183820.272     6406769.200 6   5448067.583 1
  22782195.131    -9106257.599 6  -6302265.110 1
  20581208.295    -9258790.657 7   2027314.072 3
  19903073.186   -25570466.517 7     24816.645 2
  20055764.654   -23665200.350 7 -18362515.372 2
 90 10 22 13 35 59.9980000  0  5 02 12 06 13 09
  22188788.623     6432866.530 6   5468403.099 1
  22772633.615    -9156504.838 6  -6341418.802 1
  20586378.154    -9231625.103 7   2048482.005 3
  19903620.951   -25567587.250 7     27060.221 2
  20052517.881   -23682265.931 7 -18375813.239 2
 90 10 22 13 36 14.9980000  0  5 02 12 06 13 09
  22193766.061     6459015.656 6   5488778.970 1
  22763080.561    -9206707.826 6  -6380538.026 1
  20591572.795    -9204323.944 7   2069755.602 3
  19904190.865   -25564591.217 7     29394.781 2
  20049297.561   -23699187.862 7 -18388999.170 2
 90 10 22 13 36 29.9980000  0  5 02 12 06 13 09
  22198752.600     6485217.050 6   5509195.582 1
  22753535.436    -9256865.882 6  -6419622.224 1
  20596794.154    -9176887.102 7   2091134.929 3
  19904782.842   -25561478.457 7     31820.298 2
  20046104.568   -23715965.495 7 -18402072.659 2
 90 10 22 13 36 44.9980000  0  5 02 12 06 13 09
  22203745.490     6511471.832 6   5529653.782 1
  22743999.959    -9306977.495 6  -6458670.236 1
  20602042.279    -9149313.287 7   2112620.988 3
  19905398.139   -25558247.844 7     34337.649 2
  20042939.639   -23732597.354 7 -18415032.556 2
 90 10 22 13 36 59.9980000  0  5 02 12 06 13 09
  22208752.717     6537779.992 6   5550153.589 1
  22734471.998    -9357042.404 6  -6497681.866 1
  20607314.912    -9121602.797 7   2134213.544 3
  19906035.443   -25554899.729 7     36946.561 2
  20039803.092   -23749083.325 7 -18427878.784 2
 90 10 22 13 37 14.9980000  0  5 02 12 06 13 09
  22213767.068     6564139.211 6   5570693.164 1
  22724954.232    -9407062.533 6  -6536658.589 1
  20612613.967    -9093758.000 7   2155910.754 3
  19906693.928   -25551436.539 7     39645.140 2
  20036693.404   -23765425.572 7 -18440613.011 2
 90 10 22 13 37 29.9980000  0  5 02 12 06 13 09
  22218794.201     6590550.539 6   5591273.352 1
  22715443.670    -9457036.461 6  -6575599.310 1
  20617938.928    -9065778.051 7   2177713.277 3
  19907374.811   -25547857.600 7     42433.907 2
  20033611.264   -23781622.567 7 -18453234.054 2
 90 10 22 13 37 44.9980000  0  5 02 12 06 13 09
  22223828.889     6617014.663 6   5611894.676 1
  22705944.584    -9506963.400 6  -6614503.426 1
  20623288.303    -9037662.514 7   2199621.455 3
  19908078.592   -25544162.449 7     45313.233 2
  20030556.404   -23797673.591 7 -18465741.356 2
 90 10 22 13 37 59.9980000  0  5 02 12 06 13 09
  22228878.248     6643534.831 6   5632559.673 1
  22696452.318    -9556839.483 6  -6653367.908 1
  20628664.529    -9009408.234 7   2221637.742 3
  19908804.811   -25540347.949 7     48285.557 2
  20027530.193   -23813575.156 7 -18478132.198 2
 90 10 22 13 38 14.9980000  0  5 02 12 06 13 09
  22233935.037     6670110.437 6   5653267.862 1
  22686970.967    -9606664.983 6  -6692192.987 1
  20634067.029    -8981015.901 7   2243761.608 3
  19909552.889   -25536415.039 7     51350.156 2
  20024531.701   -23829327.752 7 -18490406.961 2
 90 10 22 13 38 29.9980000  0  5 02 12 06 13 09
  22239004.092     6696739.593 6   5674017.779 1
  22677498.514    -9656441.740 6  -6730980.077 1
  20639496.514    -8952487.806 7   2265991.258 3
  19910323.615   -25532366.022 7     54505.223 2
  20021563.092   -23844933.011 7 -18502566.915 2
 90 10 22 13 38 44.9980000  0  5 02 12 06 13 09
  22244076.639     6723421.803 6   5694809.038 1
  22668035.717    -9706169.790 6  -6769729.210 1
  20644951.123    -8923824.313 7   2288326.415 3
  19911115.865   -25528201.637 7     57750.189 2
  20018622.803   -23860391.172 7 -18514612.244 2
 90 10 22 13 38 59.9980000  0  5 02 12 06 13 09
  22249168.154     6750156.257 6   5715641.006 1
  22658580.959    -9755849.626 6  -6808440.777 1
  20650431.357    -8895026.657 7   2310766.117 3
  19911930.490   -25523923.007 7     61084.177 2
  20015707.193   -23875702.782 7 -18526543.386 2
 90 10 22 13 39 14.9980000  0  5 02 12 06 13 09
  22254265.998     6776945.823 6   5736515.923 1
  22649139.186    -9805478.061 6  -6847112.289 1
  20655936.107    -8866092.033 7   2333312.543 3
  19912766.803   -25519527.389 7     64509.323 2
  20012822.459   -23890864.838 7 -18538357.984 2
 90 10 22 13 39 29.9980000  0  5 02 12 06 13 09
  22259372.764     6803791.146 6   5757434.285 1
  22639704.420    -9855053.947 6  -6885742.854 1
  20661469.350    -8837019.872 7   2355966.142 3
  19913624.693   -25515014.369 7     68025.950 2
  20009966.959   -23905876.435 7 -18550055.347 2
 90 10 22 13 39 44.9980000  0  5 02 12 06 13 09
  22264494.178     6830694.304 6   5778397.706 1
  22630280.279    -9904575.052 6  -6924330.737 1
  20667027.693    -8807808.361 7   2378728.326 3
  19914507.115   -25510382.105 7     71635.496 2
  20007137.842   -23920735.203 7 -18561633.619 2
 90 10 22 13 39 59.9980000  0  5 02 12 06 13 09
  22269621.771     6857653.957 6   5799405.156 1
  22620867.436    -9954042.487 6  -6962876.796 1
  20672614.061    -8778458.996 7   2401597.929 3
  19915411.045   -25505632.128 7     75336.762 2
  20004339.787   -23935442.436 7 -18573093.814 2
 90 10 22 13 40 14.9980000  0  5 02 12 06 13 09
  22274764.748     6884669.230 6   5820455.954 1
  22611463.654   -10003456.731 6  -7001381.415 1
  20678223.764    -8748972.924 7   2424574.051 3
  19916336.076   -25500765.584 7     79128.861 2
  20001570.717   -23949998.742 7 -18584436.403 2
 90 10 22 13 40 29.9980000  0  5 02 12 06 13 09
  22279916.850     6911737.984 6   5841548.411 1
  22602071.389   -10052819.703 6  -7039846.071 1
  20683860.482    -8719352.247 7   2447655.060 3
  19917284.561   -25495785.263 7     83009.617 2
  19998826.779   -23964406.007 7 -18595662.861 2
 90 10 22 13 40 44.9980000  0  5 02 12 06 13 09
  22285076.404     6938862.466 6   5862684.299 1
  22592687.240   -10102128.799 6  -7078268.753 1
  20689523.826    -8689595.057 7   2470842.445 3
  19918254.334   -25490688.706 7     86980.950 2
  19996116.014   -23978661.918 7 -18606771.378 2
 90 10 22 13 40 59.9980000  0  5 02 12 06 13 09
  22290246.990     6966039.933 6   5883861.473 1
  22583312.561   -10151386.290 6  -7116651.218 1
  20695212.115    -8659704.328 7   2494133.891 3
  19919246.084   -25485478.916 7     91040.514 2
  19993431.131   -23992768.950 7 -18617763.882 2
 90 10 22 13 41 14.9980000  0  5 02 12 06 13 09
  22295431.420     6993273.430 6   5905082.306 1
  22573951.014   -10200588.907 6  -7154990.925 1
  20700925.014    -8629676.983 7   2517531.788 3
  19920259.279   -25480153.269 7     95190.361 2
  19990775.732   -24006723.888 7 -18628637.875 2
 90 10 22 13 41 29.9980000  0  5 02 12 06 13 09
  22300624.826     7020560.812 6   5926345.125 1
  22564598.146   -10249738.454 6  -7193289.281 1
  20706664.834    -8599515.517 7   2541034.197 3
  19921294.334   -25474714.380 7     99428.439 2
  19988148.725   -24020528.671 7 -18639394.860 2
 90 10 22 13 41 44.9980000  0  5 02 12 06 13 09
  22305829.443     7047903.098 6   5947650.727 1
  22555256.334   -10298833.646 6  -7231545.284 1
  20712429.482    -8569219.145 7   2564641.722 3
  19922351.037   -25469161.404 7    103755.423 2
  19985551.717   -24034182.223 7 -18650034.006 2
 90 10 22 13 41 59.9980000  0  5 02 12 06 13 09
  22311041.561     7075299.656 6   5968998.611 1
  22545923.248   -10347874.529 6  -7269758.962 1
  20718220.436    -8538788.419 7   2588353.939 3
  19923429.740   -25463495.155 7    108170.668 2
  19982980.279   -24047684.569 7 -18660555.326 2
 90 10 22 13 42 14.9980000  0  5 02 12 06 13 09
  22316266.475     7102751.707 6   5990389.744 1
  22536602.553   -10396859.762 6  -7307929.273 1
  20724037.217    -8508222.519 7   2612171.489 3
  19924528.920   -25457714.686 7    112674.918 2
  19980441.412   -24061034.765 7 -18670958.089 2
 90 10 22 13 42 29.9980000  0  5 02 12 06 13 09
  22321499.865     7130258.650 6   6011823.655 1
  22527291.193   -10445789.664 6  -7346056.477 1
  20729878.834    -8477522.189 7   2636093.788 3
  19925651.326   -25451820.812 7    117267.536 2
  19977928.365   -24074233.054 7 -18681242.482 2
 90 10 22 13 42 44.9980000  0  5 02 12 06 13 09
  22326743.232     7157816.508 6   6033297.233 1
  22517989.881   -10494667.633 6  -7384143.223 1
  20735747.021    -8446691.512 7   2660117.659 3
  19926792.975   -25445817.686 7    121945.281 2
  19975445.975   -24087282.931 7 -18691411.230 2
 90 10 22 13 42 59.9980000  0  5 02 12 06 13 09
  22331995.381     7185430.192 6   6054814.311 1
  22508698.498   -10543488.796 6  -7422185.682 1
  20741639.420    -8415725.915 7   2684246.659 3
  19927956.639   -25439701.059 7    126711.475 2
  19972991.647   -24100179.618 7 -18701460.612 2
 90 10 22 13 43 14.9980000  0  5 02 12 06 13 09
  22337260.943     7213099.420 6   6076374.675 1
  22499420.123   -10592253.047 6  -7460183.799 1
  20747557.967    -8384625.879 7   2708480.415 3
  19929142.264   -25433471.302 7    131565.814 2
  19970565.881   -24112923.403 7 -18711390.853 2
 90 10 22 13 43 29.9980000  0  5 02 12 06 13 09
  22342539.061     7240824.348 6   6097978.441 1
  22490150.873   -10640959.787 6  -7498137.109 1
  20753500.936    -8353391.477 7   2732818.872 3
  19930349.818   -25427128.456 7    136508.278 2
  19968170.498   -24125513.438 7 -18721201.281 2
 90 10 22 13 43 44.9980000  0  5 02 12 06 13 09
  22347825.334     7268603.917 6   6119624.789 1
  22480892.662   -10689609.731 6  -7536046.166 1
  20759469.420    -8322023.785 7   2757261.195 3
  19931577.568   -25420673.828 7    141537.843 2
  19965804.701   -24137950.856 7 -18730892.793 2
 90 10 22 13 43 59.9980000  0  5 02 12 06 13 09
  22353122.029     7296439.121 6   6141314.476 1
  22471646.295   -10738201.458 6  -7573909.858 1
  20765465.959    -8290521.728 7   2781808.221 3
  19932827.061   -25414106.355 7    146655.342 2
  19963466.826   -24150234.343 7 -18740464.353 2
 90 10 22 13 44 14.9980000  0  5 02 12 06 13 09
  22358431.912     7324329.739 6   6163047.352 1
  22462410.834   -10786734.971 6  -7611728.185 1
  20771484.537    -8258886.092 7   2806459.330 3
  19934098.678   -25407426.638 7    151860.302 2
  19961158.240   -24162363.875 7 -18749915.954 2
 90 10 22 13 44 29.9980000  0  5 02 12 06 13 09
  22363745.568     7352274.187 6   6184822.167 1
  22453185.631   -10835211.529 6  -7649502.135 1
  20777531.146    -8227118.546 7   2831213.231 3
  19935390.764   -25400636.658 7    157151.183 2
  19958878.896   -24174340.943 7 -18759248.745 2
 90 10 22 13 44 44.9980000  0  5 02 12 06 13 09
  22369075.803     7380273.233 6   6206639.526 1
  22443972.123   -10883630.144 6  -7687230.934 1
  20783600.670    -8195218.544 7   2856070.338 3
  19936704.092   -25393735.890 7    162528.391 2
  19956629.420   -24186164.807 7 -18768462.166 2
 90 10 22 13 44 59.9980000  0  5 02 12 06 13 09
  22374413.100     7408326.613 6   6228499.232 1
  22434769.061   -10931990.558 6  -7724914.386 1
  20789696.334    -8163186.509 7   2881030.331 3
  19938038.350   -25386724.840 7    167991.531 2
  19954408.826   -24197835.304 7 -18777556.074 2
 90 10 22 13 45 14.9980000  0  5 02 12 06 13 09
  22379762.912     7436434.572 6   6250401.464 1
  22425577.287   -10980292.349 6  -7762552.152 1
  20795816.545    -8131022.674 7   2906093.023 3
  19939393.100   -25379603.847 7    173540.344 2
  19952217.045   -24209352.084 7 -18786530.205 2
 90 10 22 13 45 29.9980000  0  5 02 12 06 13 09
  22385123.303     7464597.636 6   6272346.624 1
  22416397.600   -11028534.615 6  -7800143.537 1
  20801961.850    -8098726.405 7   2931258.905 3
  19940768.646   -25372372.483 7    179175.156 2
  19950054.693   -24220714.412 7 -18795383.983 2
 90 10 22 13 45 44.9980000  0  5 02 12 06 13 09
  22390492.920     7492815.410 6   6294334.417 1
  22407229.498   -11076717.290 6  -7837688.487 1
  20808134.264    -8066298.367 7   2956527.474 3
  19942165.592   -25365031.531 7    184895.361 2
  19947922.811   -24231922.757 7 -18804117.771 2
 90 10 22 13 45 59.9980000  0  5 02 12 06 13 09
  22395870.053     7521089.762 6   6316366.297 1
  22398072.053   -11124838.049 6  -7875185.201 1
  20814329.256    -8033736.789 7   2981900.084 3
  19943584.061   -25357579.200 7    190702.357 2
  19945818.607   -24242974.675 7 -18812729.672 2
 90 10 22 13 46 14.9980000  0  5 02 12 06 13 09
  22401264.146     7549419.657 6   6338441.469 1
  22388926.021   -11172897.809 6  -7912634.379 1
  20820551.561    -8001043.096 7   3007375.650 3
  19945023.623   -25350016.764 7    196595.148 2
  19943745.232   -24253870.991 7 -18821220.321 2
 90 10 22 13 46 29.9980000  0  5 02 12 06 13 09
  22406665.678     7577804.794 6   6360559.672 1
  22379792.576   -11220896.450 6  -7950035.928 1
  20826796.725    -7968217.524 7   3032953.973 3
  19946483.037   -25342344.716 7    202573.350 2
  19941701.943   -24264612.138 7 -18829590.063 2
 90 10 22 13 46 44.9980000  0  5 02 12 06 13 09
  22412079.287     7606244.334 6   6382720.281 1
  22370670.803   -11268834.421 6  -7987390.192 1
  20833068.568    -7935261.205 7   3058634.179 3
  19947963.678   -25334564.225 7    208636.055 2
  19939687.592   -24275198.571 7 -18837839.247 2
 90 10 22 13 46 59.9980000  0  5 02 12 06 13 09
  22417500.061     7634737.077 6   6404922.341 1
  22361560.318   -11316712.731 6  -8024697.990 1
  20839364.623    -7902175.864 7   3084414.923 3
  19949464.225   -25326676.957 7    214781.960 2
  19937700.881   -24285631.431 7 -18845968.764 2
 90 10 22 13 47 14.9980000  0  5 02 12 06 13 09
  22422932.998     7663281.969 6   6427165.033 1
  22352459.576   -11364532.167 6  -8061959.902 1
  20845685.920    -7868962.654 7   3110295.302 3
  19950985.670   -25318684.406 7    221009.907 2
  19935745.522   -24295911.940 7 -18853979.561 2
 90 10 22 13 47 29.9980000  0  5 02 12 06 13 09
  22428373.717     7691882.415 6   6449451.011 1
  22343371.912   -11412288.880 6  -8099172.937 1
  20852030.232    -7835618.204 7   3136277.947 3
  19952528.201   -25310583.213 7    227322.505 2
  19933818.240   -24306036.101 7 -18861868.537 2
 90 10 22 13 47 44.9980000  0  5 02 12 06 13 09
  22433826.318     7720537.542 6   6471779.600 1
  22334296.240   -11459983.294 6  -8136337.419 1
  20858400.725    -7802143.459 7   3162362.122 3
  19954089.772   -25302374.205 7    233719.115 2
  19931920.826   -24316004.556 7 -18869636.181 2
 90 10 22 13 47 59.9980000  0  5 02 12 06 13 09
  22439288.607     7749246.321 6   6494149.993 1
  22325232.021   -11507616.087 6  -8173453.900 1
  20864795.662    -7768539.857 7   3188546.701 3
  19955671.271   -25294058.837 7    240198.602 2
  19930054.701   -24325818.261 7 -18877283.243 2
 90 10 22 13 48 14.9980000  0  5 02 12 06 13 09
  22444763.162     7778004.876 6   6516559.181 1
  22316177.732   -11555190.762 6  -8210525.095 1
  20871213.748    -7734811.389 7   3214828.581 3
  19957273.920   -25285641.375 7    246757.651 2
  19928215.365   -24335480.801 7 -18884812.515 2
 90 10 22 13 48 29.9980000  0  5 02 12 06 13 09
  22450246.373     7806817.516 6   6539010.512 1
  22307137.334   -11602702.674 6  -8247547.378 1
  20877655.990    -7700953.812 7   3241211.059 3
  19958895.912   -25277117.695 7    253399.459 2
  19926406.014   -24344987.844 7 -18892220.616 2
 90 10 22 13 48 44.9980000  0  5 02 12 06 13 09
  22455738.529     7835684.639 6   6561504.285 1
  22298108.115   -11650151.193 6  -8284520.255 1
  20884124.904    -7666967.201 7   3267694.088 3
  19960537.623   -25268487.468 7    260124.295 2
  19924626.670   -24354338.866 7 -18899507.146 2
 90 10 22 13 48 59.9980000  0  5 02 12 06 13 09
  22461241.561     7864605.451 6   6584039.905 1
  22289091.975   -11697536.836 6  -8321444.146 1
  20890615.764    -7632852.501 7   3294276.926 3
  19962199.881   -25259751.990 7    266931.149 2
  19922878.068   -24363534.363 7 -18906672.484 2
 90 10 22 13 49 14.9980000  0  5 02 12 06 13 09
  22466758.365     7893582.072 6   6606619.005 1
  22280085.373   -11744857.084 6  -8358317.088 1
  20897131.022    -7598607.825 7   3320961.042 3
  19963883.529   -25250909.485 7    273821.394 2
  19921156.787   -24372572.159 7 -18913714.941 2
 90 10 22 13 49 29.9980000  0  5 02 12 06 13 09
  22472280.920     7922614.827 6   6629241.844 1
  22271093.943   -11792111.297 6  -8395138.559 1
  20903673.764    -7564233.138 7   3347746.464 3
  19965586.084   -25241960.165 7    280794.877 2
  19919467.881   -24381452.023 7 -18920634.332 2
 90 10 22 13 49 44.9980000  0  5 02 12 06 13 09
  22477816.146     7951701.814 6   6651906.949 1
  22262113.951   -11839301.099 6  -8431909.846 1
  20910239.522    -7529730.584 7   3374631.521 3
  19967309.357   -25232905.910 7    287850.113 2
  19917807.475   -24390175.432 7 -18927431.815 2
 90 10 22 13 49 59.9980000  0  5 02 12 06 13 09
  22483362.100     7980841.330 6   6674612.979 1
  22253147.326   -11886427.752 6  -8468631.932 1
  20916830.139    -7495101.987 7   3401614.796 3
  19969051.365   -25223748.763 7    294985.529 2
  19916177.318   -24398743.934 7 -18934108.592 2
 90 10 22 13 50 14.9980000  0  5 02 12 06 13 09
  22488918.514     8010035.994 6   6697361.983 1
  22244190.936   -11933488.232 6  -8505302.451 1
  20923443.420    -7460344.701 7   3428698.350 3
  19970814.982   -25214486.206 7    302203.086 2
  19914576.115   -24407154.835 7 -18940662.563 2
 90 10 22 13 50 29.9980000  0  5 02 12 06 13 09
  22494484.771     8039283.823 6   6720152.410 1
  22235248.107   -11980484.214 6  -8541922.707 1
  20930080.865    -7425461.248 7   3455880.214 3
  19972595.357   -25205120.822 7    309500.771 2
  19913005.811   -24415409.650 7 -18947094.910 2
 90 10 22 13 50 44.9980000  0  5 02 12 06 13 09
  22500058.818     8068582.785 6   6742982.679 1
  22226316.982   -12027417.115 6  -8578493.818 1
  20936743.506    -7390453.559 7   3483158.884 3
  19974397.717   -25195654.373 7    316877.202 2
  19911463.826   -24423510.348 7 -18953407.165 2
 90 10 22 13 50 59.9980000  0  5 02 12 06 13 09
  22505643.553     8097937.250 6   6765856.206 1
  22217399.475   -12074282.493 6  -8615012.303 1
  20943430.436    -7355317.626 7   3510537.482 3
  19976218.904   -25186082.876 7    324335.492 2
  19909953.467   -24431452.563 7 -18959595.923 2
 90 10 22 13 51 14.9980000  0  5 02 12 06 13 09
  22511239.904     8127347.428 6   6788773.147 1
  22208493.311   -12121079.927 6  -8651477.853 1
  20950140.115    -7320053.662 7   3538015.847 3
  19978060.436   -25176406.865 7    331875.221 2
  19908471.568   -24439236.087 7 -18965661.030 2
 90 10 22 13 51 29.9980000  0  5 02 12 06 13 09
  22516848.139     8156812.043 6   6811732.499 1
  22199600.990   -12167810.114 6  -8687891.004 1
  20956873.443    -7284663.076 7   3565592.878 3
  19979921.936   -25166627.513 7    339495.479 2
  19907019.740   -24446861.930 7 -18971603.266 2
 90 10 22 13 51 44.9980000  0  5 02 12 06 13 09
  22522467.209     8186331.846 6   6834734.856 1
  22190721.568   -12214472.014 6  -8724250.946 1
  20963632.920    -7249145.092 7   3593269.182 3
  19981802.920   -25156744.340 7    347196.633 2
  19905599.584   -24454329.052 7 -18977421.821 2
 90 10 22 13 51 59.9980000  0  5 02 12 06 13 09
  22528094.311     8215906.332 6   6857779.816 1
  22181854.412   -12261065.956 6  -8760557.925 1
  20970415.014    -7213500.762 7   3621043.935 3
  19983702.889   -25146758.322 7    354977.929 2
  19904209.334   -24461637.978 7 -18983117.106 2
 90 10 22 13 52 14.9980000  0  5 02 12 06 13 09
  22533731.342     8245535.778 6   6880867.609 1
  22173002.076   -12307591.094 6  -8796811.293 1
  20977223.420    -7177729.908 7   3648917.279 3
  19985622.912   -25136669.461 7    362839.358 2
  19902848.428   -24468788.157 7 -18988688.693 2
 90 10 22 13 52 29.9980000  0  5 02 12 06 13 09
  22539382.217     8275220.160 6   6903998.210 1
  22164161.428   -12354047.187 6  -8833010.864 1
  20984054.100    -7141832.770 7   3676889.026 3
  19987561.545   -25126477.958 7    370780.770 2
  19901517.412   -24475779.406 7 -18994136.440 2
 90 10 22 13 52 44.9980000  0  5 02 12 06 13 09
  22545038.084     8304953.395 6   6927166.874 1
  22155332.693   -12400439.868 6  -8869161.021 1
  20990907.959    -7105815.575 7   3704954.322 3
  19989520.646   -25116190.061 7    378797.297 2
  19900215.748   -24482617.907 7 -18999465.162 2
 90 10 22 13 52 59.9980000  0  5 02 12 06 13 09
  22550707.514     8334740.773 6   6950377.721 1
  22146518.686   -12446763.446 6  -8905257.334 1
  20997785.404    -7069673.250 7   3733117.122 3
  19991497.459   -25105800.806 7    386892.803 2
  19898945.115   -24489297.855 7 -19004670.332 2
 90 10 22 13 53 14.9980000  0  5 02 12 06 13 09
  22556384.795     8364580.040 6   6973629.010 1
  22137715.693   -12493020.056 6  -8941301.466 1
  21004686.670    -7033408.421 7   3761375.384 3
  19993492.920   -25095312.853 7    395065.210 2
  19897704.240   -24495821.610 7 -19009753.802 2
 90 10 22 13 53 29.9980000  0  5 02 12 06 13 09
  22562074.147     8394474.303 6   6996923.153 1
  22128927.467   -12539206.142 6  -8977290.630 1
  21011611.943    -6997018.045 7   3789731.474 3
  19995508.037   -25084723.081 7    403316.959 2
  19896493.201   -24502186.007 7 -19014713.096 2
 90 10 22 13 53 44.9980000  0  5 02 12 06 13 09
  22567773.498     8424422.019 6   7020258.941 1
  22120150.639   -12585322.961 6  -9013225.827 1
  21018560.240    -6960504.248 7   3818183.728 3
  19997542.232   -25074033.722 7    411646.310 2
  19895311.529   -24508392.374 7 -19019549.248 2
 90 10 22 13 53 59.9980000  0  5 02 12 06 13 09
  22573482.451     8454423.804 6   7043636.865 1
  22111389.232   -12631369.360 6  -9049106.158 1
  21025531.850    -6923866.392 7   3846732.660 3
  19999594.678   -25063244.171 7    420053.731 2
  19894160.412   -24514439.905 7 -19024261.628 2
 90 10 22 13 54 14.9980000  0  5 02 12 06 13 09
  22579200.295     8484480.876 6   7067057.864 1
  22102640.545   -12677343.824 6  -9084930.436 1
  21032527.303    -6887103.309 7   3875379.168 3
  20001667.607   -25052353.351 7    428540.060 2
  19893040.506   -24520327.209 7 -19028849.157 2
 90 10 22 13 54 29.9980000  0  5 02 12 06 13 09
  22584933.279     8514591.147 6   7090520.320 1
  22093904.967   -12723248.166 6  -9120700.062 1
  21039546.920    -6850217.545 7   3904121.273 3
  20003758.748   -25041363.952 7    437103.208 2
  19891950.396   -24526056.409 7 -19033313.493 2
 90 10 22 13 54 44.9980000  0  5 02 12 06 13 09
  22590671.521     8544751.145 6   7114021.527 1
  22085182.443   -12769085.446 6  -9156417.444 1
  21046588.490    -6813212.787 7   3932956.100 2
  20005867.295   -25030279.650 7    445740.303 2
  19890890.576   -24531630.657 7 -19037657.083 2
 90 10 22 13 54 59.9980000  0  5 02 12 06 13 09
  22596421.943     8574965.031 6   7137564.723 1
  22076473.670   -12814851.207 6  -9192079.091 1
  21053653.498    -6776085.109 7   3961886.702 3
  20007995.053   -25019096.261 7    454454.605 2
  19889859.857   -24537045.743 7 -19041876.651 2
 90 10 22 13 55 14.9980000  0  5 02 12 06 13 09
  22602181.381     8605235.188 6   7161151.769 1
  22067779.389   -12860542.534 6  -9227682.744 1
  21060742.889    -6738832.138 7   3990914.940 3
  20010143.990   -25007811.716 7    463247.734 2
  19888859.170   -24542299.040 7 -19045970.149 2
 90 10 22 13 55 29.9980000  0  5 02 12 06 13 09
  22607950.904     8635559.864 6   7184781.292 1
  22059097.295   -12906160.974 6  -9263229.595 1
  21067855.646    -6701456.180 7   4020039.010 3
  20012309.521   -24996428.236 7    472117.955 2
  19887890.397   -24547392.516 7 -19049939.118 2
 90 10 22 13 55 44.9980000  0  5 02 12 06 13 09
  22613730.748     8665937.909 6   7208452.403 1
  22050430.717   -12951707.470 6  -9298720.390 1
  21074991.561    -6663958.590 7   4049257.860 3
  20014493.818   -24984947.499 7    481063.957 2
  19886951.443   -24552326.920 7 -19053784.127 2
 90 10 22 13 55 59.9980000  0  5 02 12 06 13 09
  22619524.186     8696367.909 6   7232164.000 1
  22041776.584   -12997182.916 6  -9334155.820 1
  21082149.334    -6626340.840 7   4078570.338 2
  20016697.967   -24973370.754 7    490084.774 2
  19886042.209   -24557103.392 7 -19057506.079 2
 90 10 22 13 56 14.9980000  0  5 02 12 06 13 09
  22625322.623     8726846.499 6   7255913.449 1
  22033137.779   -13042590.372 6  -9369538.270 1
  21089330.186    -6588606.655 7   4107973.549 2
  20018917.662   -24961701.984 7    499177.297 2
  19885163.365   -24561725.473 7 -19061107.723 2
 90 10 22 13 56 29.9980000  0  5 02 12 06 13 09
  22631133.334     8757378.302 6   7279704.371 1
  22024509.107   -13087924.854 6  -9404863.865 1
  21096534.342    -6550751.638 7   4137470.913 2
  20021156.912   -24949936.874 7    508344.893 2
  19884314.561   -24566188.302 7 -19064585.273 2
 90 10 22 13 56 44.9980000  0  5 02 12 06 13 09
  22636954.490     8787968.266 6   7303540.613 1
  22015897.482   -13133181.007 6  -9440128.413 1
  21103761.646    -6512771.131 7   4167066.060 2
  20023415.076   -24938070.528 7    517591.370 2
  19883496.459   -24570486.908 7 -19067934.857 2
 90 10 22 13 56 59.9980000  0  5 02 12 06 13 09
  22642786.178     8818611.167 6   7327418.099 1
  22007298.600   -13178363.582 6  -9475335.633 1
  21111011.576    -6474670.465 7   4196754.838 2
  20025691.842   -24926108.268 7    526912.590 2
  19882708.178   -24574626.217 7 -19071160.320 2
 90 10 22 13 57 14.9980000  0  5 02 12 06 13 09
  22648628.326     8849306.631 6   7351336.559 1
  21998714.943   -13223472.612 6  -9510485.546 1
  21118285.420    -6436450.095 7   4226536.894 2
  20027985.756   -24914050.974 7    536307.861 2
  19881951.139   -24578606.554 7 -19074261.898 2
 90 10 22 13 57 29.9980000  0  5 02 12 06 13 09
  22654480.240     8880058.720 6   7375299.130 1
  21990146.061   -13268503.770 6  -9545574.779 1
  21125580.295    -6398106.505 7   4256414.962 2
  20030298.584   -24901894.895 7    545780.105 2
  19881223.982   -24582423.539 7 -19077236.194 2
 90 10 22 13 57 44.9980000  0  5 02 12 06 13 09
  22660340.498     8910860.629 6   7399300.524 1
  21981591.654   -13313463.420 6  -9580608.290 1
  21132899.771    -6359646.610 7   4286383.658 2
  20032629.873   -24889647.044 7    555323.859 2
  19880527.982   -24586084.041 7 -19080088.555 2
 90 10 22 13 57 59.9980000  0  5 02 12 06 13 09
  22666212.982     8941717.960 6   7423345.099 1
  21973050.436   -13358345.782 6  -9615581.572 1
  21140242.209    -6321065.321 7   4316446.945 2
  20034978.123   -24877302.151 7    564943.229 2
  19879862.537   -24589582.628 7 -19082814.750 2
 90 10 22 13 58 14.9980000  0  5 02 12 06 13 09
  22672096.467     8972629.998 6   7447432.302 1
  21964524.420   -13403150.985 6  -9650494.739 1
  21147606.920    -6282363.201 7   4346604.387 2
  20037346.209   -24864861.066 7    574637.552 2
  19879226.662   -24592919.489 7 -19085414.923 2
 90 10 22 13 58 29.9980000  0  5 02 12 06 13 09
  22677988.600     9003594.002 6   7471560.003 1
  21956011.498   -13447881.587 6  -9685349.779 1
  21154995.240    -6243543.476 7   4376853.471 2
  20039731.201   -24852326.746 7    584404.531 2
  19878622.162   -24596097.287 7 -19087891.151 2
 90 10 22 13 58 44.9980000  0  5 02 12 06 13 09
  22683890.279     9034612.393 6   7495730.076 1
  21947514.029   -13492534.600 6  -9720144.342 1
  21162404.678    -6204603.766 7   4407196.043 2
  20042134.420   -24839697.089 7    594245.797 2
  19878047.896   -24599113.627 7 -19090241.569 2
 90 10 22 13 58 59.9980000  0  5 02 12 06 13 09
  22689802.022     9065685.982 6   7519943.170 1
  21939032.959   -13537108.994 6  -9754877.662 1
  21169835.959    -6165543.660 7   4437632.438 2
  20044556.037   -24826971.774 7    604161.601 2
  19877505.928   -24601967.645 7 -19092465.502 2
 90 10 22 13 59 14.9980000  0  5 02 12 06 13 09
  22695726.904     9096809.530 6   7544195.186 1
  21930564.912   -13581609.435 6  -9789553.352 1
  21177292.654    -6126368.443 7   4468158.527 2
  20046995.420   -24814156.072 7    614147.838 2
  19876992.842   -24604664.214 7 -19094566.747 2
 90 10 22 13 59 29.9980000  0  5 02 12 06 13 09
  22701659.045     9127985.708 6   7568488.196 1
  21922111.459   -13626033.088 6  -9824169.206 1
  21184768.748    -6087075.908 7   4498776.031 2
  20049451.568   -24801247.616 7    624206.351 2
  19876509.436   -24607200.572 7 -19096543.155 2
 90 10 22 13 59 44.9980000  0  5 02 12 06 13 09
  22707599.193     9159213.615 6   7592821.537 1
  21913672.584   -13670380.504 6  -9858725.652 1
  21192268.357    -6047667.055 7   4529484.178 2
  20051925.529   -24788247.792 7    634336.056 2
  19876057.787   -24609577.765 7 -19098395.532 2
 90 10 22 13 59 59.9980000  0  5 02 12 06 13 09
  22713554.271     9190496.270 5   7617197.526 1
  21905249.334   -13714648.360 6  -9893220.109 1
  21199789.053    -6008139.398 7   4560284.888 2
  20054416.873   -24775153.673 7    644539.242 2
  19875635.272   -24611792.692 7 -19100121.476 2
 90 10 22 14  0 14.9980000  0  5 02 12 06 13 09
  22719516.795     9221832.703 6   7641615.431 1
  21896838.717   -13758837.253 6  -9927653.035 1
  21207335.842    -5968494.001 7   4591177.353 2
  20056926.725   -24761966.723 7    654814.764 2
  19875246.256   -24613846.075 7 -19101721.533 2
 90 10 22 14  0 29.9980000  0  5 02 12 06 13 09
  22725490.904     9253222.081 6   7666074.579 1
  21888445.279   -13802947.680 6  -9962024.812 1
  21214900.022    -5928731.909 7   4622160.746 2
  20059453.475   -24748688.029 7    665161.776 2
  19874885.701   -24615738.615 7 -19103196.266 2
 90 10 22 14  0 44.9980000  0  5 02 12 06 13 09
  22731473.920     9284666.425 5   7690576.565 1
  21880066.459   -13846977.202 6  -9996333.556 1
  21222490.498    -5888851.409 7   4653236.404 2
  20061998.467   -24735315.586 7    675581.833 2
  19874555.389   -24617468.380 7 -19104544.160 2
 90 10 22 14  0 59.9980000  0  5 02 12 06 13 09
  22737468.170     9316166.015 5   7715121.605 1
  21871702.178   -13890925.170 6 -10030578.744 1
  21230101.514    -5848852.418 6   4684404.396 2
  20064561.326   -24721849.527 7    686074.842 2
  19874256.701   -24619034.826 7 -19105764.792 2
 90 10 22 14  1 14.9980000  0  5 02 12 06 13 09
  22743474.826     9347722.207 5   7739710.744 1
  21863357.381   -13934789.992 6 -10064759.139 1
  21237735.186    -5808733.939 6   4715665.493 2
  20067141.631   -24708288.927 7    696641.513 2
  19873991.232   -24620436.454 7 -19106856.996 2
 90 10 22 14  1 29.9980000  0  5 02 12 06 13 09
  22749489.896     9379333.634 5   7764342.916 1
  21855025.631   -13978572.497 6 -10098875.403 1
  21245391.764    -5768497.424 6   4747018.562 2
  20069740.045   -24694635.242 7    707280.723 2
  19873756.334   -24621674.682 7 -19107821.872 2
 90 10 22 14  1 44.9980000  0  5 02 12 06 13 09
  22755513.100     9410997.592 5   7789016.034 1
  21846709.514   -14022275.119 6 -10132929.414 2
  21253071.521    -5728145.907 6   4778461.250 2
  20072354.928   -24680891.390 7    717990.190 2
  19873550.506   -24622751.960 7 -19108661.339 2
 90 10 22 14  1 59.9980000  0  5 02 12 06 13 09
  22761550.756     9442715.569 5   7813731.239 1
  21838408.686   -14065895.821 6 -10166919.584 1
  21260770.842    -5687678.049 6   4809994.592 2
  20074987.537   -24667056.044 7    728770.951 2
  19873376.256   -24623666.564 7 -19109374.037 2
 90 10 22 14  2 14.9980000  0  5 02 12 06 13 09
  22767595.600     9474488.434 5   7838489.212 1
  21830123.529   -14109433.364 6 -10200844.970 1
  21268494.639    -5647093.251 6   4841619.060 2
  20077637.889   -24653128.778 7    739623.335 2
  19873232.865   -24624417.776 7 -19109959.423 2
 90 10 22 14  2 29.9980000  0  5 02 12 06 13 09
  22773652.537     9506317.189 5   7863290.742 1
  21821854.529   -14152886.485 6 -10234704.561 2
  21276240.373    -5606390.903 6   4873335.124 2
  20080305.990   -24639108.920 7    750547.875 2
  19873120.514   -24625004.600 7 -19110416.718 2
 90 10 22 14  2 44.9980000  0  5 02 12 06 13 09
  22779718.795     9538199.618 5   7888134.084 1
  21813602.131   -14196257.023 6 -10268499.804 1
  21284007.498    -5565573.395 6   4905140.916 2
  20082990.631   -24624998.925 7    761542.645 2
  19873040.193   -24625428.947 7 -19110747.404 2
 90 10 22 14  2 59.9980000  0  5 02 12 06 13 09
  22785799.186     9570137.926 5   7913020.987 1
  21805364.662   -14239542.418 6 -10302228.703 1
  21291797.193    -5524638.814 6   4937037.938 2
  20085693.428   -24610796.800 7    772609.212 2
  19872992.670   -24625688.518 7
 90 10 22 14  3 14.9980000  0  5 02 12 06 13 09
  22791885.756     9602132.608 5   7937951.799 1
  21797144.225   -14282741.925 6 -10335890.672 1
  21299609.568    -5483587.026 6   4969026.289 2
  20088413.514   -24596502.393 7    783747.679 2
  19872973.717   -24625782.944 7
 90 10 22 14  3 29.9980000  0  5 02 12 06 13 09
  22797985.607     9634180.863 5   7962924.353 1
  21788939.600   -14325857.846 6 -10369487.517 2
  21307442.545    -5442420.909 6   5001103.724 2
  20091150.834   -24582118.813 7    794955.632 2
  19872988.045   -24625714.876 7
 90 10 22 14  3 44.9980000  0  5 02 12 06 13 09
  22804095.037     9666282.263 5   7987938.331 1
  21780750.584   -14368890.278 6 -10403019.297 1
  21315297.998    -5401141.228 6   5033269.656 2
  20093905.162   -24567646.862 7    806232.453 2
  19873031.725   -24625484.480 7
 90 10 22 14  3 59.9980000  0  5 02 12 06 13 09
  22810215.553     9698436.020 5   8012993.098 1
  21772577.717   -14411839.597 6 -10436486.321 2
  21323175.303    -5359748.968 6   5065523.313 2
  20096675.193   -24553087.441 7    817577.426 2
  19873106.248   -24625092.526 7
 90 10 22 14  4 14.9980000  0  5 02 12 06 13 09
  22816341.686     9730644.372 5   8038090.422 1
  21764421.982   -14454703.285 7 -10469886.618 2
  21331071.662    -5318242.374 6   5097866.056 2
  20099462.896   -24538438.621 7    828992.073 2
  19873212.701   -24624536.985 7        -0.03012
 90 10 22 14  4 29.9980000  0  5 02 12 06 13 09
  22822483.318     9762905.618 5   8063228.951 1
  21756279.584   -14497482.509 6 -10503221.099 2
  21338994.420    -5276623.055 6   5130296.637 2
  20102267.084   -24523702.192 7    840474.980 2
  19873347.725   -24623819.224 7       559.240 2
 90 10 22 14  4 44.9980000  0  5 02 12 06 13 09
  22828632.576     9795219.839 5   8088408.752 1
  21748155.709   -14540176.814 6 -10536489.406 2
  21346935.178    -5234891.362 6   5162814.786 2
  20105087.990   -24508878.402 7    852025.960 2
  19873514.928   -24622938.924 7      1245.158 2
 90 10 22 14  4 59.9980000  0  5 02 12 06 13 09
  22834788.576     9827589.420 5   8113631.700 1
  21740048.631   -14582783.703 7 -10569689.598 2
  21354895.764    -5193045.321 6   5195422.033 2
  20107926.037   -24493965.352 7    863646.495 2
  19873713.959   -24621893.951 7      2059.397 2
 90 10 22 14  5 14.9980000  0  5 02 12 06 13 09
  22840957.451     9860011.580 5   8138895.620 1
  21731956.811   -14625305.450 7 -10602823.451 2
  21362881.615    -5151087.884 6   5228116.087 2
  20110780.529   -24478965.932 7    875334.328 2
  19873944.803   -24620686.848 7      2999.973 2
 90 10 22 14  5 29.9980000  0  5 02 12 06 13 09
  22847141.553     9892489.501 5   8164202.987 1
  21723882.373   -14667738.420 7 -10635888.118 2
  21370888.615    -5109016.202 6   5260899.161 2
  20113651.740   -24463877.530 7    887091.502 2
  19874205.592   -24619314.478 7      4069.325 2
 90 10 22 14  5 44.9980000  0  5 02 12 06 13 09
  22853332.803     9925019.181 5   8189550.682 1
  21715822.646   -14710086.473 7 -10668886.621 2
  21378917.295    -5066834.518 6   5293767.944 2
  20116539.068   -24448704.142 7    898914.893 2
  19874497.295   -24617780.857 7      5264.328 2
 90 10 22 14  5 59.9980000  0  5 02 12 06 13 09
  22859531.037     9957602.567 5   8214940.221 1
  21707781.092   -14752347.125 7 -10701817.019 2
  21386965.334    -5024541.069 6   5326723.823 2
  20119443.248   -24433444.130 7    910805.786 2
  19874819.373   -24616083.618 7      6586.828 2
 90 10 22 14  6 14.9980000  0  5 02 12 06 13 09
  22865739.811     9990237.047 5   8240369.583 1
  21699755.178   -14794522.546 6 -10734681.000 2
  21395033.178    -4982138.591 6   5359764.658 2
  20122363.896   -24418100.082 7    922762.160 2
  19875174.397   -24614225.460 7      8034.716 2
 90 10 22 14  6 29.9980000  0  5 02 12 06 13 09
  22871961.014    10022925.425 5   8265840.948 1
  21691746.912   -14836609.559 7 -10767476.088 2
  21403122.107    -4939624.610 6   5392892.378 2
  20125298.920   -24402669.692 7    934785.813 2
  19875559.107   -24612203.330 7      9610.375 2
 90 10 22 14  6 44.9980000  0  5 02 12 06 13 09
  22878192.256    10055668.682 5   8291355.071 1
  21683754.639   -14878606.805 7 -10800201.235 2
  21411235.256    -4896998.384 6   5426107.562 2
  20128251.670   -24387152.081 7    946877.430 2
  19875974.623   -24610016.348 7     11314.495 2
 90 10 22 14  6 59.9980000  0  5 02 12 06 13 09
  22884435.826    10088465.092 5   8316910.618 1
  21675779.170   -14920515.700 7 -10832857.536 2
  21419367.412    -4854262.087 6   5459408.521 2
  20131221.186   -24371549.473 7    959035.276 2
  19876422.053   -24607666.272 7     13145.699 2
 90 10 22 14  7 14.9980000  0  5 02 12 06 13 09
  22890685.264    10121316.305 5   8342508.863 1
  21667821.818   -14962334.193 7 -10865443.390 2
  21427521.709    -4811414.222 6   5492796.412 2
  20134206.350   -24355860.598 7    971260.351 2
  19876900.537   -24605151.207 7     15105.467 2
 90 10 22 14  7 29.9980000  0  5 02 12 06 13 09
  22896944.811    10154220.321 5   8368148.249 1
  21659880.889   -15004064.084 7 -10897960.210 2
  21435692.787    -4768457.212 6   5526269.346 2
  20137208.553   -24340087.829 7    983550.788 2
  19877410.936   -24602473.087 7     17192.289 2
 90 10 22 14  7 44.9980000  0  5 02 12 06 13 09
  22903213.842    10187179.386 5   8393830.538 1
  21651957.326   -15045702.813 7 -10930405.989 2
  21443891.686    -4725389.114 6   5559828.845 2
  20140226.006   -24324229.032 7    995908.267 2
  19877950.912   -24599630.118 7     19407.568 2
 90 10 22 14  7 59.9980000  0  5 02 12 06 13 09
  22909499.107    10220189.955 5   8419552.953 1
  21644051.342   -15087253.302 7 -10962783.006 2
  21452105.404    -4682213.518 6   5593472.104 2
  20143259.311   -24308287.947 7   1008329.866 2
  19878522.920   -24596625.348 7     21748.920 2
 90 10 22 14  8 14.9980000  0  5 02 12 06 13 09
  22915790.420    10253251.291 5   8445314.937 1
  21636161.146   -15128716.028 7 -10995091.643 2
  21460343.342    -4638931.652 6   5627198.173 2
  20146308.678   -24292265.801 7   1020814.626 2
  19879124.850   -24593459.428 7     24215.848 2
 90 10 22 14  8 29.9980000  0  5 02 12 06 13 09
  22922091.795    10286366.318 5   8471118.748 1
  21628287.967   -15170087.557 7 -11027329.219 2
  21468601.264    -4595540.593 6   5661009.330 2
  20149374.045   -24276159.624 7   1033364.865 2
  19879758.662   -24590129.346 7     26810.691 2
 90 10 22 14  8 44.9980000  0  5 02 12 06 13 09
  22928410.123    10319535.421 5   8496964.700 1
  21620433.662   -15211367.140 7 -11059495.142 2
  21476878.381    -4552040.276 6   5694905.623 2
  20152454.084   -24259969.430 7   1045980.574 2
  19880423.811   -24586634.732 7     29533.741 2
 90 10 22 14  8 59.9980000  0  5 02 12 06 13 09
  22934731.514    10352758.412 5   8522852.653 1
  21612594.670   -15252554.709 7 -11091589.374 2
  21485175.154    -4508431.316 6   5728886.572 2
  20155550.318   -24243695.690 7   1058661.381 2
  19881120.764   -24582975.946 7     32384.724 2
 90 10 22 14  9 14.9980000  0  5 02 12 06 13 09
  22941061.764    10386035.733 5   8548782.933 1
  21604774.537   -15293649.363 7 -11123611.198 2
  21493496.053    -4464713.511 6   5762952.337 2
  20158664.357   -24227338.032 7   1071407.579 2
  19881848.045   -24579152.273 7     35364.181 2
 90 10 22 14  9 29.9980000  0  5 02 12 06 13 09
  22947402.717    10419365.470 5   8574754.062 1
  21596971.795   -15334652.468 7 -11155561.686 2
  21501835.123    -4420888.839 6   5797101.379 2
  20161792.264   -24210898.567 7   1084217.525 2
  19882606.857   -24575165.327 7     38470.866 2
 90 10 22 14  9 44.9980000  0  5 02 12 06 13 09
  22953753.342    10452746.549 5   8600765.175 1
  21589188.217   -15375564.838 7 -11187441.475 2
  21510192.975    -4376958.766 6   5831332.543 2
  20164935.623   -24194378.911 7   1097089.947 2
  19883395.428   -24571016.409 7     41703.769 2
 90 10 22 14  9 59.9980000  0  5 02 12 06 13 09
  22960120.592    10486182.963 5   8626819.414 1
  21581418.982   -15416382.172 7 -11219247.205 2
  21518575.662    -4332919.702 6   5865648.639 2
  20168095.623   -24177775.250 7   1110027.834 2
  19884217.717   -24566701.534 7     45065.983 2
 90 10 22 14 10 14.9980000  0  5 02 12 06 13 09
  22966491.193    10519672.364 5   8652914.935 1
  21573669.686   -15457106.543 7 -11250980.499 2
  21526975.857    -4288774.172 6   5900047.694 2
  20171270.545   -24161090.324 7   1123029.047 2
  19885069.811   -24562223.012 7     48555.718 2
 90 10 22 14 10 29.9980000  0  5 02 12 06 13 09
  22972871.350    10553214.794 5   8679051.794 1
  21565938.115   -15497737.569 7 -11282641.065 2
  21535394.990    -4244522.480 6   5934529.473 2
  20174461.068   -24144324.320 7   1136093.433 2
  19885952.928   -24557580.620 7     52173.140 2
 90 10 22 14 10 44.9980000  0  5 02 12 06 13 09
  22979265.826    10586805.799 5   8705226.501 1
  21558222.951   -15538279.084 7 -11314231.876 2
  21543836.537    -4200169.224 6   5969090.391 2
  20177666.061   -24127481.768 7   1149217.469 2
  19886866.545   -24552778.803 7     55914.791 2
 90 10 22 14 10 59.9980000  0  5 02 12 06 13 09
  22985667.232    10620450.133 5   8731442.757 1
  21550525.826   -15578726.131 7 -11345749.070 2
  21552297.178    -4155709.999 6   6003733.884 2
  20180886.006   -24110558.378 7   1162404.492 2
  19887811.107   -24547812.925 7     59784.282 2
 90 10 22 14 11 14.9980000  0  5 02 12 06 13 09
  22992079.303    10654146.236 5   8757699.352 1
  21542847.459   -15619079.863 7 -11377193.557 2
  21560777.162    -4111146.683 6   6038458.483 2
  20184121.553   -24093555.917 7   1175653.132 2
  19888788.170   -24542684.209 7     63780.656 2
 90 10 22 14 11 29.9980000  0  5 02 12 06 13 09
  22998502.967    10687894.272 5   8783996.419 1
  21535185.990   -15659339.742 7 -11408564.910 2
  21569278.029    -4066479.312 6   6073264.169 2
  20187372.154   -24076474.452 7   1188963.331 2
  19889794.787   -24537392.548 7     67903.998 2
 90 10 22 14 11 44.9980000  0  5 02 12 06 13 09
  23004934.178    10721692.379 5   8810332.491 1
  21527542.498   -15699507.267 7 -11439864.302 2
  21577796.350    -4021710.175 6   6108149.154 2
  20190637.186   -24059316.239 7   1202333.334 2
  19890832.373   -24531940.030 7     72152.689 2
 90 10 22 14 11 59.9980000  0  5 02 12 06 13 09
  23011374.592    10755542.477 5   8836709.089 1
  21519917.084   -15739580.142 7 -11471089.939 2
  21586335.764    -3976837.376 6   6143114.907 2
  20193918.014   -24042079.457 7   1215764.559 2
  19891900.975   -24526324.486 7     76528.404 2
 90 10 22 14 12 14.9980000  0  5 02 12 06 13 09
  23017824.623    10789444.615 5   8863126.229 1
  21512309.170   -15779557.859 7 -11502241.425 2
  21594895.459    -3931861.239 6   6178161.183 2
  20197212.482   -24024764.210 7   1229256.928 2
  19893000.498   -24520545.756 7     81031.286 2
 90 10 22 14 12 29.9980000  0  5 02 12 06 13 09
  23024289.834    10823399.097 5   8889584.161 1
  21504720.990   -15819439.835 7 -11533318.309 2
  21603474.709    -3886781.809 6   6213287.951 2
  20200522.982   -24007370.630 7   1242810.333 2
  19894130.959   -24514603.416 7     85661.655 2
 90 10 22 14 12 44.9980000  0  5 02 12 06 13 09
  23030759.592    10857403.311 5   8916080.830 1
  21497148.584   -15859228.119 7 -11564322.191 2
  21612072.365    -3841601.793 6   6248493.097 1
  20203847.107   -23989901.525 7   1256422.591 2
  19895292.639   -24508500.218 7     90417.364 2
 90 10 22 14 12 59.9980000  0  5 02 12 06 13 09
  23037239.131    10891458.686 5   8942617.386 1
  21489595.428   -15898921.127 7 -11595251.830 2
  21620688.592    -3796320.266 6   6283777.336 2
  20207186.529   -23972355.977 7   1270094.415 2
  19896485.334   -24502234.914 7     95299.393 2
 90 10 22 14 13 14.9980000  0  5 02 12 06 13 09
  23043731.396    10925569.024 5   8969196.758 1
  21482060.490   -15938514.693 7 -11626103.980 2
  21629323.725    -3750933.826 6   6319143.331 1
  20210540.490   -23954730.478 7   1283828.538 2
  19897709.029   -24495803.499 7    100310.859 2
 90 10 22 14 13 29.9980000  0  5 02 12 06 13 09
  23050232.803    10959733.807 5   8995818.555 1
  21474545.529   -15978008.708 7 -11656878.560 2
  21637982.248    -3705442.922 6   6354590.722 1
  20213908.389   -23937025.260 7   1297624.778 2
  19898964.701   -24489206.410 7    105451.416 2
 90 10 22 14 13 44.9980000  0  5 02 12 06 13 09
  23056742.311    10993953.156 5   9022482.878 1
  21467048.654   -16017402.700 7 -11687575.201 2
  21646657.092    -3659847.803 6   6390119.323 2
  20217292.896   -23919240.863 7   1311482.716 2
  19900251.490   -24482443.316 7    110721.330 2
 90 10 22 14 13 59.9980000  0  5 02 12 06 13 09
  23063267.522    11028224.792 5   9049187.937 1
  21459570.889   -16056698.808 7 -11718195.566 2
  21655354.553    -3614151.153 6   6425727.037 2
  20220691.873   -23901379.703 7   1325400.473 2
  19901569.459   -24475516.736 7    116118.640 2
 90 10 22 14 14 14.9980000  0  5 02 12 06 13 09
  23069798.201    11062549.883 5   9075934.648 1
  21452112.451   -16095895.304 7 -11748738.313 2
  21664068.748    -3568351.978 6   6461414.640 2
  20224105.217   -23883440.870 7   1339378.755 2
  19902919.193   -24468425.377 7    121644.346 2
 90 10 22 14 14 29.9980000  0  5 02 12 06 13 09
  23076341.318    11096924.544 5   9102719.981 1
  21444672.732   -16134995.687 7 -11779206.167 2
  21672801.842    -3522454.434 6   6497178.900 2
  20227533.389   -23865428.438 7   1353414.387 2
  19904298.662   -24461172.969 7    127295.545 2
 90 10 22 14 14 44.9980000  0  5 02 12 06 13 09
  23082891.881    11131355.709 5   9129549.351 1
  21437251.272   -16173992.768 7 -11809593.523 2
  21681556.607    -3476451.883 6   6533024.977 1
  20230976.568   -23847335.663 7   1367512.629 2
  19905711.732   -24453752.828 7    133077.449 2
 90 10 22 14 14 59.9980000  0  5 02 12 06 13 09
  23089453.232    11165836.074 5   9156417.054 1
  21429849.818   -16212893.403 7 -11839905.726 2
  21690328.279    -3430351.998 6   6568946.902 1
  20234432.701   -23829170.427 7   1381667.331 2
  19907153.928   -24446172.159 7    138984.431 2
 90 10 22 14 15 14.9980000  0  5 02 12 06 13 09
  23096024.404    11200367.307 5   9183324.401 1
  21422465.279   -16251695.625 7 -11870141.247 2
  21699123.217    -3384153.330 6   6604945.798 1
  20237903.256   -23810931.256 7   1395879.643 2
  19908627.350   -24438429.389 7    145017.732 2
 90 10 22 14 15 29.9980000  0  5 02 12 06 13 09
  23102605.951    11234952.507 5   9210273.795 1
  21415101.389   -16290395.836 7 -11900297.279 2
  21707929.834    -3337853.105 6   6641023.832 1
  20241390.029   -23792615.314 7   1410151.779 2
  19910131.701   -24430521.192 7    151179.938 2
 90 10 22 14 15 44.9980000  0  5 02 12 06 13 09
  23109196.654    11269586.735 5   9237261.390 1
  21407754.404   -16328998.651 7 -11930377.411 2
  21716760.834    -3291456.517 6   6677176.949 1
  20244888.732   -23774227.826 7   1424479.662 2
  19911667.123   -24422452.371 7    157467.303 2
 90 10 22 14 15 59.9980000  0  5 02 12 06 13 09
  23115796.475    11304271.711 5   9264288.533 1
  21400427.147   -16367502.106 7 -11960380.126 2
  21725605.662    -3244962.220 6   6713406.200 1
  20248401.170   -23755767.400 7   1438864.385 2
  19913234.061   -24414221.534 7    163880.921 2
 90 10 22 14 16 14.9980000  0  5 02 12 06 13 09
  23122408.131    11339007.289 5   9291355.104 1
  21393120.248   -16405905.832 7 -11990305.128 2
  21734473.068    -3198370.445 6   6749711.413 1
  20251928.725   -23737233.937 7   1453306.017 2
  19914830.756   -24405828.573 7    170420.862 2
 90 10 22 14 16 29.9980000  0  5 02 12 06 13 09
  23129026.092    11373791.739 5   9318459.751 1
  21385830.779   -16444211.368 7 -12020153.614 2
  21743359.889    -3151683.472 6   6786090.810 1
  20255467.826   -23718629.970 7   1467802.582 2
  19916459.178   -24397275.488 7    177085.576 2
 90 10 22 14 16 44.9980000  0  5 02 12 06 13 09
  23135656.014    11408629.072 5   9345605.616 1
  21378561.232   -16482414.163 7 -12049922.042 2
  21752262.811    -3104897.469 6   6822547.365 1
  20259023.295   -23699951.432 7   1482357.263 2
  19918116.998   -24388558.129 7    183878.298 2
 90 10 22 14 16 59.9980000  0  5 02 12 06 13 09
  23142294.748    11443516.591 5   9372790.579 1
  21371309.834   -16520516.421 7 -12079612.137 2
  21761184.928    -3058015.267 6   6859078.886 1
  20262590.311   -23681201.418 7   1496967.635 2
  19919807.678   -24379679.053 7    190797.029 2
 90 10 22 14 17 14.9980000  0  5 02 12 06 13 09
  23148944.639    11478456.297 5   9400016.216 1
  21364078.232   -16558515.770 7 -12109222.034 2
  21770123.420    -3011035.276 6   6895686.603 1
  20266172.662   -23662378.008 7   1511635.196 2
  19921527.201   -24370636.220 7    197843.366 2
 90 10 22 14 17 29.9980000  0  5 02 12 06 13 09
  23155598.436    11513445.811 5   9427280.654 1
  21356867.779   -16596414.401 7 -12138753.449 2
  21779081.467    -2963960.265 6   6932368.366 1
  20269769.506   -23643483.991 7   1526357.781 2
  19923279.115   -24361432.377 7    205015.168 2
 90 10 22 14 17 44.9980000  0  5 02 12 06 13 09
  23162270.928    11548483.838 5   9454582.903 1
  21349673.295   -16634213.121 7 -12168207.013 2
  21788058.787    -2916791.690 6   6969123.030 1
  20273376.506   -23624520.851 7   1541134.229 2
  19925061.381   -24352068.418 7    212311.730 2
 90 10 22 14 17 59.9980000  0  5 02 12 06 13 09
  23168947.021    11583575.486 5   9481926.935 1
  21342501.311   -16671906.358 7 -12197578.381 2
  21797052.014    -2869524.621 6   7005954.445 1
  20276999.193   -23605483.722 7   1555968.323 2
  19926875.006   -24342539.313 7    219736.976 2
 90 10 22 14 18 14.9980000  0  5 02 12 06 13 09
  23175633.225    11618718.754 5   9509311.183 1
  21335348.717   -16709495.841 7 -12226868.906 2
  21806065.732    -2822161.433 6   7042860.757 1
  20280635.475   -23586374.889 7   1570858.294 2
  19928719.068   -24332847.179 7    227289.261 2
 90 10 22 14 18 29.9980000  0  5 02 12 06 13 09
  23182332.357    11653913.283 5   9536735.377 1
  21328214.959   -16746981.606 7 -12256078.607 2
  21815094.365    -2774702.927 6   7079841.349 1
  20284285.256   -23567195.080 7   1585803.568 2
  19930594.857   -24322992.366 7    234968.308 2
 90 10 22 14 18 44.9980000  0  5 02 12 06 13 09
  23189037.592    11689155.892 5   9564197.038 1
  21321101.311   -16784366.394 7 -12285209.626 2
  21824144.100    -2727152.362 6   7116893.669 1
  20287947.514   -23547947.585 7   1600801.580 2
  19932500.318   -24312977.971 7    242771.702 2
 90 10 22 14 18 59.9980000  0  5 02 12 06 13 09
  23195752.748    11724446.991 5   9591696.479 1
  21314006.717   -16821649.401 7 -12314261.337 2
  21833211.490    -2679509.721 6   7154017.737 1
  20291623.467   -23528632.266 7   1615852.447 2
  19934436.701   -24302803.682 7    250699.691 2
 90 10 22 14 19 14.9980000  0  5 02 12 06 13 09
  23202481.092    11759786.866 5   9619233.948 1
  21306931.725   -16858829.993 7 -12343233.240 2
  21842294.623    -2631775.043 6   7191213.521 1
  20295312.162   -23509249.143 7   1630956.145 2
  19936403.842   -24292469.275 7    258752.448 2
 90 10 22 14 19 29.9980000  0  5 02 12 06 13 09
  23209214.990    11795177.867 5   9646811.243 1
  21299876.600   -16895905.402 7 -12372123.187 2
  21851394.678    -2583946.131 6   7228482.729 1
  20299013.951   -23489796.072 7   1646114.350 2
  19938400.951   -24281972.170 7    266931.980 2
 90 10 22 14 19 44.9980000  0  5 02 12 06 13 09
  23215957.029    11830617.463 5   9674426.395 1
  21292839.295   -16932877.724 7 -12400932.808 2
  21860513.904    -2536025.873 6   7265823.121 1
  20302730.100   -23470275.776 7   1661324.939 2
  19940427.186   -24271314.959 7    275236.273 2
 90 10 22 14 19 59.9980000  0  5 02 12 06 13 09
  23222708.701    11866110.327 5   9702083.068 1
  21285825.264   -16969741.966 7 -12429658.205 2
  21869649.982    -2488009.926 6   7303238.078 1
  20306456.443   -23450684.105 7   1676591.143 2
  19942487.561   -24260493.019 7    283668.927 2
 90 10 22 14 20 14.9980000  0  5 02 12 06 13 09
  23229476.264    11901652.160 5   9729777.875 1
  21278831.037   -17006502.189 7 -12458302.552 2
  21878803.990    -2439902.998 6   7340723.937 1
  20310197.256   -23431025.414 7   1691909.568 2
  19944577.881   -24249510.960 7    292226.349 2
 90 10 22 14 20 29.9980000  0  5 02 12 06 13 09
  23236249.357    11937242.112 5   9757510.197 1
  21271854.311   -17043158.619 7 -12486866.022 2
  21887979.529    -2391706.000 6   7378279.972 1
  20313952.459   -23411300.582 7   1707279.537 2
  19946696.678   -24238369.225 7    300908.196 2
 90 10 22 14 20 44.9980000  0  5 02 12 06 13 09
  23243028.256    11972881.722 5   9785281.199 1
  21264900.186   -17079709.388 7 -12515347.160 2
  21897167.896    -2343417.750 6   7415907.109 1
  20317716.857   -23391508.607 7   1722701.823 2
  19948849.592   -24227066.434 7    309715.536 2
 90 10 22 14 20 59.9980000  0  5 02 12 06 13 09
  23249822.014    12008570.905 5   9813090.840 1
  21257964.537   -17116154.253 7 -12543745.778 2
  21906371.897    -2295038.635 6   7453605.053 1
  20321497.873   -23371649.631 7   1738176.313 2
  19951028.764   -24215602.845 7    318648.176 2
 90 10 22 14 21 14.9980000  0  5 02 12 06 13 09
  23256622.725    12044312.699 5   9840941.469 1
  21251050.170   -17152489.633 7 -12572059.074 2
  21915596.357    -2246565.687 6   7491376.117 1
  20325288.959   -23351720.638 7   1753705.368 2
  19953242.904   -24203974.993 7    327708.811 2
 90 10 22 14 21 29.9980000  0  5 02 12 06 13 09
  23263434.717    12080102.751 5   9868829.693 1
  21244156.006   -17188719.822 7 -12600290.412 2
  21924840.740    -2198003.870 6   7529216.421 1
  20329093.264   -23331726.591 7   1769285.117 2
  19955487.209   -24192187.489 7    336893.846 2
 90 10 22 14 21 44.9980000  0  5 02 12 06 13 09
  23270252.482    12115942.795 5   9896756.889 1
  21237281.693   -17224842.811 7 -12628438.219 2
  21934094.271    -2149351.717 6   7567127.123 1
  20332911.803   -23311665.937 7   1784916.760 2
  19957758.850   -24180238.913 7    346204.395 2
 90 10 22 14 21 59.9980000  0  5 02 12 06 13 09
  23277084.428    12151834.111 5   9924724.020 1
  21230427.928   -17260856.598 7 -12656500.929 2
  21943372.678    -2100608.079 6   7605109.111 1
  20336742.709   -23291537.738 7   1800601.037 2
  19960063.537   -24168127.705 7    355641.670 2
 90 10 22 14 22 14.9980000  0  5 02 12 06 13 09
  23283921.607    12187773.644 5   9952728.731 1
  21223595.826   -17296764.014 7 -12684480.750 2
  21952665.201    -2051776.497 6   7643159.625 1
  20340584.139   -23271345.276 7   1816335.391 2
  19962400.186   -24155857.063 7    365203.182 2
 90 10 22 14 22 29.9980000  0  5 02 12 06 13 09
  23290772.186    12223766.502 5   9980774.988 1
  21216783.623   -17332559.745 7 -12712373.553 2
  21961972.537    -2002852.270 6   7681282.331 1
  20344439.779   -23251083.856 7   1832123.478 2
  19964766.615   -24143422.053 7    374892.768 2
 90 10 22 14 22 44.9980000  0  5 02 12 06 13 09
  23297626.576    12259807.598 5  10008858.830 1
  21209992.631   -17368248.415 7 -12740182.924 2
  21971301.592    -1953840.616 6   7719473.167 1
  20348307.076   -23230758.625 7   1847961.286 2
  19967163.295   -24130827.575 7    384706.621 2
 90 10 22 14 22 59.9980000  0  5 02 12 06 13 09
  23304499.748    12295898.848 5  10036981.757 1
  21203222.607   -17403827.450 7 -12767906.867 2
  21980642.561    -1904739.647 6   7757733.587 1
  20352187.904   -23210367.732 7   1863850.261 2
  19969590.029   -24118071.692 7    394646.242 2
 90 10 22 14 23 14.9980000  0  5 02 12 06 13 09
  23311375.654    12332039.578 5  10065143.244 1
  21196472.412   -17439297.080 7 -12795545.563 2
  21990005.568    -1855550.336 6   7796062.853 1
  20356081.209   -23189911.913 7   1879789.820 2
  19972047.873   -24105154.940 7    404711.209 2
 90 10 22 14 23 29.9980000  0  5 02 12 06 13 09
  23318262.381    12368230.838 5  10093344.095 1
  21189743.943   -17474656.117 7 -12823098.076 2
  21999383.490    -1806272.107 6   7834461.402 1
  20359986.467   -23169390.641 7   1895780.389 2
  19974535.756   -24092076.470 7    414902.200 2
 90 10 22 14 23 44.9980000  0  5 02 12 06 13 09
  23325155.475    12404470.563 4  10121582.721 1
  21183036.084   -17509906.311 7 -12850565.779 2
  22008778.350    -1756907.404 6   7872927.329 1
  20363902.521   -23148806.194 7   1911820.186 2
  19977054.834   -24078838.487 7    425217.485 2
 90 10 22 14 23 59.9980000  0  5 02 12 06 13 09
  23332068.818    12440755.888 5  10149856.852 1
  21176348.311   -17545050.009 7 -12877950.498 2
  22018188.326    -1707459.174 6   7911458.348 1
  20367830.701   -23128161.498 7   1927906.924 2
  19979605.396   -24065443.743 7    435654.923 2
 90 10 22 14 24 14.9980000  0  5 02 12 06 13 09
  23338978.006    12477088.679 4  10178168.012 1
  21169681.029   -17580084.997 7 -12905250.507 2
  22027612.607    -1657925.913 6   7950055.623 1
  20371772.647   -23107455.192 7   1944041.678 2
  19982183.506   -24051890.457 7    446215.898 2
 90 10 22 14 24 29.9980000  0  5 02 12 06 13 09
  23345904.373    12513471.131 5  10206517.829 1
  21163035.475   -17615008.734 7 -12932463.824 2
  22037055.654    -1608305.881 6   7988720.509 1
  20375723.568   -23086685.362 7   1960225.928 2
  19984792.639   -24038176.506 7    456902.065 2
 90 10 22 14 24 44.9980000  0  5 02 12 06 13 09
  23352834.865    12549901.970 5  10234905.370 1
  21156411.482   -17649822.068 7 -12959591.117 2
  22046512.779    -1558600.514 6   8027451.884 1
  20379688.662   -23065853.342 7   1976458.642 2
  19987434.209   -24024303.289 7    467712.335 2
 90 10 22 14 24 59.9980000  0  5 02 12 06 13 09
  23359777.467    12586381.164 5  10263330.591 1
  21149806.490   -17684524.819 7 -12986632.238 2
  22055986.123    -1508810.286 6   8066249.394 1
  20383664.498   -23044959.455 7   1992739.559 2
  19990103.381   -24010270.835 7    478646.686 2
 90 10 22 14 25 14.9980000  0  5 02 12 06 13 09
  23366731.107    12622911.267 5  10291795.484 1
  21143225.318   -17719113.929 7 -13013584.809 2
  22065478.498    -1458932.783 6   8105114.901 1
  20387653.951   -23024001.393 7   2009070.480 2
  19992803.936   -23996076.621 7    489707.087 2
 90 10 22 14 25 29.9980000  0  5 02 12 06 13 09
  23373690.123    12659490.490 5  10320298.644 1
  21136665.014   -17753590.756 7 -13040449.883 2
  22074990.420    -1408970.105 6   8144046.780 1
  20391651.100   -23002981.040 7   2025449.941 2
  19995537.842   -23981722.249 7    500892.284 2
 90 10 22 14 25 44.9980000  0  5 02 12 06 13 09
  23380658.482    12696117.322 5  10348838.901 1
  21130125.373   -17787956.554 7 -13067228.445 2
  22084508.623    -1358924.156 6   8183043.550 1
  20395663.889   -22981900.379 7   2041876.395 2
  19998298.498   -23967209.611 7    512200.806 2
 90 10 22 14 25 59.9980000  0  5 02 12 06 13 09
  23387639.264    12732792.747 5  10377417.043 1
  21123607.248   -17822209.832 7 -13093919.329 2
  22094050.186    -1308794.119 6   8222105.835 1
  20399688.943   -22960758.680 7   2058350.409 2
  20001089.365   -23952537.733 7    523633.414 2
 90 10 22 14 26 14.9980000  0  5 02 12 06 13 09
  23394628.709    12769514.842 5  10406031.526 1
  21117110.373   -17856351.917 7 -13120523.562 2
  22103605.147    -1258582.020 6   8261232.065 1
  20403722.576   -22939557.683 7   2074870.638 2
  20003910.678   -23937708.128 7    535188.920 2
 90 10 22 14 26 29.9980000  0  5 02 12 06 13 09
  23401622.561    12806281.979 5  10434681.107 1
  21110634.396   -17890384.465 7 -13147042.449 2
  22113176.146    -1208290.103 6   8300420.500 1
  20407768.271   -22918299.660 7   2091435.297 2
  20006762.975   -23922722.867 7    546865.721 2
 90 10 22 14 26 44.9980000  0  5 02 12 06 13 09
  23408628.686    12843097.823 5  10463368.628 1
  21104179.264   -17924303.578 7 -13173472.943 2
  22122760.647    -1157915.063 6   8339673.699 1
  20411825.404   -22896981.402 7   2108046.892 2
  20009644.779   -23907578.547 7    558666.462 2
 90 10 22 14 26 59.9980000  0  5 02 12 06 13 09
  23415643.061    12879960.102 5  10492092.378 1
  21097745.107   -17958110.982 7 -13199816.386 2
  22132361.717    -1107459.305 6   8378989.792 1
  20415892.959   -22875605.081 7   2124703.736 2
  20012556.389   -23892277.169 7    570589.589 2
 90 10 22 14 27 14.9980000  0  5 02 12 06 13 09
  23422669.561    12916871.114 5  10520854.067 1
  21091334.053   -17991803.869 7 -13226070.600 2
  22141979.100    -1056920.696 6   8418370.444 1
  20419971.764   -22854168.518 7   2141407.518 2
  20015498.537   -23876816.302 7    582636.988 2
 90 10 22 14 27 29.9980000  0  5 02 12 06 13 09
  23429700.998    12953828.421 5  10549651.828 1
  21084944.381   -18025384.223 7 -13252237.126 2
  22151612.053    -1006302.001 6   8457813.508 1
  20424060.865   -22832674.312 7   2158156.220 2
  20018471.045   -23861198.431 7    594806.730 2
 90 10 22 14 27 44.9980000  0  5 02 12 06 13 09
  23436745.381    12990832.162 5  10578485.778 1
  21078574.912   -18058851.695 7 -13278315.690 2
  22161263.881     -955603.555 6   8497318.702 1
  20428161.615   -22811122.824 7   2174949.556 2
  20021475.053   -23845423.749 7    607098.663 2
 90 10 22 14 27 59.9980000  0  5 02 12 06 13 09
  23443794.389    13027882.918 5  10607356.356 1
  21072228.248   -18092205.341 7 -13304305.559 3
  22170922.107     -904824.924 6   8536886.386 1
  20432274.975   -22789513.512 7   2191787.948 2
  20024505.357   -23829491.976 7    619513.000 2
 90 10 22 14 28 14.9980000  0  5 02 12 06 13 09
  23450855.873    13064980.756 5  10636263.640 1
  21065902.490   -18125444.751 7 -13330206.412 2
  22180601.334     -853966.445 6   8576516.291 1
  20436397.873   -22767846.432 7   2208671.357 2
  20027566.123   -23813402.694 7    632050.074 2
 90 10 22 14 28 29.9980000  0  5 02 12 06 13 09
  23457921.967    13102123.297 5  10665205.731 1
  21059599.162   -18158571.859 7 -13356019.760 2
  22190295.107     -803030.795 6   8616206.318 1
  20440530.756   -22746124.386 7   2225597.597 2
  20030659.631   -23797158.461 7    644707.889 2
 90 10 22 14 28 44.9980000  0  5 02 12 06 13 09
  23465001.272    13139311.658 5  10694183.539 1
  21053317.084   -18191585.127 7 -13381744.395 2
  22200005.115     -752017.141 6   8655957.137 1
  20444676.248   -22724346.487 7   2242567.357 2
  20033777.529   -23780758.177 7    657487.300 2
 90 10 22 14 28 59.9980000  0  5 02 12 06 13 09
  23472088.389    13176549.815 5  10723200.146 1
  21047058.529   -18224480.331 7 -13407377.037 3
  22209727.326     -700921.845 6   8695771.566 1
  20448831.225   -22702509.048 7   2259583.514 2
  20036930.670   -23764198.112 7    670391.219 2
 90 10 22 14 29 14.9980000  0  5 02 12 06 13 09
  23479180.529    13213835.358 5  10752253.680 1
  21040819.475   -18257259.435 7 -13432919.212 2
  22219464.834     -649747.462 6   8735647.627 1
  20452996.678   -22680614.736 7   2276643.986 2
  20040112.037   -23747480.580 7    683417.839 2
 90 10 22 14 29 29.9980000  0  5 02 12 06 13 09
  23486283.990    13251166.002 5  10781342.361 1
  21034604.490   -18289924.316 7 -13458372.379 3
  22229216.576     -598496.624 6   8775583.262 1
  20457174.764   -22658665.984 7   2293746.875 2
  20043320.631   -23730607.798 7    696565.432 2
 90 10 22 14 29 44.9980000  0  5 02 12 06 13 09
  23493397.857    13288542.965 5  10810467.121 1
  21028410.154   -18322473.591 7 -13483735.465 2
  22238984.014     -547168.539 6   8815579.084 1
  20461361.748   -22636661.810 7   2310892.954 2
  20046562.443   -23713578.782 7    709834.767 2
 90 10 22 14 29 59.9980000  0  5 02 12 06 13 09
  23500515.982    13325965.264 5  10839627.230 1
  21022237.881   -18354907.689 7 -13509008.804 2
  22248766.217     -495764.464 6   8855634.122 1
  20465558.709   -22614603.393 7   2328081.295 2
  20049834.115   -23696394.689 7    723224.943 2
 90 10 22 14 30 14.9980000  0  5 02 12 06 13 09
  23507647.123    13363433.841 5  10868823.396 1
  21016088.600   -18387225.317 7 -13534191.385 3
  22258563.186     -444283.610 6   8895748.986 1
  20469765.975   -22592489.866 7   2345312.583 2
  20053134.217   -23679054.544 7    736736.714 2
 90 10 22 14 30 29.9980000  0  5 02 12 06 13 09
  23514784.998    13400945.287 5  10898052.952 1
  21009959.154   -18419429.598 7 -13559285.644 2
  22268373.334     -392729.796 6   8935920.694 1
  20473983.732   -22570325.161 7   2362583.748 2
  20056462.826   -23661561.734 7    750367.444 2
 90 10 22 14 30 44.9980000  0  5 02 12 06 13 09
  23521932.537    13438501.181 5  10927317.148 1
  21003854.287   -18451518.219 7 -13584289.780 3
  22278198.334     -341101.463 6   8976150.472 1
  20478211.373   -22548107.614 7   2379896.085 2
  20059821.771   -23643914.565 7    764118.457 2
 90 10 22 14 30 59.9980000  0  5 02 12 06 13 09
  23529088.232    13476101.773 5  10956616.168 1
  20997769.154   -18483490.626 7 -13609203.362 3
  22288037.561     -289398.827 6   9016438.150 1
  20482450.123   -22525837.068 7   2397249.727 2
  20063208.537   -23626113.139 7    777989.668 2
 90 10 22 14 31 14.9980000  0  5 02 12 06 13 09
  23536254.365    13513748.821 5  10985951.380 1
  20991707.146   -18515344.951 7 -13634024.929 3
  22297891.646     -237620.521 6   9056784.792 1
  20486699.717   -22503512.210 7   2414645.687 2
  20066623.990   -23608155.636 7    791982.499 2
 90 10 22 14 31 29.9980000  0  5 02 12 06 13 09
  23543424.850    13551443.204 5  11015323.483 1
  20985668.561   -18547079.819 7 -13658753.413 3
  22307756.803     -185765.867 6   9097190.924 1
  20490958.912   -22481132.141 7   2432084.667 2
  20070069.139   -23590041.353 7    806097.491 2
 90 10 22 14 31 44.9980000  0  5 02 12 06 13 09
  23550606.607    13589182.769 5  11044730.814 1
  20979651.639   -18578697.350 7 -13683390.468 3
  22317639.717     -133837.509 6   9137654.492 1
  20495225.498   -22458699.659 7   2449564.490 2
  20073549.068   -23571772.693 7    820332.782 2
 90 10 22 14 31 59.9980000  0  5 02 12 06 13 09
  23557800.240    13626967.602 5  11074173.395 1
  20973657.920   -18610196.899 7 -13707935.585 3
  22327534.686      -81835.491 6   9178175.449 1
  20499504.654   -22436214.865 7   2467085.079 2
  20077054.029   -23553349.439 7    834688.532 2
 90 10 22 14 32 14.9980000  0  5 02 12 06 13 09
  23564998.639    13664797.513 5  11103651.109 1
  20967686.420   -18641578.235 7 -13732388.592 3
  22337441.740      -29760.420 6   9218753.339 1
  20503794.842   -22413678.133 7   2484646.131 2
  20080587.045   -23534771.794 7    849164.589 2
 90 10 22 14 32 29.9980000  0  5 02 12 06 13 09
  23572205.459    13702675.138 5  11133166.001 1
  20961738.467   -18672838.368 7 -13756747.154 3
  22347368.568       22390.147 6   9259390.047 1
  20508092.357   -22391087.057 7   2502249.535 2
  20084155.053   -23516037.356 7    863762.817 2
 90 10 22 14 32 44.9980000  0  5 02 12 06 13 09
  23579421.107    13740598.300 5  11162716.356 1
  20955811.686   -18703979.124 7 -13781012.697 3
  22357306.311       74613.712 6   9300083.635 1
  20512402.014   -22368443.712 7   2519893.660 2
  20087747.537   -23497148.558 7    878481.333 2
 90 10 22 14 32 59.9980000  0  5 02 12 06 13 09
  23586648.521    13778564.517 5  11192300.265 1
  20949908.162   -18735002.513 7 -13805186.786 2
  22367259.904      126907.535 6   9340831.979 1
  20516721.318   -22345750.868 7   2537576.366 2
  20091371.740   -23478107.510 7    893318.479 2
 90 10 22 14 33 14.9980000  0  5 02 12 06 13 09
  23593879.146    13816575.003 5  11221918.708 1
  20944027.522   -18765907.076 7 -13829268.274 2
  22377222.350      179272.434 6   9381635.695 1
  20521045.607   -22323007.747 7   2555298.242 2
  20095027.209   -23458913.266 7    908274.999 2
 90 10 22 14 33 29.9980000  0  5 02 12 06 13 09
  23601119.467    13854631.461 5  11251572.942 1
  20938169.725   -18796690.643 7 -13853255.488 2
  22387201.537      231709.945 6   9422496.000 1
  20525385.342   -22300212.845 7   2573060.466 2
  20098705.865   -23439564.289 7    923352.088 2
 90 10 22 14 33 44.9980000  0  5 02 12 06 13 09
  23608373.951    13892733.363 5  11281262.590 1
  20932334.998   -18827353.210 7 -13877148.414 2
  22397191.631      284219.342 6   9463412.311 1
  20529734.678   -22277366.618 7   2590862.684 2
  20102416.037   -23420061.126 7    938549.328 2
 90 10 22 14 33 59.9980000  0  5 02 12 06 13 09
  23615628.389    13930877.784 4  11310985.373 1
  20926522.475   -18857897.486 7 -13900949.164 3
  22407197.553      336797.247 6   9504382.020 1
  20534091.443   -22254472.349 7   2608702.339 2
  20106155.404   -23400406.584 7    953864.522 2
 90 10 22 14 34 14.9980000  0  5 02 12 06 13 09
  23622901.209    13969063.670 5  11340740.463 1
  20920732.607   -18888324.253 7 -13924658.350 3
  22417215.693      389442.313 6   9545404.046 1
  20538457.873   -22231531.262 7   2626578.473 2
  20109925.154   -23380602.059 7    969296.586 2
 90 10 22 14 34 29.9980000  0  5 02 12 06 13 09
  23630173.287    14007294.940 5  11370530.912 1
  20914964.615   -18918629.082 7 -13948272.522 3
  22427247.186      442158.288 6   9586481.326 1
  20542832.623   -22208539.538 7   2644494.062 2
  20113721.842   -23360643.700 7    984848.519 2
 90 10 22 14 34 44.9980000  0  5 02 12 06 13 09
  23637458.506    14045571.361 5  11400356.545 1
  20909222.225   -18948812.028 7 -13971791.714 3
  22437292.186      494944.471 6   9627613.323 1
  20547216.959   -22185498.061 7   2662448.425 2
  20117549.646   -23340531.678 7   1000520.192 2
 90 10 22 14 34 59.9980000  0  5 02 12 06 13 09
  23644747.951    14083891.072 5  11430215.926 1
  20903502.029   -18978874.481 7 -13995217.022 3
  22447351.404      547798.823 6   9668798.436 1
  20551609.701   -22162408.572 7   2680440.195 2
  20121406.998   -23320268.086 7   1016309.972 2
 90 10 22 14 35 14.9980000  0  5 02 12 06 13 09
  23652050.959    14122253.733 5  11460108.765 1
  20897803.693   -19008816.449 7 -14018548.442 3
  22457421.459      600720.635 6   9710036.108 1
  20556010.318   -22139271.646 7   2698468.934 2
  20125295.342   -23299853.437 7   1032217.460 2
 90 10 22 14 35 29.9980000  0  5 02 12 06 13 09
  23659360.490    14160659.912 5  11490035.514 1
  20892129.115   -19038636.949 7 -14041785.212 3
  22467507.412      653710.228 6   9751326.601 1
  20560424.865   -22116086.800 7   2716535.008 2
  20129205.092   -23279287.085 7   1048243.156 2
 90 10 22 14 35 44.9980000  0  5 02 12 06 13 09
  23666677.053    14199108.587 4  11519995.368 1
  20886477.459   -19068336.612 7 -14064927.826 3
  22477599.592      706766.202 6   9792668.822 1
  20564845.982   -22092855.625 7   2734637.182 2
  20133147.865   -23258570.118 7   1064386.215 2
 90 10 22 14 35 59.9980000  0  5 02 12 06 13 09
  23673998.131    14237601.619 4  11549989.791 1
  20880849.873   -19097913.024 7 -14087974.395 3
  22487709.811      759890.261 6   9834064.089 1
  20569273.420   -22069576.101 7   2752777.031 2
  20137121.451   -23237700.862 7   1080647.941 2
 90 10 22 14 36 14.9980000  0  5 02 12 06 13 09
  23681330.475    14276136.246 4  11580016.641 1
  20875243.748   -19127368.825 7 -14110926.983 3
  22497832.959      813079.194 6   9875509.910 1
  20573715.334   -22046251.365 7   2770952.112 2
  20141117.740   -23216682.345 7   1097025.975 2
 90 10 22 14 36 29.9980000  0  5 02 12 06 13 09
  23688672.107    14314715.874 3  11610078.542 1
  20869661.943   -19156700.445 7 -14133782.805 3
  22507966.771      866336.080 5   9917008.672 1
  20578160.701   -22022878.178 7   2789164.949 2
  20145150.123   -23195511.214 7   1113522.928 2
 90 10 22 14 36 44.9980000  0  5 02 12 06 13 09
  23696022.428    14353337.341 4  11640173.032 1
  20864104.061   -19185910.557 7 -14156543.949 3
  22518115.522      919657.576 5   9958557.793 1
  20582617.592   -21999459.984 7   2807412.851 2
  20149206.170   -23174190.602 7   1130136.361 2
 90 10 22 14 36 59.9980000  0  5 02 12 06 13 09
  23703385.615    14391999.461 4  11670299.203 1
  20858568.920   -19214999.848 7 -14179210.944 3
  22528271.982      973042.287 5  10000156.167 1
  20587083.764   -21975997.902 7   2825694.955 2
  20153288.529   -23152721.885 7   1146865.197 2
 90 10 22 14 37 14.9980000  0  5 02 12 06 13 09
  23710746.248    14430703.585 4  11700458.126 1
  20853055.818   -19243966.563 7 -14201782.423 2
  22538442.521     1026491.165 6  10041804.545 1
  20591556.506   -21952490.935 7   2844012.034 2
  20157405.397   -23131103.499 7   1163710.663 2
 90 10 22 14 37 29.9980000  0  5 02 12 06 13 09
  23718123.193    14469451.520 4  11730651.171 1
  20847568.193   -19272808.687 7 -14224256.820 3
  22548625.748     1080005.736 5  10083504.112 1
  20596036.521   -21928937.612 7   2862365.232 2
  20161549.420   -23109333.943 7   1180673.920 2
 90 10 22 14 37 44.9980000  0  5 02 12 06 13 09
  23725497.779    14508242.973 4  11760878.111 1
  20842102.670   -19301526.155 7 -14246634.085 3
  22558823.709     1133585.430 5  10125254.410 1
  20600527.084   -21905338.374 7   2880754.215 2
  20165721.639   -23087413.806 7   1197754.514 2
 90 10 22 14 37 59.9980000  0  5 02 12 06 13 09
  23732886.256    14547076.684 4  11791137.981 1
  20836661.787   -19330119.950 7 -14268914.979 3
  22569031.756     1187228.540 5  10167054.139 1
  20605025.631   -21881694.620 7   2899177.880 2
  20169920.787   -23065344.332 7   1214951.470 2
 90 10 22 14 38 14.9980000  0  5 02 12 06 13 09
  23740291.647    14585954.294 4  11821432.109 1
  20831243.857   -19358587.915 7 -14291097.818 3
  22579250.748     1240936.667 5  10208904.526 1
  20609535.287   -21858004.754 7   2917637.472 2
  20174149.686   -23043123.885 7   1232266.076 2
 90 10 22 14 38 29.9980000  0  5 02 12 06 13 09
  23747697.662    14624872.731 4  11851757.984 1
  20825849.756   -19386932.759 7 -14313184.725 3
  22589485.115     1294706.406 5  10250802.911 1
  20614051.170   -21834272.194 7   2936130.337 2
  20178404.787   -23020755.663 7   1249695.826 2
 90 10 22 14 38 44.9980000  0  5 02 12 06 13 09
  23755107.982    14663831.900 4  11882115.641 1
  20820479.967   -19415154.154 7 -14335175.437 2
  22599725.404     1348537.308 5  10292748.962 1
  20618577.451   -21810496.927 7   2954656.482 2
  20182687.318   -22998239.845 7   1267240.586 2
 90 10 22 14 38 59.9980000  0  5 02 12 06 13 09
  23762534.693    14702830.469 4  11912503.977 1
  20815133.521   -19443253.229 7 -14357070.831 3
  22609981.232     1402427.645 5  10334741.333 1
  20623109.225   -21786680.770 7   2973214.487 2
  20186997.795   -22975578.105 7   1284899.052 2
 90 10 22 14 39 14.9980000  0  5 02 12 06 13 09
  23769961.107    14741871.771 4  11942925.611 1
  20809809.498   -19471226.157 7 -14378867.938 3
  22620251.209     1456380.597 5  10376782.482 1
  20627647.662   -21762820.493 7   2991806.870 2
  20191342.857   -22952767.018 7   1302673.892 2
 90 10 22 14 39 29.9980000  0  5 02 12 06 13 09
  23777399.326    14780954.086 4  11973379.205 1
  20804510.490   -19499074.517 7 -14400567.971 3
  22630528.561     1510393.965 5  10418870.709 1
  20632197.889   -21738918.275 7   3010431.938 2
  20195708.561   -22929808.545 7   1320563.578 2
 90 10 22 14 39 44.9980000  0  5 02 12 06 13 09
  23784844.975    14820078.841 4  12003865.858 1
  20799235.600   -19526796.507 7 -14422169.538 3
  22640817.451     1564468.867 5  10461006.893 1
  20636753.615   -21714972.798 7   3029090.711 2
  20200108.092   -22906701.448 7   1338569.076 2
 90 10 22 14 39 59.9980000  0  5 02 12 06 13 09
  23792292.022    14859245.818 3  12034385.431 1
  20793983.600   -19554391.856 7 -14443672.423 3
  22651119.873     1618604.969 5  10503190.759 1
  20641319.201   -21690984.354 7   3047782.963 2
  20204532.287   -22883445.901 7   1356690.248 2
 90 10 22 14 40 14.9980000  0  5 02 12 06 13 09
  23799759.365    14898453.041 4  12064936.356 1
  20788756.795   -19581862.253 7 -14465077.941 3
  22661431.912     1672799.877 5  10545420.442 1
  20645889.592   -21666955.305 7   3066506.864 2
  20208987.764   -22860043.977 7   1374925.483 2
 90 10 22 14 40 29.9980000  0  5 02 12 06 13 09
  23807226.857    14937702.456 4  12095520.175 1
  20783553.506   -19609205.325 7 -14486384.247 3
  22671759.467     1727055.266 5  10587697.252 1
  20650474.193   -21642883.753 7   3085263.878 2
  20213465.092   -22836494.075 7   1393276.022 2
 90 10 22 14 40 44.9980000  0  5 02 12 06 13 09
  23814700.475    14976993.584 4  12126136.467 1
  20778374.670   -19636420.981 7 -14507591.262 3
  22682093.404     1781370.598 5  10630020.782 1
  20655061.162   -21618770.192 7   3104053.625 2
  20217976.654   -22812796.390 7   1411741.719 2
 90 10 22 14 40 59.9980000  0  5 02 12 06 13 09
  23822183.232    15016324.313 4  12156783.633 1
  20773219.615   -19663511.222 7 -14528700.556 3
  22692441.654     1835743.292 5  10672388.992 1
  20659655.529   -21594616.935 7   3122874.305 2
  20222516.240   -22788953.546 7   1430320.524 3
 90 10 22 14 41 14.9980000  0  5 02 12 06 13 09
  23829683.186    15055694.527 4  12187461.562 1
  20768087.842   -19690475.811 7 -14549711.937 3
  22702798.443     1890173.001 5  10714801.641 1
  20664260.975   -21570424.229 7   3141725.722 2
  20227080.826   -22764965.356 7   1449012.586 3
 90 10 22 14 41 29.9980000  0  5 02 12 06 13 09
  23837176.131    15095103.952 4  12218170.038 1
  20762981.100   -19717314.575 7 -14570625.275 3
  22713167.740     1944659.105 5  10757258.233 1
  20668870.693   -21546192.807 7
  20231673.725   -22740832.572 7
 90 10 22 14 41 44.9980000  0  5 02 12 06 13 09
  23844685.186    15134553.970 4  12248910.167 1
  20757898.771   -19744025.898 7 -14591439.307 3
  22723545.412     1999202.653 5  10799759.581 1
  20673489.162   -21521921.310 7
  20236293.623   -22716553.738 7
 90 10 22 14 41 59.9980000  0  5 02 12 06 13 09
  23852193.701    15174042.589 4  12279680.383 1
  20752839.342   -19770611.295 7 -14612155.214 3
  22733934.568     2053801.504 5  10842304.019 1
  20678115.334   -21497611.749 7   3198462.601 2
  20240941.475   -22692131.051 7   1505766.488 2
